     2              OBSERVATION DATA    GPS                 RINEX VERSION / TYPE
TRRINEXO-V2.3.1-LH UCLA/SCEC 25-FEB-1994                    PGM / RUN BY / DATE
                                                            COMMENT
Original Marker Name: UCLA YOUNG HALL                       COMMENT
Campaign Name: Northridge 1994                              COMMENT
4-Character Station Name: UCLA                              COMMENT
6-Character Antenna Code: TRMSST                            COMMENT
Vertical Measurement Point: BPA                             COMMENT
Vertical Offset to Rinex Ref. Point: 0.0000                 COMMENT
Radial Measurement Point: RRP                               COMMENT
Radial Offset to Rinex Ref. Point: 0.0000                   COMMENT
Antenna Height from Field Measurement: 0.0000 m             COMMENT
Fixed station.                                              COMMENT
Original XYZ: -2518941.3929 -4650713.3128 3552844.5721      COMMENT
New XYZ position is based on association with SCEC monument COMMENT
E1C7Y6O1+0021. Position of that monument is believed to be  COMMENT
valid to within 1 m horizontally; vertical accuracy         COMMENT
should be no worse than 3-times this value.                 COMMENT
                                                            COMMENT
Revised Rinex header created by UCSD GPS archive for        COMMENT
GSAC on 30-May-1999 (1999:150) 19:48:13 GMT                 COMMENT
For assistance contact dagnew@ucsd.edu or hjohnson@ucsd.edu COMMENT
                                                            COMMENT
UCLA YOUNG HALL 1990                                        MARKER NAME
X. GE UCLA                                                  OBSERVER / AGENCY
432 TRIMBLE 4000 SST 4.81                                   REC # / TYPE / VERS
97 TR 4000SST L1/L2 GEO                                     ANT # / TYPE
 -2518952.0000 -4650737.0000  3552822.0000                  APPROX POSITION XYZ
        0.0000        0.0000        0.0000                  ANTENNA: DELTA H/E/N
     1     2     0                                          WAVELENGTH FACT L1/2
     3    C1    L1    L2                                    # / TYPES OF OBSERV
    30                                                      INTERVAL
  1994     2     9     0     1   30.000000                  TIME OF FIRST OBS
  1994     2     9    23    57   30.000000                  TIME OF LAST OBS
     0                                                      # OF SATELLITES
                                                            END OF HEADER
 94  2  9  0  1 30.0000000  0  8 27 26 18  2 19  7 16 31
  20242813.867          -0.14117
  24559323.289          -0.22513
  23712539.438          -0.89915
  21235353.766          -0.67617
  21249618.930          -0.85017
  22717376.305          -0.67116
  24287173.844          -0.01414
  23457581.023          -0.66915
 94  2  9  0  2  0.0000000  0  8 27 26 18  2 19  7 16 31
  20242352.742       -2425.461 7        -0.35619
  24542603.180      -87854.249 4
  23734263.188      114195.826 5
  21230806.305      -23899.378 7
  21257910.977       43568.949 7        -0.48418
  22699585.617      -93432.046 6
  24296061.367       46677.640 5
  23475047.133       91791.536 5
 94  2  9  0  2 30.0000000  0  8 27 26 18  2 19  7 16 31
  20241951.828       -4509.950 7     -1624.625 9
  24525934.469     -175471.791 4        -0.19613
  23756021.695      228508.502 5        -0.21913
  21226311.945      -47513.354 7        -0.06318
  21266250.609       87403.767 7     34156.513 8
  22681857.453     -186645.021 6        -0.13316
  24305007.867       93716.669 5        -0.31413
  23492583.656      183946.177 5        -0.03215
 94  2  9  0  3  0.0000000  0  8 27 26 18  2 19  7 16 31
  20241626.164       -6234.334 7     -2968.294 9
  24509308.453     -262857.160 4    -68092.580 2
  23777795.133      342921.177 5     89152.446 4
  21221867.906      -70864.723 7    -18195.921 8
  21274642.352      131502.531 7     68519.177 8
  22664159.609     -279637.582 6    -72461.810 6
  24314025.570      141103.635 4     36924.592 2
  23510189.734      276458.670 5     72087.605 5
 94  2  9  0  3 30.0000000  0  8 27 26 18  2 19  7 16 31
  20241370.797       -7589.302 7     -4024.115 9
  24492721.133     -350006.462 4   -136001.059 1
  23799589.742      457446.006 5    178392.550 4
  21217475.805      -93944.910 7    -36180.471 8
  21283090.188      175896.321 7    103111.739 8
  22646510.172     -372383.571 6   -144731.358 6
  24323103.180      188838.646 4     74120.690 4
  23527860.984      369330.883 5    144455.523 5
 94  2  9  0  4  0.0000000  0  8 27 26 18  2 19  7 16 31
  20241181.305       -8585.454 7     -4800.329 9
  24476183.563     -436934.965 4   -203737.496 2
  23821408.406      572069.753 5    267709.698 3
  21213129.359     -116783.905 7    -53977.081 8
  21291602.172      220613.033 7    137955.928 8
  22628908.133     -464882.503 6   -216808.402 6
  24332253.875      236908.971 4    111578.068 2
  23545602.086      462562.891 5    217103.798 5
 94  2  9  0  4 30.0000000  0  8 27 26 18  2 19  7 16 31
  20241059.648       -9223.886 7     -5297.799 9
  24459675.289     -523643.540 4   -271302.536 2
  23843238.984      686799.803 5    357109.698 2
  21208831.555     -139392.560 7    -71594.204 8
  21300173.781      265663.344 7    173060.053 8
  22611357.000     -557134.375 6   -288692.912 6
  24341474.016      285323.694 4    149303.822 2
  23563412.680      556153.111 5    290031.218 5
 94  2  9  0  5  0.0000000  0  8 27 26 18  2 19  7 16 31
  20241001.406       -9528.342 7
  24443224.516     -610134.469 4   -338698.019 3
  23865090.125      801637.783 5    446593.784 2
  21204570.219     -161780.288 7    -89039.177 8
  21308803.719      311026.042 7    208407.605 8
  22593841.328     -649147.500 6   -360391.395 6
  24350746.875      334072.370 4    187289.803 1
  23581287.961      650082.171 5    363222.668 5
 94  2  9  0  5 30.0000000  0  8 27 26 18  2 19  7 16 31
  20241010.055       -9487.779 7
  24426811.477     -696386.701 5   -405907.495 3
  23886960.398      916600.387 5    536174.994 4
  21200351.344     -183923.725 7   -106293.795 8
  21317501.438      356716.132 7    244010.270 8
  22576387.602     -740904.251 6   -431890.101 6
  24360084.680      383165.288 4    225543.998 2
  23599224.180      744352.205 5    436679.801 5
 94  2  9  0  6  0.0000000  0  8 27 26 18  2 19  7 16 31
  20241076.313       -9112.623 7
  24410433.148     -782414.724 3   -472942.251 2
  23908853.445     1031661.434 5    625832.879 4
  21196187.648     -205830.933 7   -123364.342 8
  21326248.977      402697.330 7    279839.772 8
  22558966.375     -832423.553 6   -503203.788 6
  24369483.789      432587.120 4    264054.480 2
  23617225.063      838931.947 5    510378.279 5
 94  2  9  0  6 30.0000000  0  8 27 26 18  2 19  7 16 31
  20241218.930       -8392.612 7     -4650.023 9
  24394113.633     -868209.296 5   -539795.110 3
  23930771.164     1146835.456 5    715578.797 2
  21192067.492     -227473.598 7   -140228.749 8
  21335052.609      448954.222 7    315884.093 8
  22541602.672     -923695.692 6   -574324.884 6
  24378959.391      482334.426 4    302818.619 1
  23635277.742      933805.429 5    584305.632 5
 94  2  9  0  7  0.0000000  0  8 27 26 18  2 19  7 16 31
  20241416.195       -7334.016 7     -3825.127 9
  24377827.438     -953777.655 5   -606471.739 4
  23952709.828     1262101.183 5    805396.201 3
  21188000.977     -248848.088 7   -156884.189 8
  21343908.484      495486.986 7    352143.390 8
  22524279.055    -1014716.629 6   -645250.227 6
  24388489.500      532391.784 4    341824.337 2
  23653385.703     1028965.421 5    658456.247 5
 94  2  9  0  7 30.0000000  0  8 27 26 18  2 19  7 16 31
  20241684.797       -5940.827 7     -2739.521 9
  24361579.516    -1039131.240 4   -672980.928 2
  23974666.836     1377425.623 5    895259.322 3
  21183980.766     -269968.528 7   -173341.669 8
  21352813.000      542287.215 7    388611.087 8
  22507001.813    -1105480.138 6   -715974.999 6
  24398068.883      582749.064 4    381063.750 1
  23671546.672     1124410.974 5    732829.380 5
 94  2  9  0  8  0.0000000  0  8 27 26 18  2 19  7 16 31
  20242017.633       -4206.464 7     -1388.063 9
  24345384.461    -1124243.049 4   -739301.754 2
  23996617.188     1492829.990 5    985184.765 3
  21180009.711     -290830.042 7   -189597.381 8
  21361773.516      589368.963 7    425298.157 8
  22489787.633    -1195970.165 6   -786486.647 6
  24407708.063      633417.613 3    420545.710 2
  23689769.781     1220163.023 5    807441.344 5
 94  2  9  0  8 30.0000000  0  8 27 26 18  2 19  7 16 31
  20242407.500       -2122.543 7       235.772 9
  24329239.852    -1209087.941 4   -805414.581 3
  24018585.672     1608310.400 4   1075169.431 2
  21176087.531     -311446.882 7   -205662.447 8
  21370787.219      636743.364 7    462213.269 8
  22472617.102    -1286177.225 6   -856777.805 6
  24417408.797      684387.864 4    460262.744 3
  23708049.063     1316229.051 5    882297.949 5
 94  2  9  0  9  0.0000000  0  8 27 26 18  2 19  7 16 31
  20242872.641         318.010 7      2137.509 9
  24313153.297    -1293645.743 5   -871303.706 3
  24040584.953     1723870.432 5   1165216.149 3
  21172211.398     -331830.521 7   -221545.788 8
  21379861.016      684425.662 7    499368.299 8
  22455509.820    -1376095.422 6   -926843.884 6
  24427175.273      735687.759 5    500236.676 2
  23726396.047     1412629.911 5    957415.480 5
 94  2  9  0  9 30.0000000  0  8 27 26 18  2 19  7 16 31
  20243403.430        3099.854 7      4305.181 9
  24297115.078    -1377936.323 4   -936984.623 2
  24062585.016     1839497.393 5   1255315.049 4
  21168369.219     -352012.217 7   -237271.775 8
  21388985.500      732365.246 7    536723.813 8
  22438447.594    -1465762.346 6   -996714.183 6
  24436995.914      787305.615 4    540458.376 2
  23744800.172     1509343.210 5   1032776.460 5
 94  2  9  0 10  0.0000000  0  8 27 26 18  2 19  7 16 31
  20244001.945        6244.901 7      6755.870 9
  24281118.992    -1461949.650 4  -1002449.464 3
  24084601.133     1955206.709 5   1345478.115 2
  21164573.398     -371977.925 7   -252829.453 8
  21398156.383      780568.235 7    574284.578 8
  22421429.352    -1555185.434 6  -1066394.463 6
  24446874.805      839250.467 3    580934.818 2
  23763260.828     1606367.647 5   1108379.901 5
 94  2  9  0 10 30.0000000  0  8 27 26 18  2 19  7 16 31
  20244670.367        9764.762 7      9498.620 9
  24265197.594    -1545676.852 4  -1067691.360 4
  24106637.938     2071004.504 5   1435710.103 3
  21160818.086     -391702.219 7   -268199.020 8
  21407383.289      829049.800 7    612062.413 8
  22404464.664    -1644351.025 6  -1135874.108 6
  24456831.133      891555.241 4    621691.756 2
  23781785.781     1703711.836 5   1184232.483 5
 94  2  9  0 11  0.0000000  0  8 27 26 18  2 19  7 16 31
  20245409.172       13644.465 7     12521.765 9
  24249307.391    -1629140.546 4  -1132727.950 3
  24128694.461     2186885.616 5   1526007.013 2
  21157109.609     -411176.398 7   -283373.701 8
  21416655.883      877798.163 7    650048.139 8
  22387546.148    -1733256.252 6  -1205150.870 6
  24466850.578      944223.377 3    662731.853 2
  23800371.875     1801374.698 5   1260333.377 5
 94  2  9  0 11 30.0000000  0  8 27 26 18  2 19  7 16 31
  20246222.078       17897.723 7     15835.996 9
  24233475.586    -1712339.050 4  -1197557.877 2
  24150755.203     2302844.045 5   1616364.211 2
  21153455.398     -430381.016 7   -298338.326 8
  21425985.250      926817.329 7    688244.885 8
  22370682.391    -1821882.161 6  -1274209.987 6
  24476941.313      997229.377 4    704035.202 2
  23819010.078     1899340.006 5   1336669.942 4
 94  2  9  0 12  0.0000000  0  8 27 26 18  2 19  7 16 31
  20247099.680       22512.180 7     19431.671 9
  24217697.039    -1795268.409 5  -1262178.119 4
  24172837.266     2418869.590 5   1706773.657 2
  21149854.758     -449310.536 7   -313088.579 8
  21435369.703      976132.183 6    726672.031 8
  22353867.594    -1910215.847 6  -1343041.391 6
  24487085.469     1050549.721 3    745583.483 2
  23837712.609     1997595.252 5   1413232.455 5
 94  2  9  0 12 30.0000000  0  8 27 26 18  2 19  7 16 31
  20248035.703       27447.151 7     23277.106 9
  24201965.344    -1877955.306 5  -1326609.387 4
  24194919.305     2534932.911 5   1797212.552 2
  21146303.297     -467987.899 7   -327642.346 8
  21444807.133     1025722.479 7    765313.810 8
  22337112.609    -1998272.706 6  -1411657.094 6
  24497289.211     1104150.947 4    787350.651 2
  23856457.344     2096124.252 5   1490008.265 5
 94  2  9  0 13  0.0000000  0  8 27 26 18  2 19  7 16 31
  20249049.906       32755.337 7     27413.351 9
  24186277.898    -1960373.190 5  -1390831.064 2
  24217023.219     2651071.191 5   1887709.870 3
  21142796.664     -486385.599 7   -341978.203 8
  21454303.102     1075627.626 7    804200.929 8
  22320415.688    -2086018.173 6  -1480030.155 6
  24507542.961     1158036.853 4    829339.604 2
  23875267.781     2194956.949 5   1567020.730 5
 94  2  9  0 13 30.0000000  0  8 27 26 18  2 19  7 16 31
  20250125.367       38428.748 7     31834.196 9
  24170647.297    -2042531.584 5  -1454850.556 4
  24239138.891     2767277.294 5   1978260.010 3
  21139349.703     -504523.840 7   -356111.869 8
  21463859.070     1125845.452 7    843331.696 8
  22303772.430    -2173473.545 6  -1548177.175 7
  24517848.461     1212186.882 4    871534.399 2
  23894131.469     2294075.935 5   1644256.269 4
 94  2  9  0 14  0.0000000  0  8 27 26 18  2 19  7 16 31
  20251270.797       44431.968 7     36512.025 9
  24155054.695    -2124457.531 5  -1518688.922 4
  24261258.203     2883531.676 5   2068847.788 2
  21135938.492     -522426.369 7   -370061.873 8
  21473472.367     1176354.788 7    882689.605 8
  22287181.789    -2260663.219 6  -1616117.150 7
  24528202.477     1266599.466 4    913933.792 1
  23913045.117     2393473.697 5   1721709.060 5
 94  2  9  0 14 30.0000000  0  8 27 26 18  2 19  7 16 31
  20252473.594       50782.768 7     41460.701 9
  24139512.766    -2206145.204 5  -1582341.618 4
  24283394.336     2999843.722 5   2159480.509 3
  21132580.984     -540090.854 7   -383826.378 8
  21483139.969     1227155.260 7    922274.379 8
  22270643.992    -2347567.122 6  -1683834.446 7
  24538609.500     1321295.358 3    956553.911 2
  23932013.328     2493159.856 5   1799386.537 5
 94  2  9  0 15  0.0000000  0  8 27 26 18  2 19  7 16 31
  20253756.359       57504.769 7     46698.623 9
  24124013.508    -2287576.452 5  -1645794.497 3
  24305530.484     3116212.426 3   2250157.328 3
  21129263.313     -557516.582 7   -397404.846 8
  21492862.906     1278254.981 7    962092.342 8
  22254165.242    -2434167.838 6  -1751315.495 7
  24549071.633     1376279.311 3    999398.502 1
  23951037.898     2593129.012 5   1877284.562 5
 94  2  9  0 15 30.0000000  0  8 27 26 18  2 19  7 16 31
  20255103.742       64581.337 7     52212.832 9
  24108570.797    -2368744.551 5  -1709042.344 3
  24327682.055     3232608.476 3   2340855.482 2
  21125990.117     -574708.599 7   -410801.192 8
  21502640.883     1329635.972 7   1002129.474 8
  22237742.273    -2520469.320 6  -1818563.381 7
  24559592.180     1431547.990 3   1042464.984 1
  23970113.164     2693364.923 5   1955390.455 5
 94  2  9  0 16  0.0000000  0  8 27 26 18  2 19  7 16 31
  20256515.820       72010.486 7     58001.788 9
  24093168.672    -2449648.985 4  -1772084.737 4
  24349831.367     3349014.257 3   2431561.238 1
  21122759.563     -591680.016 7   -424025.654 8
  21512468.938     1381285.440 6   1042375.812 8
  22221376.297    -2606481.169 6  -1885585.572 7
  24570153.484     1487084.808 3   1085740.381 1
  23989231.625     2793850.720 5   2033691.050 5
 94  2  9  0 16 30.0000000  0  8 27 26 18  2 19  7 16 31
  20258005.539       79830.003 7     64094.919 9
  24077829.273    -2530247.640 5  -1834888.850 4
  24371986.484     3465444.202 3   2522285.805 3
  21119577.055     -608413.633 7   -437064.814 8
  21522355.188     1433233.637 6   1082854.913 8
  22205064.031    -2692185.997 6  -1952368.522 7
  24580774.781     1542893.211 3   1129227.402 2
  24008405.656     2894598.286 5   2112195.619 5
 94  2  9  0 17  0.0000000  0  8 27 26 18  2 19  7 16 31
  20259572.281       88057.472 7     70505.931 9
  24062556.664    -2610519.357 5  -1897438.230 5
  24394150.992     3581901.226 3   2613031.482 1
  21116437.781     -624907.065 7   -449916.830 8
  21532299.281     1485495.467 6   1123578.423 8
  22188815.219    -2777593.359 6  -2018919.688 7
  24591447.930     1598967.285 3   1172921.440 1
  24027625.414     2995610.341 5   2190906.302 5
 94  2  9  0 17 30.0000000  0  8 27 26 18  2 19  7 16 31
  20261213.016       96686.249 7     77229.655 9
  24047352.398    -2690459.944 5  -1959729.566 3
  24416319.672     3698404.123 3   2703812.902 1
  21113344.844     -641158.748 7   -462580.468 8
  21542306.539     1538081.269 7   1164554.362 8
  22172618.688    -2862707.995 6  -2085242.752 7
  24602167.492     1655314.022 3   1216827.901 2
  24046898.156     3096888.435 5   2269824.279 4
 94  2  9  0 18  0.0000000  0  8 27 26 18  2 19  7 16 31
  20262925.320      105689.628 7     84245.274 9
  24032193.938    -2770088.562 5  -2021777.845 3
  24438500.945     3814951.771 3   2794629.165 1
  21110296.461     -657194.452 7   -475075.816 9
  21552372.125     1590978.796 6   1205773.212 8
  22156473.484    -2947538.764 6  -2151344.629 7
  24612940.164     1711919.307 4   1260935.905 2
  24066218.930     3198426.194 5   2348944.564 5
 94  2  9  0 18 30.0000000  0  8 27 26 18  2 19  7 16 31
  20264705.398      115053.458 7     91541.767 9
  24017100.781    -2849406.638 5  -2083584.126 3
  24460688.875     3931547.475 4   2885482.893 1
  21107288.148     -673010.556 7   -487400.042 8
  21562495.305     1644185.913 6   1247233.294 8
  22140391.250    -3032070.106 6  -2217213.184 7
  24623763.648     1768790.750 4   1305251.248 1
  24085596.648     3300225.184 5   2428268.435 5
 94  2  9  0 19  0.0000000  0  8 27 26 18  2 19  7 16 31
  20266557.320      124775.842 7     99117.656 9
  24002062.625    -2928415.610 5  -2145149.534 4
  24482889.383     4048212.613 5   2976390.745 1
  21104317.063     -688600.562 7   -499548.101 8
  21572678.766     1697698.650 7   1288931.524 8
  22124361.648    -3116285.060 6  -2282835.200 7
  24634643.930     1825950.032 3   1349790.914 1
  24105013.031     3402294.224 5   2507802.716 5
 94  2  9  0 19 30.0000000  0  8 27 26 18  2 19  7 16 31
  20268473.523      134856.211 7    106972.497 9
  23987086.953    -3007119.502 5  -2206477.195 4
  24505096.906     4164952.612 5   3067356.931 1
  21101399.063     -703950.876 7   -511509.379 8
  21582919.602     1751510.835 6   1330863.089 8
  22108401.977    -3200155.693 6  -2348188.914 7
  24645573.672     1883405.667 3   1394561.493 2
  24124492.852     3504647.314 5   2587558.334 5
 94  2  9  0 20  0.0000000  0  8 27 26 18  2 19  7 16 31
  20270462.852      145297.899 7    115108.881 9
  23972173.156    -3085531.530 5  -2267577.455 4
  24527332.281     4281734.226 5   3158355.558 2
  21098518.023     -719067.025 7   -523288.198 8
  21593215.422     1805602.734 7   1373012.605 8
  22092505.828    -3283684.304 6  -2413276.125 7
  24656560.625     1941131.577 3   1439542.651 1
  24144027.422     3607280.754 5   2667532.447 5
 94  2  9  0 20 30.0000000  0  8 27 26 18  2 19  7 16 31
  20272520.000      156113.515 7    123536.641 9
  23957297.938    -3163664.445 5  -2328460.198 4
  24549554.695     4398533.892 5   3249368.208 2
  21095683.789     -733960.569 7   -534893.564 8
  21603556.711     1859951.190 6   1415362.043 8
  22076674.875    -3366890.154 6  -2478111.825 7
  24667591.320     1999110.635 3   1484721.124 2
  24163598.633     3710163.430 5   2747700.737 4
 94  2  9  0 21  0.0000000  0  8 27 26 18  2 19  7 15 31
  20274654.477      167342.650 7    132286.623 9
  23942485.234    -3241493.987 5  -2389106.548 2
  24571781.445     4515367.329 3   3340407.183 3
  21092899.648     -748611.817 7   -546310.118 8
  21613948.750     1914571.367 6   1457923.203 8
  22060901.469    -3449771.487 6  -2542694.656 7
  24617655.953          -0.03313
  24183228.289     3813310.202 5   2828074.835 4
 94  2  9  0 21 30.0000000  0  8 27 26 18  2 19  7 15 31
  20276870.250      178977.503 7    141352.739 9
  23927733.625    -3319020.370 5  -2449516.663 4
  24594023.625     4632211.322 3   3431454.354 3
  21090158.617     -763022.406 7   -557539.154 8
  21624396.727     1969461.958 6   1500695.085 8
  22045187.539    -3532338.518 6  -2607032.577 7
  24607445.234      -53708.928 3
  24202898.711     3916703.465 5   2908641.003 5
 94  2  9  0 22  0.0000000  0  8 27 26 18  2 19  7 15 31
  20279157.086      191002.253 7    150722.677 9
  23913048.453    -3396238.382 5  -2509686.489 4
  24616258.773     4749062.837 3   3522507.390 2
  21087461.789     -777189.272 7   -568578.275 8
  21634890.664     2024621.738 6   1543676.716 8
  22029535.148    -3614608.742 6  -2671139.220 7
  24597274.711     -107151.056 4
  24222623.719     4020324.226 5   2989384.469 2
 94  2  9  0 22 30.0000000  0  8 27 26 18  2 19  7 15 31
  20281518.945      203410.106 7    160391.133 8
  23898406.742    -3473134.564 5  -2569605.520 5
  24638501.148     4865939.171 3   3613579.750 3
  21084811.531     -791109.815 7   -579425.455 8
  21645443.414     2080063.448 6   1586878.046 8
  22013932.258    -3696580.545 6  -2735013.323 7
  24587154.516     -160323.434 4        -0.05112
  24242383.438     4124161.993 5   3070297.002 3
 94  2  9  0 23  0.0000000  0  8 27 26 18  2 19  7 15 31
  20283950.594      216177.104 7    170339.443 9
  23883839.758    -3549716.787 5  -2629279.926 4
  24660742.289     4982833.743 3   3704666.357 2
  21082207.766     -804792.886 7   -590087.600 9
  21656047.773     2135798.795 6   1630308.179 8
  21998395.227    -3778250.114 6  -2798651.917 7
  24577085.031     -213230.391 4    -41226.165 2
  24262187.148     4228216.269 5   3151378.243 4
 94  2  9  0 23 30.0000000  0  8 27 26 18  2 19  7 15 31
  20286451.164      229310.440 7    180573.205 9
  23869319.719    -3625983.843 5  -2688708.720 5
  24682966.617     5099741.159 2   3795762.978 2
  21079649.320     -818226.097 7   -600555.036 9
  21666713.273     2191845.836 6   1673981.193 7
  21982915.930    -3859581.619 6  -2862027.086 7
  24567069.195     -265861.255 4    -82237.160 3
  24282029.367     4332489.121 5   3232629.808 4
 94  2  9  0 24  0.0000000  0  8 27 26 18  2 19  7 15 31
  20289021.586      242837.447 7    191113.734 9
  23854875.258    -3701923.921 5  -2747882.760 4
  24705245.508     5216672.569 2   3886878.243 1
  21077143.391     -831407.021 7   -610825.898 8
  21677441.773     2248224.076 7   1717912.280 8
  21967505.891    -3940556.100 6  -2925124.057 7
  24557109.156     -318200.437 4   -123020.847 3
  24301911.617     4436996.051 5   3314063.775 5
 94  2  9  0 24 30.0000000  0  8 27 26 18  2 19  7 15 31
  20291672.547      256753.497 7    201957.411 8
  23840480.414    -3777543.070 5  -2806806.723 3
  24727473.203     5333606.173 3   3977995.251 3
  21074677.805     -844365.489 7   -620923.401 9
  21688233.266     2304929.878 6   1762098.617 8
  21952169.211    -4021166.728 6  -2987937.501 7
  24547199.602     -370252.915 5   -163581.158 3
  24321843.336     4541729.381 5   3395674.148 4
 94  2  9  0 25  0.0000000  0  8 27 26 18  2 19  7 15 31
  20294389.906      271049.459 7    213097.125 9
  23826151.578    -3852851.077 5  -2865488.232 3
  24749749.461     5450516.211 3   4069093.905 2
  21072254.203     -857105.320 7   -630850.534 9
  21699084.531     2361944.147 6   1806525.317 7
  21936900.398    -4101412.923 6  -3050466.971 7
  24537354.281     -422021.132 5   -203919.968 4
  24341815.273     4646682.759 5   3477455.976 5
 94  2  9  0 25 30.0000000  0  8 27 26 18  2 19  7 15 31
  20297188.352      285739.271 7    224543.735 9
  23811887.117    -3927824.187 5  -2923908.809 4
  24771985.414     5567411.720 3   4160181.319 1
  21069872.648     -869611.328 7   -640595.475 8
  21709991.883     2419269.965 6   1851194.780 7
  21921700.703    -4181286.825 6  -3112706.334 7
  24527554.195     -473496.891 4   -244030.879 3
  24361832.461     4751861.757 5   3559413.631 4
 94  2  9  0 26  0.0000000  0  8 27 26 18  2 19  7 15 31
  20300058.570      300814.161 7    236290.404 9
  23797686.891    -4002449.013 5  -2982057.992 3
  24794223.828     5684298.280 3   4251261.662 3
  21067534.836     -881890.397 7   -650163.575 9
  21720955.375     2476895.208 6   1896097.563 7
  21906568.359    -4260798.499 6  -3174663.447 8
  24517818.906     -524681.700 4   -283915.067 3
  24381889.555     4857267.397 5   3641547.870 4
 94  2  9  0 26 30.0000000  0  8 27 26 18  2 19  7 15 31
  20302995.055      316264.628 7    248329.728 9
  23783547.914    -4076731.373 5  -3039940.341 4
  24816481.203     5801170.664 3   4342330.992 1
  21065243.672     -893939.994 7   -659552.868 9
  21731976.125     2534796.291 6   1941215.284 8
  21891500.742    -4339956.518 6  -3236344.982 8
  24508129.672     -575580.559 4   -323576.462 3
  24401983.406     4962890.532 4   3723851.619 3
 94  2  9  0 27  0.0000000  0  8 27 26 18  2 19  7 15 31
  20306009.539      332101.712 7    260670.317 9
  23769475.914    -4150685.497 5  -3097566.919 5
  24838699.063     5918025.464 3   4433386.541 1
  21062995.445     -905761.167 7   -668764.152 9
  21743044.430     2592961.478 6   1986538.804 7
  21876503.414    -4418784.648 6  -3297769.468 8
  24498500.773     -626194.388 4   -363015.728 2
  24422130.023     5068718.756 5   3806315.163 4
 94  2  9  0 27 30.0000000  0  8 27 26 18  2 19  7 15 31
  20309097.906      348340.045 7    273323.557 8
  23755465.867    -4224302.482 5  -3154930.787 5
  24860947.453     6034875.075 4   4524438.120 1
  21060787.742     -917356.236 7   -677799.272 8
  21754162.570     2651396.335 6   2032072.449 7
  21861566.617    -4497278.464 6  -3358933.443 8
  24488922.508     -676510.796 4   -402223.238 3
  24442301.352     5174753.763 5   3888939.845 4
 94  2  9  0 28  0.0000000  0  8 27 26 18  2 19  7 15 31
  20312267.852      364975.096 7    286285.938 8
  23741515.289    -4297594.502 5  -3212041.446 5
  24883170.078     6151710.436 4   4615478.571 1
  21058618.570     -928746.642 7   -686674.897 9
  21765333.086     2710084.479 6   2077803.464 7
  21846691.953    -4575447.691 6  -3419844.487 8
  24479403.836     -726526.225 5   -441196.234 2
  24462517.836     5280990.701 4   3971721.861 4
 94  2  9  0 28 30.0000000  0  8 27 26 18  2 19  7 15 31
  20315504.180      381994.970 7    299548.175 8
  23727629.172    -4370575.621 5  -3268909.834 4
  24905418.461     6268525.817 5   4706503.458 1
  21056489.438     -939948.173 7   -695403.345 9
  21776547.492     2769024.906 6   2123731.062 7
  21831878.953    -4653303.410 6  -3480511.254 8
  24469946.320     -776242.165 5   -479935.856 3
  24482772.555     5387413.690 4   4054648.847 3
 94  2  9  0 29  0.0000000  0  8 27 26 18  2 19  7 15 31
  20318814.781      399393.805 7    313105.706 8
  23713804.906    -4443239.971 5  -3325531.396 5
  24927616.680     6385318.920 4   4797511.008 1
  21054391.422     -950964.543 7   -703987.520 9
  21787813.656     2828237.356 6   2169870.625 7
  21817123.711    -4730833.767 6  -3540924.486 8
  24460546.758     -825652.741 5   -518437.520 4
  24503056.406     5494032.489 4   4137728.423 4
 94  2  9  0 29 30.0000000  0  7 27 26  2 19  7 15 31
  20322199.055      417173.185 7    326959.763 8
  23700044.234    -4515558.195 5  -3381883.269 4
  21052332.719     -961773.682 7   -712410.220 9
  21799137.797     2887742.376 6   2216238.166 7
  21802437.734    -4808005.709 6  -3601058.439 8
  24451201.797     -874746.448 5   -556692.303 3
  24523388.711     5600870.426 4   4220978.790 3
 94  2  9  0 30  0.0000000  0  7 27 26  2 19  7 15 31
  20325656.383      435334.019 7    341111.068 8
  23686349.641    -4587519.591 5  -3437957.083 4
  21050320.219     -972353.996 7   -720654.610 9
  21810519.188     2947560.218 6   2262849.464 7
  21787823.555    -4884813.985 6  -3660909.020 8
  24441921.359     -923517.072 5   -594695.291 4
  24543765.680     5707931.251 4   4304402.797 2
 94  2  9  0 30 30.0000000  0  7 27 26  2 19  7 15 31
  20329179.523      453863.922 7    355549.958 8
  23672721.266    -4659131.591 5  -3493758.625 5
  21048351.906     -982694.533 7   -728712.167 9
  21821966.633     3007701.267 6   2309712.597 7
  21773274.750    -4961251.408 6  -3720470.631 8
  24432698.180     -971975.153 5   -632454.780 2
  24564173.984     5815191.179 4   4387981.975 1
 94  2  9  0 31  0.0000000  0  7 27 26  2 19  7 15 31
  20332785.344      472805.863 7    370309.913 8
  23659163.188    -4730354.913 5  -3549257.297 5
  21046439.172     -992765.167 7   -736559.405 9
  21833476.969     3068188.543 6   2356845.530 7
  21758809.547    -5037279.325 6  -3779713.138 8
  24423541.891    -1020093.134 5   -669949.240 2
  24584627.000     5922668.023 4   4471730.153 2
 94  2  9  0 31 30.0000000  0  7 27 26  2 19  7 15 31
  20336464.414      492147.726 7    385381.492 8
  23645680.227    -4801208.568 5  -3604467.904 5
  21044568.469    -1002588.342 7   -744213.824 9
  21845043.367     3128980.764 6   2404216.078 7
  21744414.742    -5112928.095 6  -3838660.210 8
  24414447.586    -1067893.289 5   -707196.047 4
  24605112.578     6030308.521 4   4555605.827 1
 94  2  9  0 32  0.0000000  0  7 27 26  2 19  7 15 31
  20340222.680      511900.324 7    400773.133 8
  23632271.711    -4871696.556 5  -3659393.576 5
  21042744.484    -1012176.840 7   -751685.381 9
  21856667.852     3190069.088 6   2451817.362 7
  21730090.461    -5188194.438 6  -3897309.307 8
  24405408.141    -1115367.158 5   -744188.613 2
  24625622.094     6138101.844 4   4639600.633 2
 94  2  9  0 32 30.0000000  0  7 27 26  2 19  7 15 31
  20344064.617      532074.466 7    416493.243 8
  23618927.242    -4941813.126 5  -3714029.821 5
  21040959.664    -1021552.742 7   -758991.274 9
  21868349.219     3251447.582 6   2499644.746 7
  21715842.508    -5263065.884 6  -3955650.662 8
  24396446.047    -1162508.602 5   -780922.139 4
  24646166.227     6246053.922 4   4723719.197 2
 94  2  9  0 33  0.0000000  0  7 27 26  2 19  7 15 31
  20347982.859      552666.187 7    432538.741 8
  23605655.109    -5011562.576 5  -3768380.014 5
  21039211.367    -1030737.813 7   -766148.476 9
  21880079.227     3313096.087 6   2547682.524 7
  21701661.945    -5337568.785 6  -4013704.859 8
  24387531.563    -1209324.042 5   -817401.645 4
  24666740.500     6354163.336 4   4807960.307 3
 94  2  9  0 33 30.0000000  0  7 27 26  2 19  7 15 31
  20351975.719      573653.377 7    448892.393 8
  23592450.328    -5080966.728 5  -3822461.140 4
  21037500.156    -1039740.723 7   -773163.735 9
  21891862.563     3375011.547 6   2595928.329 7
  21687556.148    -5411717.016 6  -4071482.683 8
  24378685.813    -1255818.937 5   -853631.371 4
  24687341.555     6462438.609 4   4892330.673 4
 94  2  9  0 34  0.0000000  0  7 27 26  2 19  7 15 31
  20356042.656      595028.404 7    465548.263 8
  23579307.797    -5150021.133 5  -3876269.727 5
  21035819.156    -1048560.839 7   -780036.544 9
  21903703.336     3437225.676 6   2644406.851 7
  21673514.633    -5485491.802 6  -4128969.519 8
  24369903.250    -1301980.591 5   -889601.446 3
  24707981.906     6570909.795 4   4976853.693 2
 94  2  9  0 34 30.0000000  0  7 27 26  2 19  7 15 31
  20360180.070      616770.661 7    482490.285 8
  23566236.539    -5218737.638 5  -3929815.024 5
  21034172.383    -1057208.316 7   -786774.852 9
  21915595.414     3499735.188 6   2693115.539 7
  21659542.813    -5558918.327 6  -4186184.977 8
  24361175.781    -1347820.100 5   -925320.502 4
  24728660.336     6679560.654 4   5061516.743 2
 94  2  9  0 35  0.0000000  0  7 27 26  2 19  7 15 31
  20364390.266      638900.417 7    499734.245 8
  23553220.711    -5287105.585 5  -3983088.707 5
  21032566.945    -1065657.175 7   -793358.378 9
  21927549.648     3562553.963 6   2742065.228 7
  21645639.914    -5631980.946 6  -4243116.864 8
  24352519.367    -1393315.364 5   -960771.316 2
  24749371.375     6788405.884 3   5146331.232 2
 94  2  9  0 35 30.0000000  0  6 27 26  2 19  7 15
  20368676.336      661415.875 7    517278.751 8
  23540280.883    -5355120.074 5  -4036086.956 5
  21030996.320    -1073912.405 7   -799791.030 9
  21939561.250     3625670.874 6   2791247.214 7
  21631807.578    -5704670.325 6  -4299757.931 8
  24343925.539    -1438469.395 5   -995956.232 4
 94  2  9  0 36  0.0000000  0  6 27 26  2 19  7 15
  20373039.484      684337.130 7    535139.471 8
  23527411.055    -5422758.062 5  -4088791.847 5
  21029463.508    -1081962.495 7   -806063.837 9
  21951629.242     3689083.968 6   2840659.992 7
  21618052.891    -5776968.613 6  -4356094.243 8
  24335403.617    -1483269.173 5  -1030865.096 4
 94  2  9  0 36 30.0000000  0  6 27 26  2 19  7 15
  20377476.172      707652.527 7    553307.308 8
  23514611.016    -5490024.820 5  -4141207.469 5
  21027967.836    -1089813.945 7   -812181.852 9
  21963743.586     3752756.998 6   2890275.325 7
  21604365.211    -5848895.085 6  -4412140.832 8
  24326945.820    -1527730.644 5  -1065510.350 5
 94  2  9  0 37  0.0000000  0  6 27 26  2 19  7 15
  20381987.992      731378.310 7    571794.929 8
  23501883.406    -5556884.084 5  -4193305.564 5
  21026521.555    -1097434.218 7   -818119.724 9
  21975913.898     3816698.081 6   2940099.527 7
  21590750.852    -5920422.912 6  -4467876.783 8
  24318554.609    -1571836.822 5  -1099878.771 4
 94  2  9  0 37 30.0000000  0  6 27 26  2 19  7 15
  20386578.906      755502.494 7    590592.988 8
  23489240.461    -5623322.311 5  -4245075.589 5
  21025113.703    -1104816.470 7   -823872.137 9
  21988131.828     3880911.195 6   2990135.698 7
  21577216.117    -5991553.116 6  -4523302.895 8
  24310222.070    -1615589.018 5  -1133971.366 5
 94  2  9  0 38  0.0000000  0  6 27 26  2 19  7 15
  20391243.727      780008.156 7    609688.308 8
  23476674.313    -5689365.568 5  -4296537.831 5
  21023754.359    -1111970.525 7   -829446.734 9
  22000405.250     3945399.907 6   3040386.622 7
  21563756.336    -6062300.856 6  -4578430.987 8
  24301966.086    -1658996.531 5  -1167795.363 3
 94  2  9  0 38 30.0000000  0  6 27 26  2 19  7 15
  20395986.180      804920.629 7    629100.621 8
  23464186.305    -5754987.542 5  -4347671.801 5
  21022438.867    -1118869.587 7   -834822.628 9
  22012735.969     4010204.524 6   3090883.699 7
  21550366.734    -6132653.290 7  -4633251.047 8
  24293773.375    -1702027.159 5  -1201325.680 5
 94  2  9  0 39  0.0000000  0  6 27 26  2 19  7 15
  20400801.438      830229.952 7    648822.161 8
  23451767.734    -5820231.997 5  -4398511.621 5
  21021171.055    -1125547.692 7   -840026.336 9
  22025124.859     4075311.664 6   3141616.520 7
  21537046.117    -6202633.648 6  -4687781.178 9
  24285654.609    -1744703.332 5  -1234579.797 3
 94  2  9  0 39 30.0000000  0  6 27 26  2 19  7 15
  20405694.031      855952.883 7    668866.002 8
  23439423.164    -5885113.876 5  -4449068.910 5
  21019942.164    -1132002.186 7   -845055.818 9
  22037573.070     4140734.649 6   3192595.445 7
  21523806.039    -6272231.465 7  -4742013.224 9
  24277602.516    -1787013.336 5  -1267548.588 5
 94  2  9  0 40  0.0000000  0  6 27 26  2 19  7 15
  20410671.297      882096.191 7    689237.408 8
  23427145.133    -5949643.437 5  -4499351.664 5
  21018752.461    -1138246.191 7   -849921.277 9
  22050084.070     4206468.562 6   3243816.662 7
  21510634.828    -6341454.859 6  -4795953.507 9
  24269621.086    -1828958.800 5  -1300233.329 4
 94  2  9  0 40 30.0000000  0  6 27 26  2 19  7 15
  20415729.961      908680.176 7    709952.200 8
  23414936.711    -6013790.678 5  -4549336.500 5
  21017607.484    -1144265.432 7   -854611.587 9
  22062647.844     4272503.518 6   3295272.452 7
  21497536.359    -6410283.343 6  -4849586.074 9
  24261714.398    -1870524.540 5  -1332622.181 5
 94  2  9  0 41  0.0000000  0  6 27 26  2 19  7 15
  20420872.273      935695.397 7    731003.016 8
  23402802.852    -6077559.019 5  -4599026.083 5
  21016501.883    -1150071.832 7   -859136.046 9
  22075267.180     4338803.625 6   3346934.853 7
  21484512.797    -6478710.096 7  -4902905.605 9
  24253871.359    -1911727.051 5  -1364727.992 4
 94  2  9  0 41 30.0000000  0  6 27 26  2 19  7 15
  20426087.992      963123.979 7    752375.931 8
  23390744.977    -6140923.334 5  -4648400.849 5
  21015432.180    -1155684.938 7   -863509.899 9
  22087931.055     4405350.892 6   3398789.850 7
  21471566.938    -6546743.729 7  -4955918.807 9
  24246098.078    -1952570.298 5  -1396553.850 5
 94  2  9  0 42  0.0000000  0  6 27 26  2 19  7 15
  20431388.422      990973.953 7    774077.206 8
  23378766.641    -6203856.699 5  -4697439.813 5
  21014403.414    -1161112.027 7   -867738.790 9
  22100642.180     4472154.034 6   3450844.230 7
  21458696.008    -6614368.405 6  -5008613.339 9
  24238399.867    -1993041.754 5  -1428089.998 4
 94  2  9  0 42 30.0000000  0  6 27 26  2 19  7 15
  20436771.992     1019248.367 7    796109.214 8
  23366879.734    -6266345.170 5  -4746132.086 5
  21013405.695    -1166350.682 7   -871820.857 9
  22113403.422     4539217.958 6   3503101.814 7
  21445907.125    -6681560.595 6  -5060970.873 9
  24230765.383    -2033132.093 5  -1459329.179 4
 94  2  9  0 43  0.0000000  0  6 27 26  2 19  7 15
  20442232.508     1047947.633 7    818472.282 8
  23355074.031    -6328388.645 5  -4794477.615 5
  21012440.531    -1171409.398 7   -875762.701 9
  22126224.008     4606583.989 6   3555594.814 7
  21433210.828    -6748317.282 7  -5112989.048 9
  24223213.172    -2072829.707 5  -1490262.336 5
 94  2  9  0 43 30.0000000  0  6 27 26  2 19  7 15
  20447771.961     1077054.911 7    841153.262 8
  23343348.531    -6390011.242 5  -4842495.206 5
  21011510.500    -1176304.122 7   -879576.771 9
  22139105.914     4674265.358 6   3608333.523 7
  21420585.141    -6814668.464 7  -5164691.249 9
  24215725.625    -2112144.064 5  -1520896.863 5
 94  2  9  0 44  0.0000000  0  6 27 26  2 19  7 15
  20453389.844     1106582.322 7    864161.644 8
  23331699.961    -6451223.798 5  -4890193.267 5
  21010620.484    -1180999.559 7   -883235.540 9
  22152046.742     4742285.905 6   3661336.542 6
  21408038.844    -6880592.324 7  -5216060.474 9
  24208322.344    -2151058.428 5  -1551219.695 4
 94  2  9  0 44 30.0000000  0  6 27 26  2 19  7 15
  20459082.289     1136508.027 7    887480.380 8
  23320125.000    -6512045.819 5  -4937587.032 5
  21009764.484    -1185494.910 7   -886738.405 9
  22165052.430     4810633.933 6   3714594.723 7
  21395572.828    -6946107.266 7  -5267111.063 9
  24200997.102    -2189581.185 5  -1581237.387 4
 94  2  9  0 45  0.0000000  0  6 27 26  2 19  7 15
  20464853.008     1166827.318 7    911105.803 8
  23308623.023    -6572487.664 5  -4984684.532 5
  21008945.242    -1189783.724 7   -890080.334 9
  22178122.703     4879301.704 6   3768102.066 7
  21383179.852    -7011233.417 7  -5317858.698 9
  24193738.383    -2227712.191 5  -1610949.832 3
 94  2  9  0 45 30.0000000  0  6 27 26  2 19  7 15
  20470697.789     1197545.533 7    935042.072 8
  23297194.313    -6632547.606 5  -5031484.462 5
  21008175.242    -1193844.454 7   -893244.540 9
  22191242.992     4948262.173 6   3821837.486 6
  21370863.609    -7075952.140 7  -5368288.848 9
  24186558.844    -2265447.110 5  -1640353.643 5
 94  2  9  0 46  0.0000000  0  6 27 26  2 19  7 15
  20476619.195     1228662.816 7    959289.302 8
  23285841.969    -6692209.026 5  -5077973.871 5
  21007446.227    -1197670.907 7   -896226.185 9
  22204418.320     5017505.694 6   3875793.461 7
  21358629.570    -7140234.977 7  -5418379.345 9
  24179458.008    -2302774.459 5  -1669439.839 4
 94  2  9  0 46 30.0000000  0  6 27 26  2 19  7 15
  20482615.695     1260174.779 7    983844.080 8
  23274563.328    -6751462.507 5  -5124145.396 5
  21006757.242    -1201274.609 7   -899034.256 9
  22217647.016     5087013.832 6   3929955.633 6
  21346474.102    -7204097.125 7  -5468142.042 9
  24172433.234    -2339699.349 5  -1698212.449 4
 94  2  9  0 47  0.0000000  0  6 27 26  2 19  7 15
  20488688.336     1292074.852 7   1008701.275 8
  23263364.422    -6810323.518 5  -5170011.092 5
  21006114.797    -1204674.132 7   -901683.232 9
  22230919.867     5156763.295 6   3984305.859 7
  21334401.344    -7267553.756 7  -5517588.757 9
  24165474.031    -2376240.430 5  -1726685.975 5
 94  2  9  0 47 30.0000000  0  6 27 26  2 19  7 15
  20494835.891     1324382.743 7   1033876.249 8
  23252241.359    -6868762.448 5  -5215547.902 5
  21005505.758    -1207859.105 7   -904165.026 9
  22244239.547     5226768.385 6   4038855.268 6
  21322407.563    -7330573.082 7  -5566694.709 9
  24158598.594    -2412375.927 5  -1754843.480 5
 94  2  9  0 48  0.0000000  0  6 27 26  2 19  7 15
  20501063.586     1357111.534 7   1059379.205 8
  23241204.508    -6926765.491 5  -5260745.065 5
  21004943.773    -1210824.060 7   -906475.373 9
  22257609.008     5297040.875 6   4093613.032 6
  21310495.711    -7393167.005 7  -5615469.163 9
  24151803.711    -2448097.038 5  -1782678.073 5
 94  2  9  0 48 30.0000000  0  6 27 26  2 19  7 15
  20507376.141     1390279.552 7   1085224.410 8
  23230251.477    -6984337.164 5  -5305606.102 5
  21004418.016    -1213579.227 7   -908622.254 9
  22271036.844     5367583.358 6   4148581.188 6
  21298663.688    -7455345.163 7  -5663919.662 9
  24145084.922    -2483402.535 5  -1810188.826 4
 94  2  9  0 49  0.0000000  0  6 27 26  2 19  7 15
  20513773.680     1423895.032 7   1111418.280 8
  23219373.430    -7041476.117 5  -5350129.952 5
  21003930.781    -1216131.649 7   -910611.156 9
  22284517.477     5438409.970 6   4203770.748 6
  21286915.195    -7517085.216 7  -5712028.771 9
  24138448.047    -2518286.815 5  -1837371.347 5
 94  2  9  0 49 30.0000000  0  6 27 26  2 19  7 15
  20520246.461     1457929.222 7   1137938.422 8
  23208587.781    -7098184.210 5  -5394318.063 5
  21003480.984    -1218508.928 7   -912463.571 9
  22298043.930     5509517.836 6   4259179.457 6
  21275248.906    -7578389.855 7  -5759798.609 9
  24131884.117    -2552760.622 5  -1864234.041 4
 94  2  9  0 50  0.0000000  0  6 27 26  2 19  7 15
  20526805.234     1492392.288 7   1164792.757 8
  23197877.000    -7154458.840 5  -5438168.404 5
  21003061.133    -1220713.274 7   -914181.242 9
  22311636.266     5580928.860 6   4314824.392 6
  21263669.453    -7639247.919 6  -5807220.450 9
  24125408.125    -2586814.254 5  -1890769.318 4
 94  2  9  0 50 30.0000000  0  6 27 26  2 19  7 15
  20533440.242     1527261.797 7   1191963.799 8
  23187245.797    -7210317.515 5  -5481694.626 5
  21002670.055    -1222778.248 7   -915790.301 9
  22325279.344     5652624.116 6   4370690.813 6
  21252175.805    -7699655.917 7  -5854291.600 9
  24119002.352    -2620462.139 5  -1916988.398 4
 94  2  9  0 51  0.0000000  0  6 27 26  2 19  7 15
  20540152.953     1562535.287 7   1219449.628 8
  23176700.883    -7265735.157 5  -5524877.207 5
  21002308.609    -1224677.121 7   -917269.941 9
  22338975.898     5724613.000 6   4426786.025 6
  21240770.820    -7759593.240 7  -5900995.984 9
  24112678.078    -2653689.570 5  -1942879.879 5
 94  2  9  0 51 30.0000000  0  6 27 26  2 19  7 15
  20546943.906     1598218.769 7   1247254.931 8
  23166242.867    -7320694.484 6  -5567702.641 5
  21001978.445    -1226399.476 7   -918612.030 9
  22352731.727     5796892.805 6   4483107.939 6
  21229452.984    -7819072.336 7  -5947343.300 9
  24106437.703    -2686488.711 5  -1968437.611 5
 94  2  9  0 52  0.0000000  0  6 27 26  2 19  7 15
  20553815.953     1634326.787 7   1275391.046 8
  23155866.430    -7375213.359 5  -5610184.875 5
  21001689.008    -1227938.493 7   -919811.254 9
  22366535.664     5869438.173 6   4539636.780 6
  21218214.180    -7878119.244 7  -5993353.858 9
  24100278.656    -2718865.935 5  -1993666.582 5
 94  2  9  0 52 30.0000000  0  6 27 26  2 19  7 15
  20560768.984     1670862.349 7   1303860.306 8
  23145577.531    -7429278.029 6  -5652313.175 5
  21001432.469    -1229268.201 7   -920847.385 9
  22380393.953     5942255.180 6   4596377.287 6
  21207060.297    -7936737.649 7  -6039030.510 9
  24094197.156    -2750812.794 5  -2018560.207 5
 94  2  9  0 53  0.0000000  0  6 27 26  2 19  7 15
  20567802.773     1707817.987 7   1332656.906 8
  23135375.844    -7482885.497 5  -5694085.226 5
  21001218.969    -1230377.382 7   -921711.681 9
  22394303.758     6015354.093 6   4653337.464 6
  21195984.430    -7994951.490 7  -6084391.930 9
  24088201.281    -2782333.246 5  -2043121.569 5
 94  2  9  0 53 30.0000000  0  6 27 26  2 19  7 15
  20574911.203     1745197.903 7   1361784.109 8
  23125260.313    -7536047.120 6  -5735509.852 5
  21001050.516    -1231279.431 7   -922414.563 9
  22408270.820     6088737.618 6   4710519.416 6
  21184978.352    -8052774.226 7  -6129448.567 9
  24082286.063    -2813423.990 5  -2067348.074 5
 94  2  9  0 54  0.0000000  0  6 27 26  2 19  7 15
  20582105.500     1783001.716 7   1391241.615 8
  23115227.102    -7588772.536 6  -5776594.586 5
  21000919.813    -1231976.579 7   -922957.797 9
  22422288.758     6162412.718 6   4767928.575 6
  21174052.719    -8110187.769 7  -6174186.369 9
  24076447.852    -2844076.872 5  -2091233.402 4
 94  2  9  0 54 30.0000000  0  6 27 26  2 19  7 15
  20589379.477     1821217.505 7   1421020.154 8
  23105281.008    -7641038.891 6  -5817321.599 5
  21000821.984    -1232467.389 7   -923340.239 9
  22436366.266     6236397.625 6   4825579.134 6
  21163213.859    -8167154.323 7  -6218575.867 9
  24070704.195    -2874283.917 5  -2114771.339 4
 94  2  9  0 55  0.0000000  0  6 27 26  2 19  7 15
  20596729.234     1859825.402 7   1451104.225 8
  23095421.898    -7692854.478 6  -5857697.375 5
  21000762.281    -1232786.482 7
  22450499.289     6310668.203 6   4883452.292 6
  21152458.563    -8223669.019 7  -6262613.265 9
  24065035.016    -2904056.846 5  -2137970.978 5
 94  2  9  0 55 30.0000000  0  6 27 26  2 19  7 15
  20604151.344     1898849.541 7   1481512.643 8
  23085648.516    -7744209.666 5  -5897714.386 5
  21000736.102    -1232933.778 7
  22464687.422     6385228.410 6   4941551.144 6
  21141798.813    -8279691.845 7  -6306267.402 9
  24059459.883    -2933374.051 5  -2160815.509 4
 94  2  9  0 56  0.0000000  0  6 27 26  2 19  7 15
  20611658.031     1938278.472 7   1512236.483 8
  23075965.414    -7795108.901 6  -5937376.107 5
  21000738.500    -1232909.021 7
  22478929.055     6460077.384 6   4999875.003 6
  21131230.031    -8335214.024 7  -6349531.408 9
  24053960.664    -2962244.756 5  -2183312.127 5
 94  2  9  0 56 30.0000000  0  6 27 26  2 19  7 15
  20619238.438     1978119.327 7   1543281.304 8
  23066367.227    -7845548.972 6  -5976680.064 5
  21000775.133    -1232710.451 7
  22493230.391     6535221.035 6   5058428.476 6
  21120759.914    -8390241.799 7  -6392410.165 9
  24048553.461    -2990667.967 5  -2205460.040 5
 94  2  9  0 57  0.0000000  0  6 27 26  2 19  7 15
  20626899.992     2018384.534 7   1574656.791 8
  23056848.164    -7895559.428 6  -6015649.215 6
  21000847.180    -1232341.267 7
  22507582.656     6610643.505 6   5117199.213 6
  21110379.039    -8444806.195 7  -6434927.857 9
  24043228.461    -3018647.210 5  -2227261.996 4
 94  2  9  0 57 30.0000000  0  6 27 26  2 19  7 15
  20634649.203     2059104.298 7   1606386.477 8
  23047416.055    -7945130.271 6  -6054275.833 5
  21000955.977    -1231776.936 7   -922802.205 9
  22521992.750     6686357.172 6   5176196.860 6
  21100080.492    -8498912.147 7  -6477088.314 9
  24037992.438    -3046167.268 5  -2248706.169 5
 94  2  9  0 58  0.0000000  0  6 27 26  2 19  7 15
  20642484.516     2100271.926 7   1638465.163 8
  23038066.336    -7994250.314 6  -6092551.162 5
  21001101.133    -1231009.507 7   -922204.199 9
  22536452.281     6762354.354 6   5235415.427 6
  21089870.070    -8552575.542 7  -6518903.928 9
  24032843.367    -3073232.542 5  -2269795.942 4
 94  2  9  0 58 30.0000000  0  6 27 26  2 19  7 15
  20650399.594     2141885.243 7   1670891.110 8
  23028807.617    -8042917.184 6  -6130473.371 5
  21001285.773    -1230045.987 7   -921453.412 9
  22550965.453     6838608.701 6   5294834.385 6
  21079737.727    -8605822.632 7  -6560395.138 9
  24027775.727    -3099849.343 5  -2290536.278 4
 94  2  9  0 59  0.0000000  0  6 27 26  2 19  7 15
  20658404.898     2183947.393 7   1703666.810 8
  23019638.156    -8091103.524 6  -6168021.153 5
  21001507.648    -1228871.259 7   -920538.029 9
  22565524.180     6915121.409 6   5354454.659 6
  21069685.656    -8658641.470 7  -6601552.653 9
  24022798.914    -3126002.558 5  -2310915.362 5
 94  2  9  0 59 30.0000000  0  6 27 26  2 19  7 15
  20666489.984     2226442.583 7   1736779.947 8
  23010560.953    -8138789.425 6  -6205178.974 5
  21001767.492    -1227500.408 7   -919469.825 9
  22580134.234     6991897.152 6   5414279.894 6
  21059717.453    -8711029.301 7  -6642374.320 9
  24017915.664    -3151692.009 5  -2330933.078 3
 94  2  9  1  0  0.0000000  0  6 27 26  2 19  7 15
  20674654.484     2269353.473 7   1770217.005 8
  23001583.422    -8185988.806 6  -6241957.688 5
  21002064.961    -1225942.491 7   -918255.867 9
  22594794.414     7068933.889 6   5474308.510 6
  21049828.477    -8762993.428 7  -6682865.835 9
  24013103.875    -3176926.550 5  -2350596.321 5
 94  2  9  1  0 30.0000000  0  6 27 26  2 19  7 15
  20682899.336     2312681.646 7   1803979.211 8
  22992690.156    -8232715.649 6  -6278368.191 5
  21002397.453    -1224200.292 7   -916898.299 9
  22609508.992     7146245.272 6   5534551.131 6
  21040020.617    -8814525.505 7  -6723020.673 9
  24008397.148    -3201699.573 5  -2369899.923 5
 94  2  9  1  1  0.0000000  0  6 27 26  2 19  7 15
  20691222.734     2356421.215 7   1838061.992 8
  22983890.664    -8278979.376 6  -6314417.829 5
  21002761.961    -1222287.128 7   -915407.514 9
  22624273.188     7223835.494 6   5595011.032 6
  21030300.117    -8865607.686 7  -6762824.952 9
  24003772.039    -3226010.181 5  -2388843.223 5
 94  2  9  1  1 30.0000000  0  6 27 26  2 19  7 15
  20699628.813     2400570.576 7   1872464.086 8
  22975170.430    -8324790.438 6  -6350114.743 5
  21003159.266    -1220205.754 7   -913785.667 9
  22639088.125     7301703.434 6   5655687.332 6
  21020670.266    -8916227.048 7  -6802268.587 9
  23999230.250    -3249856.146 5  -2407424.448 5
 94  2  9  1  2  0.0000000  0  6 27 26  2 19  7 15
  20708105.297     2445134.875 7   1907189.506 8
  22966538.109    -8370146.117 6  -6385456.802 6
  21003591.023    -1217940.028 7   -912020.156 9
  22653961.164     7379851.664 6   5716582.048 6
  21011126.805    -8966366.871 7  -6841338.565 9
  23994783.148    -3273231.246 5  -2425638.766 4
 94  2  9  1  2 30.0000000  0  6 27 26  2 19  7 15
  20716664.719     2490097.942 7   1942225.662 8
  22957993.508    -8415037.737 6  -6420437.267 5
  21004053.648    -1215499.639 7   -910118.549 9
  22668881.211     7458261.243 6   5777680.411 6
  21001682.008    -9016006.226 7  -6880018.562 9
  23990423.563    -3296134.384 5  -2443485.329 5
 94  2  9  1  3  0.0000000  0  6 27 26  2 19  7 15
  20725297.086     2535466.006 7   1977577.396 8
  22949544.305    -8459436.688 6  -6455033.842 5
  21004551.102    -1212877.021 7   -908074.943 9
  22683850.039     7536936.112 6   5838985.486 6
  20992332.180    -9065133.097 7  -6918299.225 9
  23986158.453    -3318560.950 5  -2460960.535 5
 94  2  9  1  3 30.0000000  0  6 27 26  2 19  7 15
  20734009.180     2581245.844 7   2013249.993 8
  22941193.063    -8503328.585 6  -6489235.316 5
  21005090.305    -1210054.875 7   -905875.858 9
  22698873.352     7615881.304 6   5900501.212 6
  20983080.063    -9113759.666 7  -6956190.038 9
  23981984.578    -3340510.704 5  -2478064.204 5
 94  2  9  1  4  0.0000000  0  7 27 26 13  2 19  7 15
  20742799.047     2627445.020 7   2049249.343 8
  22932938.055    -8546704.595 6  -6523034.785 5
  24784199.492     -115869.217 3
  21005665.383    -1207021.660 7   -903512.304 9
  22713949.375     7695112.440 6   5962239.754 6
  20973922.414    -9161890.028 7  -6993694.198 9
  23977893.828    -3361978.623 5  -2494792.401 5
 94  2  9  1  4 30.0000000  0  7 27 26 13  2 19  7 15
  20751673.406     2674068.388 7   2085579.230 8
  22924778.523    -8589573.868 6  -6556439.412 6
  24762160.547     -231699.535 2
  21006277.211    -1203784.308 7   -900989.685 9
  22729083.789     7774627.038 6   6024199.178 6
  20964854.406    -9209543.447 7  -7030826.718 9
  23973899.492    -3382969.631 5  -2511148.991 3
 94  2  9  1  5  0.0000000  0  7 27 26 13  2 19  7 15
  20760630.945     2721140.543 7   2122258.827 8
  22916714.906    -8631951.030 6  -6589460.553 5
  24740120.313     -347489.395 3
  21006937.109    -1200338.082 7   -898304.306 9
  22744268.266     7854433.541 6   6086386.052 6
  20955868.211    -9256747.181 7  -7067608.834 9
  23969999.258    -3403482.562 5  -2527133.055 4
 94  2  9  1  5 30.0000000  0  7 27 26 13  2 19  7 15
  20769674.117     2768673.763 7   2159297.694 8
  22908747.703    -8673849.039 6  -6622108.338 5
  24718106.719     -463223.358 3        -0.10911
  21007632.188    -1196685.443 7   -895458.086 9
  22759513.727     7934538.073 6   6148805.160 6
  20946975.953    -9303490.655 7  -7104032.303 9
  23966184.609    -3423503.296 5  -2542733.584 2
 94  2  9  1  6  0.0000000  0  7 27 26 13  2 19  7 15
  20778804.438     2816652.747 7   2196683.913 8
  22900858.672    -8715294.844 6  -6654403.742 5
  24696098.773     -578910.740 3    -90145.937 1
  21008359.422    -1192866.171 7   -892482.017 9
  22774812.961     8014917.039 6   6211438.104 6
  20938169.664    -9349774.113 7  -7140097.324 9
  23962469.344    -3443042.559 5  -2557958.947 4
 94  2  9  1  6 30.0000000  0  7 27 26 13  2 19  7 15
  20788020.688     2865083.201 7   2234421.923 8
  22893058.484    -8756291.128 6  -6686348.890 5
  24674086.117     -694548.966 3   -180253.445 1
  21009114.531    -1188901.163 7   -889392.396 9
  22790150.875     8095547.237 6   6274266.837 6
  20929449.273    -9395597.787 7  -7175804.068 9
  23958844.531    -3462098.749 5  -2572807.897 3
 94  2  9  1  7  0.0000000  0  7 27 26 13  2 19  7 15
  20797321.836     2913957.621 7   2272505.878 8
  22885343.055    -8796831.688 6  -6717938.918 5
  24652090.867     -810131.072 4   -270317.275 1
  21009896.805    -1184798.521 7   -886195.524 9
  22805541.531     8176425.038 6   6337288.489 6
  20920818.984    -9440944.490 7  -7211139.143 9
  23955307.523    -3480666.203 5  -2587276.012 5
 94  2  9  1  7 30.0000000  0  7 27 26 13  2 19  7 15
  20806700.570     2963242.836 7   2310909.933 8
  22877713.188    -8836906.072 6  -6749165.695 6
  24630103.297     -925663.563 5   -360342.493 1
  21010699.750    -1180569.217 7   -882899.946 9
  22820977.945     8257536.031 6   6400491.853 6
  20912281.563    -9485806.915 7  -7246096.869 9
  23951869.250    -3498752.582 5  -2601369.264 4
 94  2  9  1  8  0.0000000  0  7 27 26 13  2 19  7 15
  20816159.133     3012945.281 7   2349639.100 8
  22870185.719    -8876482.699 6  -6780004.610 6
  24608129.281    -1041128.689 4   -450315.211 1
  21011534.656    -1176177.988 7   -879478.207 9
  22836457.094     8338886.068 6   6463881.477 5
  20903837.438    -9530180.780 7  -7280673.894 9
  23948524.867    -3516341.828 5  -2615075.151 4
 94  2  9  1  8 30.0000000  0  7 27 26 13  2 19  7 15
  20825693.930     3063063.307 7   2388692.100 8
  22862749.125    -8915549.757 6  -6810446.447 5
  24586165.125    -1156521.992 3   -540231.957 1
  21012404.117    -1171602.145 7   -875912.607 9
  22851984.289     8420483.510 6   6527463.889 5
  20895483.422    -9574066.805 7  -7314870.787 9
  23945266.281    -3533430.406 5  -2628390.878 5
 94  2  9  1  9  0.0000000  0  7 27 26 13  2 19  7 15
  20835310.992     3113587.509 7   2428061.600 8
  22855413.664    -8954098.848 6  -6840484.673 6
  24564221.938    -1271843.249 5
  21013314.625    -1166826.191 7   -872191.071 9
  22867560.250     8502346.540 6   6591253.250 5
  20887225.586    -9617461.984 7  -7348685.197 9
  23942111.461    -3550019.361 5  -2641317.312 5
 94  2  9  1  9 30.0000000  0  7 27 26 13  2 19  7 15
  20845000.367     3164519.732 7   2467749.034 8
  22848181.711    -8992124.595 6  -6870115.105 6
  24542298.234    -1387093.048 5        -0.18111
  21014260.758    -1161850.512 7   -868313.904 9
  22883188.625     8584475.445 6   6655249.793 5
  20879061.273    -9660374.227 7  -7382123.293 9
  23939051.555    -3566110.986 5  -2653856.198 5
 94  2  9  1 10  0.0000000  0  7 27 26 13  2 19  7 15
  20854772.852     3215872.042 7   2507763.817 8
  22841042.398    -9029637.596 6  -6899345.999 6
  24520371.828    -1502274.839 3    -89752.132 1
  21015244.086    -1156679.770 7   -864284.746 9
  22898872.813     8666879.573 6   6719460.796 5
  20870984.352    -9702819.466 7  -7415197.504 9
  23936081.055    -3581709.671 5  -2666010.983 5
 94  2  9  1 10 30.0000000  0  7 27 26 13  2 19  7 15
  20864633.898     3267680.839 7   2548134.299 8
  22834000.172    -9066624.248 6  -6928166.747 6
  24498468.383    -1617367.840 3   -179434.961 1
  21016265.656    -1151316.637 7   -860105.675 9
  22914613.938     8749587.359 6   6783908.416 5
  20863000.563    -9744776.395 7  -7447891.199 9
  23933208.977    -3596796.164 5  -2677766.659 4
 94  2  9  1 11  0.0000000  0  7 27 26 13  2 19  7 15
  20874574.641     3319934.228 7   2588851.221 8
  22827061.422    -9103102.784 6  -6956591.527 6
  24476591.625    -1732379.435 3   -269054.442 1
  21017320.586    -1145780.739 7   -855791.982 9
  22930408.000     8832586.515 6   6848583.075 5
  20855106.523    -9786251.956 7  -7480209.800 9
  23930436.180    -3611379.275 5  -2689130.081 5
 94  2  9  1 11 30.0000000  0  7 27 26 13  2 19  7 15
  20884602.422     3372620.844 7   2629905.724 8
  22820215.063    -9139091.882 6  -6984634.956 6
  24454718.586    -1847316.620 3   -358615.796 1
  21018402.930    -1140084.602 7   -851353.421 9
  22946253.281     8915852.579 6   6913465.696 5
  20847306.398    -9827254.876 7  -7512160.119 9
  23927752.586    -3625467.417 5  -2700107.815 5
 94  2  9  1 12  0.0000000  0  7 27 26 13  2 19  7 15
  20894712.531     3425745.884 7   2671301.850 8
  22813456.359    -9174598.877 6  -7012302.724 6
  24432863.758    -1962170.680 3   -448112.378 1
  21019518.039    -1134226.689 7   -846788.807 9
  22962146.602     8999381.363 5   6978553.058 5
  20839595.336    -9867780.921 7  -7543738.842 9
  23925168.273    -3639053.379 5  -2710694.244 5
 94  2  9  1 12 30.0000000  0  7 27 26 13  2 19  7 15
  20904904.266     3479295.875 7   2713029.115 8
  22806785.430    -9209628.462 6  -7039598.469 6
  24411019.719    -2076936.377 3   -537540.128 1
  21020662.578    -1128214.605 7   -842104.051 9
  22978086.500     9083152.908 5   7043829.572 5
  20831975.266    -9907817.292 7  -7574936.006 9
  23922677.711    -3652133.711 5  -2720886.674 5
 94  2  9  1 13  0.0000000  0  7 27 26 13  2 19  7 15
  20915168.328     3533244.034 7   2755066.638 8
  22800210.477    -9244179.249 6  -7066521.145 6
  24389197.742    -2191616.788 3   -626901.394 1
  21021838.719    -1122031.691 7   -837286.189 9
  22994069.734     9167161.459 5   7109290.775 5
  20824446.922    -9947373.497 7  -7605759.008 9
  23920287.922    -3664712.899 5  -2730688.611 5
 94  2  9  1 13 30.0000000  0  7 27 26 13  2 19  7 15
  20925508.813     3587595.848 7   2797418.702 8
  22793735.703    -9278234.301 6  -7093057.516 6
  24367393.172    -2306206.684 3   -716192.190 2
  21023049.641    -1115673.530 7   -832331.765 9
  23010106.422     9251411.521 5   7174940.149 5
  20817010.758    -9986456.449 7  -7636213.243 9
  23917987.992    -3676787.015 5  -2740096.974 5
 94  2  9  1 14  0.0000000  0  7 27 26 13  2 19  7 15
  20935932.133     3642356.563 7   2840089.388 8
  22787352.227    -9311783.332 6  -7119199.587 5
  24345612.055    -2420696.174 4   -805404.679 2
  21024294.016    -1109138.710 7   -827239.689 9
  23026184.438     9335914.440 5   7240786.567 5
  20809664.258   -10025058.513 7  -7666292.762 9
  23915784.266    -3688347.808 5  -2749105.343 5
 94  2  9  1 14 30.0000000  0  7 27 26 13  2 19  7 15
  20946427.828     3697518.138 7   2883072.429 8
  22781064.930    -9344811.115 6  -7144935.503 6
  24323846.148    -2535086.098 5   -894539.556 2
  21025573.625    -1102412.969 7   -821998.842 9
  23042319.977     9420672.316 6   7306831.663 5
  20802415.086   -10063168.858 7  -7695989.124 9
  23913684.742    -3699397.639 5  -2757715.565 5
 94  2  9  1 15  0.0000000  0  7 27 26 13  2 19  7 15
  20957000.102     3753087.310 7   2926373.083 8
  22774883.680    -9377299.665 6  -7170251.236 6
  24302091.750    -2649368.840 4   -983590.903 1
  21026892.109    -1095480.162 7   -816596.644 9
  23058492.063     9505699.415 5   7373086.532 5
  20795255.352   -10100773.491 7  -7725291.427 9
  23911681.438    -3709930.771 5  -2765923.170 4
 94  2  9  1 15 30.0000000  0  7 27 26 13  2 19  7 15
  20967657.602     3809083.438 7   2970006.425 8
  22768804.602    -9409248.836 6  -7195146.665 6
  24280362.672    -2763539.187 5  -1072554.728 2
  21028245.234    -1088359.286 7   -811047.896 9
  23074726.195     9590990.240 5   7439546.902 5
  20788200.555   -10137852.302 7  -7754183.991 9
  23909772.703    -3719943.711 5  -2773725.424 5
 94  2  9  1 16  0.0000000  0  7 27 26 13  2 19  7 15
  20978393.164     3865495.657 7   3013964.000 8
  22762819.063    -9440687.199 6  -7219644.072 6
  24258661.156    -2877607.517 5  -1161439.018 1
  21029633.750    -1081062.034 7   -805361.722 9
  23090996.297     9676525.317 5   7506197.589 5
  20781243.477   -10174413.799 7  -7782673.457 9
  23907968.219    -3729447.983 5  -2781131.313 4
 94  2  9  1 16 30.0000000  0  7 27 26 13  2 19  7 15
  20989212.156     3922342.068 7   3058259.914 8
  22756940.008    -9471603.601 6  -7243734.760 5
  24236973.633    -2991558.398 5  -1250231.790 1
  21031058.906    -1073566.673 7   -799521.169 9
  23107328.945     9762323.718 5   7573053.473 5
  20774384.867   -10210448.256 7  -7810752.245 9
  23906259.227    -3738430.117 5  -2788130.353 5
 94  2  9  1 17  0.0000000  0  7 27 26 13  2 19  7 15
  21000110.203     3979621.484 7   3102893.216 8
  22751149.227    -9502016.770 6  -7267433.301 6
  24215314.648    -3105394.917 5  -1338935.441 2
  21032520.555    -1065893.930 7   -793542.392 9
  23123707.492     9848376.512 5   7640107.590 5
  20767623.508   -10245978.243 7  -7838437.929 9
  23904646.219    -3746894.885 5  -2794726.250 5
 94  2  9  1 17 30.0000000  0  7 27 26 13  2 19  7 15
  21011092.695     4037334.344 7   3147864.282 8
  22745455.367    -9531933.534 6  -7290745.045 6
  24193678.992    -3219110.694 5  -1427545.042 1
  21034013.211    -1058049.667 7   -787429.970 9
  23140130.250     9934681.755 5   7707358.411 5
  20760959.125   -10281025.394 7  -7865747.386 9
  23903138.445    -3754837.369 5  -2800915.165 5
 94  2  9  1 18  0.0000000  0  7 27 26 13  2 19  7 15
  21022156.227     4095468.880 6   3193163.925 8
  22739860.984    -9561334.469 6  -7313654.854 6
  24172060.984    -3332690.086 5  -1516048.413 1
  21035542.719    -1050023.283 7   -781175.629 9
  23156604.234    10021249.811 5   7774814.031 5
  20754378.453   -10315593.272 7  -7892683.386 9
  23901727.672    -3762243.820 5  -2806686.404 5
 94  2  9  1 18 30.0000000  0  7 27 26 13  2 19  7 15
  21033294.781     4153998.331 7   3238771.281 8
  22734363.383    -9590222.110 6  -7336164.684 6
  24150478.008    -3446151.383 5  -1604459.694 1
  21037096.289    -1041847.756 7   -774805.075 9
  23173118.391    10108058.227 5   7842456.953 5
  20747886.641   -10349703.060 7  -7919262.431 9
  23900415.359    -3769134.316 5  -2812055.572 5
 94  2  9  1 19  0.0000000  0  7 27 26 13  2 19  7 15
  21044508.242     4212934.179 7   3284695.320 8
  22728966.313    -9618580.296 6  -7358261.961 6
  24128903.969    -3559480.467 5  -1692768.006 1
  21038679.195    -1033535.747 7   -768328.172 9
  23189688.047    10195113.753 5   7910292.422 5
  20741482.055   -10383352.147 7  -7945482.483 9
  23899207.172    -3775496.752 5  -2817013.284 5
 94  2  9  1 19 30.0000000  0  7 27 26 13  2 19  7 15
  21055800.461     4272269.209 7   3330930.411 8
  22723671.469    -9646419.850 6  -7379955.109 6
  24107360.281    -3672684.547 4  -1780978.888 1
  21040286.094    -1025096.230 7   -761751.910 9
  23206299.617    10282415.477 5   7978319.721 5
  20735167.070   -10416537.378 7  -7971341.087 9
  23898092.742    -3781340.182 5  -2821566.572 5
 94  2  9  1 20  0.0000000  0  7 27 26 13  2 19  7 15
  21067170.625     4332031.943 6   3377498.765 8
  22718475.320    -9673732.781 6  -7401237.899 6
  24085850.891    -3785753.280 5  -1869084.307 1
  21041918.938    -1016519.540 7   -755068.760 9
  23222962.883    10369975.988 5   8046548.673 5
  20728948.711   -10449231.477 7  -7996816.996 9
  23897078.266    -3786655.534 5  -2825708.374 5
 94  2  9  1 20 30.0000000  0  7 27 26 13  2 19  7 15
  21078629.531     4392239.779 7   3424413.961 8
  22713370.148    -9700544.697 6  -7422130.295 6
  24064354.367    -3898692.184 4  -1957088.589 2
  21043577.602    -1007796.827 7   -748271.824 9
  23239678.672    10457799.212 5   8114982.335 5
  20722816.648   -10481441.496 7  -8021915.696 9
  23896169.602    -3791450.479 5  -2829444.677 5
 94  2  9  1 21  0.0000000  0  7 27 26 13  2 19  7 15
  21090170.844     4452893.980 7   3471676.971 8
  22708363.281    -9726858.722 6  -7442634.719 6
  24042887.922    -4011496.728 5  -2044988.181 1
  21045266.148     -998906.872 7   -741344.576 9
  23256432.234    10545891.696 5   8183625.822 5
  20716781.750   -10513165.554 7  -8046635.724 9
  23895360.914    -3795722.550 5  -2832773.518 4
 94  2  9  1 21 30.0000000  0  7 27 26 13  2 19  7 15
  21101800.586     4514007.688 7   3519298.041 8
  22703453.805    -9752661.826 6  -7462741.029 6
  24021451.883    -4124155.685 5  -2132774.330 1
  21046996.586     -989818.592 7   -734262.783 9
  23273251.039    10634251.045 5   8252477.233 4
  20710840.414   -10544381.258 7  -8070959.632 9
  23894645.180    -3799462.366 5  -2835687.642 5
 94  2  9  1 22  0.0000000  0  7 27 26 13  2 19  7 15
  21113513.375     4575557.136 6   3567258.649 8
  22698640.227    -9777951.777 6  -7482447.479 6
  24000032.578    -4236683.621 5  -2220458.387 2
  21048761.875     -980544.651 7   -727036.319 9
  23290109.875    10722843.682 5   8321510.444 5
  20704995.852   -10575104.706 7  -8094899.972 9
  23894033.438    -3802686.582 5  -2838199.976 5
 94  2  9  1 22 30.0000000  0  7 27 26 13  2 19  7 15
  21125308.617     4637542.914 7   3615559.253 8
  22693932.133    -9802687.899 6  -7501722.367 6
  23978660.047    -4349056.060 5  -2308021.290 2
  21050567.633     -971059.400 7   -719645.200 9
  23307016.438    10811687.168 5   8390739.129 5
  20699245.953   -10605316.850 7  -8118441.878 9
  23893522.398    -3805372.269 5  -2840292.704 5
 94  2  9  1 23  0.0000000  0  7 27 26 13  2 19  7 15
  21137180.719     4699938.288 6   3664179.028 8
  22689334.391    -9826866.115 6  -7520562.527 6
  23957298.508    -4461277.123 5  -2395466.234 2
  21052409.336     -961386.487 7   -712107.858 9
  23323965.992    10900756.476 5   8460143.766 5
  20693594.469   -10635014.479 7  -8141582.874 9
  23893106.023    -3807525.768 5  -2841970.711 5
 94  2  9  1 23 30.0000000  0  7 27 26 13  2 19  7 15
  21149131.125     4762736.214 7   3713112.472 8
  22684832.344    -9850503.906 6  -7538981.577 6
  23935963.078    -4573348.478 5  -2482794.556 1
  21054278.461     -951547.782 7   -704441.330 9
  23340959.945    10990035.222 5   8529711.608 5
  20688042.820   -10664196.259 7  -8164321.911 9
  23892797.969    -3809150.643 5  -2843236.809 5
 94  2  9  1 24  0.0000000  0  7 27 26 13  2 19  7 15
  21161155.922     4825935.533 6   3762358.690 8
  22680439.086    -9873604.947 6  -7556982.385 5
  23914678.922    -4685250.674 5  -2569991.009 3
  21056184.258     -941536.049 7   -696639.959 9
  23357992.383    11079546.473 5   8599460.634 5
  20682587.391   -10692858.394 7  -8186656.019 9
  23892592.008    -3810229.230 5  -2844077.238 5
 94  2  9  1 24 30.0000000  0  7 27 26 13  2 19  7 15
  21173257.961     4889519.217 7   3811904.419 8
  22676140.891    -9896209.289 6  -7574596.152 6
  23893415.883    -4796995.453 5  -2657064.787 2
  21058119.211     -931374.483 7   -688721.853 9
  23375067.398    11169288.102 5   8669389.145 5
  20677226.141   -10721030.826 7  -8208608.536 9
  23892486.094    -3810775.580 5
 94  2  9  1 25  0.0000000  0  7 27 26 13  2 19  7 15
  21185431.203     4953497.395 6   3861757.542 8
  22671924.766    -9918333.491 6  -7591835.780 6
  23872181.438    -4908575.347 5  -2744010.068 1
  21060081.945     -921064.813 7   -680688.330 9
  23392186.227    11259265.614 5   8739501.481 5
  20671960.594   -10748696.662 7  -8230166.315 9
  23892491.438    -3810784.026 5
 94  2  9  1 25 30.0000000  0  7 27 26 13  2 19  7 15
  21197681.984     5017871.650 6   3911919.299 8
  22667810.680    -9939986.850 6  -7608708.522 6
  23850974.313    -5019992.564 5  -2830828.646 1
  21062073.266     -910603.506 7   -672536.646 9
  23409354.992    11349479.824 5   8809798.256 5
  20666790.969   -10775863.167 7  -8251334.996 9
  23892587.125    -3810259.203 5
 94  2  9  1 26  0.0000000  0  7 27 26 13  2 19  7 15
  21210008.406     5082650.396 6   3962396.242 8
  22663778.492    -9961135.987 6  -7625188.353 6
  23829810.906    -5131236.635 5  -2917512.275 2
  21064095.727     -899979.387 7   -664258.107 9
  23426571.602    11439954.770 5   8880298.198 5
  20661719.688   -10802524.232 7  -8272109.837 9
  23892789.992    -3809192.757 5  -2843269.440 5
 94  2  9  1 26 30.0000000  0  7 27 26 13  2 19  7 15
  21222412.320     5147830.617 6   4013186.023 8
  22659856.898    -9981769.383 6  -7641266.309 6
  23808673.641    -5242310.447 5  -3004063.183 1
  21066144.875     -889194.586 7   -655854.355 9
  23443835.102    11530671.842 5   8950986.831 5
  20656740.859   -10828668.696 7  -8292482.126 9
  23893095.984    -3807589.887 5  -2842020.429 5
 94  2  9  1 27  0.0000000  0  7 27 26 13  2 19  7 15
  21234892.063     5213409.376 6   4064286.344 8
  22656031.797   -10001865.420 6  -7656925.551 6
  23787563.195    -5353206.250 5  -3090475.422 2
  21068229.352     -878239.805 7   -647318.155 9
  23461138.414    11621610.616 5   9021848.186 5
  20651872.078   -10854282.342 7  -8312440.782 9
  23893499.086    -3805444.748 5  -2840348.842 5
 94  2  9  1 27 30.0000000  0  7 27 26 13  2 19  7 15
  21247448.219     5279388.588 7   4115698.712 8
  22652315.070   -10021400.297 6  -7672147.521 6
  23766495.328    -5463919.953 5  -3176745.759 1
  21070347.570     -867109.954 7   -638645.535 9
  23478488.938    11712764.430 5   9092877.118 4
  20647089.508   -10879386.971 7  -8332002.809 9
  23894016.563    -3802755.497 5  -2838253.289 5
 94  2  9  1 28  0.0000000  0  7 27 26 13  2 19  7 15
  21260078.234     5345766.453 6   4167421.718 8
  22648707.539   -10040364.727 6  -7686924.990 6
  23745464.344    -5574451.748 5  -3262874.283 2
  21072497.539     -855808.680 7   -629839.338 9
  23495872.742    11804130.689 5   9164071.613 5
  20642408.711   -10904001.825 7  -8351183.197 9
  23894634.445    -3799524.258 5  -2835735.409 5
 94  2  9  1 28 30.0000000  0  7 27 26 13  2 19  7 15
  21272790.539     5412558.668 7   4219467.599 8
  22645203.992   -10058761.500 6  -7701260.127 6
  23724464.594    -5684787.672 5  -3348850.227 2
  21074681.250     -844320.624 7   -620887.603 9
  23513300.305    11895703.684 5   9235427.171 5
  20637816.547   -10928123.155 7  -8369979.004 9
  23895352.898    -3795739.491 5  -2832786.220 5
 94  2  9  1 29  0.0000000  0  7 27 26 13  2 19  7 15
  21285578.828     5479758.126 7   4271830.807 8
  22641807.406   -10076608.151 6  -7715166.590 6
  23703506.984    -5794949.616 5  -3434690.638 2
  21076901.391     -832672.936 7   -611811.471 9
  23530761.555    11987486.370 5   9306946.139 4
  20633316.281   -10951786.128 7  -8388417.667 9
  23896179.484    -3791425.433 5  -2829424.581 5
 94  2  9  1 29 30.0000000  0  7 27 26 13  2 19  7 15
  21298446.328     5547397.166 6   4324536.548 8
  22638520.188   -10093898.989 6  -7728639.960 6
  23682581.422    -5904917.632 5  -3520379.874 1
  21079153.859     -820844.212 7   -602594.266 9
  23548280.055    12079525.286 5   9378664.771 5
  20628900.875   -10974978.560 7  -8406489.670 9
  23897094.875    -3786564.249 5  -2825636.618 5
 94  2  9  1 30  0.0000000  0  7 27 26 13  2 19  7 15
  21311401.367     5615468.212 6   4377578.912 8
  22635330.797   -10110655.921 6  -7741697.294 6
  23661695.063    -6014689.603 5  -3605916.392 1
  21081436.766     -808843.327 7   -593242.922 9
  23565843.078    12171826.276 5   9450587.606 3
  20624579.563   -10997684.855 7  -8424182.867 9
  23898126.063    -3781156.058 5  -2821422.407 5
 94  2  9  1 30 30.0000000  0  7 27 26 13  2 19  7 15
  21324434.898     5683956.324 6   4430946.273 8
  22632240.594   -10126892.706 6  -7754349.320 6
  23640833.742    -6124269.512 5  -3691303.217 2
  21083751.844     -796688.001 7   -583771.218 9
  23583455.883    12264375.560 5   9522703.926 3
  20620352.680   -11019890.148 7  -8441485.672 9
  23899258.047    -3775207.008 5  -2816786.766 4
 94  2  9  1 31  0.0000000  0  7 27 26 13  2 19  7 15
  21337545.305     5752857.135 6   4484635.210 7
  22629249.445   -10142617.471 6  -7766602.365 6
  23620029.453    -6233653.251 5  -3776537.185 2
  21086093.836     -784380.626 7   -574181.043 9
  23601113.430    12357167.326 5   9595009.195 4
  20616222.508   -11041589.583 7  -8458394.302 9
  23900495.469    -3768715.635 5  -2811728.512 5
 94  2  9  1 31 30.0000000  0  7 27 26 13  2 19  7 15
  21350734.102     5822161.279 6   4538638.433 8
  22626350.703   -10157831.574 6  -7778457.495 6
  23599249.195    -6342829.971 5  -3861609.887 1
  21088462.930     -771920.667 7   -564471.977 9
  23618810.977    12450179.660 5   9667486.347 2
  20612194.039   -11062771.490 7  -8474899.661 9
  23901837.891    -3761673.595 5  -2806241.193 5
 94  2  9  1 32  0.0000000  0  7 27 26 13  2 19  7 15
  21363999.500     5891858.264 6   4592947.766 8
  22623556.508   -10172535.061 6  -7789914.747 6
  23578508.227    -6451805.837 5  -3946526.058 2
  21090856.508     -759327.817 7   -554659.352 9
  23636548.375    12543382.328 5   9740111.804 3
  20608263.250   -11083437.026 7  -8491002.662 9
  23903272.000    -3754089.512 5  -2800331.478 5
 94  2  9  1 32 30.0000000  0  7 27 26 13  2 19  7 15
  21377335.961     5961964.022 6   4647575.616 8
  22620853.680   -10186710.498 6  -7800960.534 6
  23557819.930    -6560570.862 5  -4031277.917 1
  21093285.437     -746577.808 7   -544724.273 9
  23654320.117    12636779.069 5   9812888.487 3
  20604427.891   -11103585.990 7  -8506703.136 9
  23904826.617    -3745955.382 5  -2793993.184 5
 94  2  9  1 33  0.0000000  0  7 27 26 13  2 19  7 15
  21390757.211     6032484.746 6   4702526.818 7
  22618258.305   -10200357.704 6  -7811594.705 6
  23537156.680    -6669117.556 5  -4115859.691 1
  21095744.891     -733653.075 7   -534653.042 9
  23672134.875    12730392.718 5   9885834.182 5
  20600688.859   -11123226.029 7  -8522007.042 9
  23906480.883    -3737266.414 5  -2787222.494 5
 94  2  9  1 33 30.0000000  0  7 27 26 13  2 19  7 15
  21404251.789     6103403.169 6   4757787.921 7
  22615764.266   -10213476.978 6  -7821817.491 6
  23516541.109    -6777449.735 5  -4200274.334 2
  21098238.328     -720558.906 7   -524449.781 9
  23689987.633    12824235.987 5   9958958.802 4
  20597047.125   -11142367.720 7  -8536922.623 9
  23908231.555    -3728028.694 5  -2780024.255 5
 94  2  9  1 34  0.0000000  0  7 27 26 13  2 19  7 15
  21417823.680     6174704.805 6   4813347.636 7
  22613368.188   -10226071.434 6  -7831631.345 6
  23495964.195    -6885570.522 5  -4284524.220 3
  21100762.727     -707291.555 7   -514111.565 9
  23707895.867    12918306.254 5  10032260.317 4
  20593495.422   -11161026.440 7  -8551461.870 9
  23910099.719    -3718247.718 5  -2772402.686 5
 94  2  9  1 34 30.0000000  0  7 27 26 13  2 19  7 15
  21431459.188     6246376.616 6   4869195.794 7
  22611069.133   -10238136.094 6  -7841032.361 6
  23475437.961    -6993470.818 5  -4368602.336 2
  21103321.031     -693843.484 7   -503632.529 9
  23725841.391    13012613.392 5  10105746.390 4
  20590038.398   -11179202.671 7  -8565625.151 9
  23912065.148    -3707917.130 5  -2764352.852 5
 94  2  9  1 35  0.0000000  0  7 27 26 13  2 19  7 15
  21445167.086     6318418.714 6   4925332.491 7
  22608876.297   -10249663.808 6  -7850014.984 6
  23454946.234    -7101142.552 5  -4452502.314 3
  21105910.227     -680233.153 7   -493027.066 9
  23743827.047    13107153.201 5  10179413.759 4
  20586673.711   -11196896.088 7  -8579412.214 9
  23914134.820    -3697031.252 5  -2755870.325 5
 94  2  9  1 35 30.0000000  0  7 27 26 13  2 19  7 15
  21458951.242     6390832.671 6   4981758.942 7
  22606786.508   -10260643.240 6  -7858570.366 6
  23434499.961    -7208588.624 5  -4536226.477 2
  21108526.320     -666480.360 7   -482310.587 9
  23761856.289    13201888.901 5  10253233.762 5
  20583395.508   -11214106.093 7  -8592822.583 9
  23916316.383    -3685595.640 5  -2746959.437 4
 94  2  9  1 36  0.0000000  0  7 27 26 13  2 19  7 15
  21472804.250     6463653.142 6   5038502.158 7
  22604801.266   -10271058.531 6  -7866686.167 6
  23414098.820    -7315800.851 5  -4619768.431 2
  21111169.227     -652585.546 7   -471483.451 9
  23779921.703    13296821.814 5  10327207.458 4
  20580216.289   -11230822.816 7  -8605848.585 9
  23918591.555    -3673604.593 5  -2737615.722 5
 94  2  9  1 36 30.0000000  0  7 27 26 13  2 19  7 15
  21486743.344     6536893.520 6   5095572.567 7
  22602924.023   -10280922.274 6  -7874372.192 6
  23393741.336    -7422784.138 5  -4703131.971 2
  21113838.734     -638556.756 7   -460551.921 9
  23798024.633    13391953.339 5  10401335.898 3
  20577127.984   -11247046.088 7  -8618490.081 9
  23920977.516    -3661065.501 5  -2727844.977 5
 94  2  9  1 37  0.0000000  0  7 27 26 13  2 19  7 15
  21500766.633     6610578.984 6   5152989.815 7
  22601157.430   -10290220.205 6  -7881617.309 6
  23373427.242    -7529526.816 5  -4786308.065 3
  21116536.680     -624381.266 7   -449506.072 9
  23816165.305    13487295.615 5  10475628.584 4
  20574139.078   -11262762.737 7  -8630736.808 9
  23923475.297    -3647969.563 5  -2717640.319 4
 94  2  9  1 37 30.0000000  0  7 27 26 13  2 19  7 15
  21514871.734     6684701.296 6   5210747.450 7
  22599495.539   -10298959.164 6  -7888426.876 6
  23353161.773    -7636030.066 5  -4869297.578 1
  21119269.688     -610038.789 7   -438330.101 9
  23834352.406    13582853.958 5  10550089.603 4
  20571243.836   -11277956.313 7  -8642575.939 9
  23926066.500    -3634320.257 5  -2707004.470 5
 94  2  9  1 38  0.0000000  0  7 27 26 13  2 19  7 15
  21529061.055     6759270.628 6   5268853.413 7
  22597944.594   -10307127.976 6  -7894792.173 6
  23332942.016    -7742265.068 5  -4952078.032 4
  21122036.234     -595493.828 7
  23852582.406    13678666.658 5  10624748.846 3
  20568458.367   -11292600.912 7  -8653987.303 9
  23928779.289    -3620091.682 5
 94  2  9  1 38 30.0000000  0  7 27 26 13  2 19  7 15
  21543323.203     6834214.608 6   5327251.318 7
  22596485.758   -10314773.177 6  -7900749.450 6
  23312777.219    -7848270.948 5  -5034679.984 3
  21124835.727     -580783.953 7   -415534.105 9
  23870851.969    13774673.043 5  10699559.003 4
  20565771.867   -11306730.879 7  -8664997.650 9
  23931587.422    -3605325.285 5  -2684410.940 5
 94  2  9  1 39  0.0000000  0  7 27 26 13  2 19  7 15
  21557654.609     6909538.106 6   5385944.949 7
  22595133.063   -10321869.877 6  -7906279.340 6
  23292645.039    -7954027.612 5  -5117087.754 3
  21127669.367     -565896.849 7   -403933.753 9
  23889158.828    13870892.547 5  10774535.214 3
  20563183.484   -11320317.818 7  -8675584.853 9
  23934497.039    -3590003.625 5  -2672471.950 5
 94  2  9  1 39 30.0000000  0  7 27 26 13  2 19  7 15
  21572055.211     6985221.001 6   5444918.616 7
  22593882.742   -10328449.526 6  -7911406.330 6
  23272567.023    -8059546.396 5  -5199310.132 4
  21130529.852     -550846.206 7   -392205.967 9
  23907510.680    13967304.844 5  10849661.702 3
  20560698.664   -11333382.887 7  -8685765.413 9
  23937515.133    -3574141.176 5  -2660111.579 5
 94  2  9  1 40  0.0000000  0  7 27 26 13  2 19  7 15
  21586532.875     7061290.738 6   5504193.737 7
  22592732.984   -10334500.060 6  -7916121.030 6
  23252534.586    -8164809.111 5  -5281332.998 4
  21133427.992     -535626.683 7   -380346.601 9
  23925898.914    14063928.260 5  10924952.647 2
  20558308.102   -11345942.002 7  -8695551.722 9
  23940644.609    -3557722.460 5  -2647317.750 5
 94  2  9  1 40 30.0000000  0  7 27 26 13  2 19  7 15
  21601081.930     7137749.957 6   5563772.344 7
  22591679.695   -10340034.224 6  -7920433.358 6
  23232548.742    -8269823.718 5  -5363162.514 3
  21136356.156     -520250.198 7   -368364.913 9
  23944323.922    14160752.470 5  11000400.088 1
  20556010.438   -11358014.605 7  -8704958.930 8
  23943872.703    -3540757.981 5  -2634098.637 4
 94  2  9  1 41  0.0000000  0  7 27 26 13  2 19  7 15
  21615710.781     7214616.986 6   5623668.728 7
  22590723.023   -10345047.878 6  -7924340.085 6
  23212619.430    -8374576.708 5  -5444788.171 3
  21139313.891     -504708.106 7   -356254.181 9
  23962788.438    14257797.669 5  11076019.713 3
  20553804.383   -11369608.098 7  -8713992.804 9
  23947207.930    -3523236.661 5  -2620445.648 5
 94  2  9  1 41 30.0000000  0  7 27 26 13  2 19  7 15
  21630415.867     7291885.717 6   5683878.121 7
  22589868.281   -10349548.718 6  -7927847.226 6
  23192736.328    -8479064.126 5  -5526206.903 4
  21142302.992     -488996.360 7   -344011.246 9
  23981297.063    14355045.239 5  11151797.032 2
  20551685.516   -11380742.711 7  -8722669.113 9
  23950648.703    -3505157.863 5  -2606358.254 5
 94  2  9  1 42  0.0000000  0  7 27 26 13  2 19  7 15
  21645192.914     7369547.410 6   5744393.733 7
  22589115.070   -10353511.559 6  -7930935.154 6
  23172906.461    -8583279.589 5  -5607413.716 2
  21145321.641     -473120.325 7   -331640.303 9
  23999837.398    14452494.510 5  11227731.535 2
  20549654.695   -11391413.334 7  -8730983.862 8
  23954194.891    -3486517.738 5  -2591833.446 4
 94  2  9  1 42 30.0000000  0  7 27 26 13  2 19  7 15
  21660040.203     7447576.899 6   5805195.927 7
  22588459.742   -10356938.068 6  -7933605.152 6
  23153122.945    -8687221.578 5  -5688407.434 4
  21148370.875     -457087.267 7   -319147.006 9
  24018425.141    14550139.720 5  11303818.716 2
  20547719.398   -11401594.459 7  -8738917.192 8
  23957845.961    -3467317.689 5  -2576872.355 5
 94  2  9  1 43  0.0000000  0  7 27 26 13  2 19  7 15
  21674955.203     7525965.431 6   5866277.905 7
  22587910.867   -10359825.847 6  -7935855.355 6
  23133400.227    -8790887.885 6  -5769186.314 4
  21151456.000     -440901.011 7   -306534.326 9
  24037041.969    14647976.415 5  11380055.074 1
  20545875.469   -11411273.638 7  -8746459.390 8
  23961610.109    -3447558.165 5  -2561475.290 5
 94  2  9  1 43 30.0000000  0  7 27 26 13  2 19  7 15
  21689939.945     7604704.316 6   5927632.870 7
  22587464.906   -10362182.789 6  -7937691.935 6
  23113723.242    -8894296.332 6  -5849764.302 4
  21154561.352     -424577.810 7   -293814.943 9
  24055686.422    14745988.167 4  11456427.887 2
  20544126.617   -11420453.835 7  -8753612.781 8
  23965470.938    -3427259.959 5  -2545658.484 5
 94  2  9  1 44  0.0000000  0  7 27 26 13  2 19  7 15
  21705001.625     7683844.873 6   5989300.839 7
  22587125.820   -10363967.413 6  -7939082.548 6
  23094095.672    -8997411.947 6  -5930114.090 3
  21157701.711     -408086.303 7   -280964.406 9
  24074383.625    14844224.924 3  11532975.975 2
  20542485.922   -11429080.708 7  -8760334.999 8
  23969442.523    -3406391.124 5  -2529397.036 5
 94  2  9  1 44 30.0000000  0  7 27 26 13  2 19  7 15
  21720137.781     7763378.425 6   6051275.041 7
  22586887.617   -10365224.261 6  -7940061.907 6
  23074529.297    -9100258.782 6  -6010254.438 4
  21160864.602     -391448.903 7   -268000.191 9
  24093115.859    14942662.338 4  11609680.473 2
  20540946.594   -11437174.039 7  -8766641.476 8
  23973517.828    -3384978.402 5  -2512711.777 5
 94  2  9  1 45  0.0000000  0  7 27 26 13  2 19  7 15
  21735353.242     7843337.454 6   6113580.775 7
  22586744.477   -10365941.772 6  -7940620.991 6
  23055016.078    -9202827.901 6  -6090178.393 4
  21164061.875     -374651.533 7   -254911.321 9
  24111885.539    15041299.156 4  11686540.298 3
  20539504.063   -11444744.892 7  -8772540.829 8
  23977696.539    -3363015.678 5  -2495597.938 4
 94  2  9  1 45 30.0000000  0  7 27 26 13  2 19  7 15
  21750649.984     7923730.442 6   6176224.661 7
  22586716.297   -10366119.001 6
  23035548.500    -9305105.912 6  -6169875.512 4
  21167289.727     -357681.328 7   -241687.783 9
  24130692.344    15140143.028 4  11763561.504 3
  20538163.328   -11451800.669 7  -8778038.822 8
  23981980.750    -3340492.679 5  -2478047.525 5
 94  2  9  1 46  0.0000000  0  7 27 26 13  2 19  7 15
  21766021.688     8004526.671 6   6239182.761 7
  22586773.672   -10365791.109 6
  23016135.070    -9407102.467 6  -6249353.296 4
  21170549.930     -340557.971 7   -228344.898 9
  24149540.414    15239167.067 4  11840723.062 4
  20536913.984   -11458378.002 7  -8783164.000 8
  23986368.445    -3317422.015 5  -2460070.362 4
 94  2  9  1 46 30.0000000  0  7 27 26 13  2 19  7 15
  21781473.508     8085709.006 6   6302441.719 7
  22586934.000   -10364966.011 6  -7939860.644 6
  22996779.148    -9508813.480 6  -6328608.600 3
  21173837.273     -323279.942 7   -214881.484 9
  24168410.570    15338356.597 4  11918013.591 3
  20535747.672   -11464496.542 7  -8787931.678 8
  23990863.828    -3293802.430 5  -2441665.458 5
 94  2  9  1 47  0.0000000  0  7 27 26 13  2 19  7 15
  21796991.461     8167250.885 6   6365980.845 7
  22587187.086   -10363630.173 6  -7938819.723 6
  22977483.852    -9610238.681 6  -6407641.193 4
  21177156.680     -305847.311 7   -201297.596 9
  24187316.703    15437701.359 4  11995425.067 3
  20534669.211   -11470169.354 7  -8792352.034 8
  23995468.242    -3269636.592 5  -2422834.924 5
 94  2  9  1 47 30.0000000  0  7 27 26 13  2 19  7 15
  21812571.563     8249131.939 6   6429784.266 7
  22587546.375   -10361766.311 6  -7937367.359 6
  22958232.750    -9711365.114 5  -6486440.964 4
  21180501.578     -288252.199 7   -187587.113 9
  24206256.375    15537218.089 4  12072970.565 3
  20533674.508   -11475384.037 7  -8796415.408 8
  24000169.234    -3244914.849 5  -2403571.209 5
 94  2  9  1 48  0.0000000  0  7 27 26 13  2 19  7 15
  21828214.367     8331346.174 6   6493847.307 7
  22588006.969   -10359354.692 6  -7935488.163 6
  22939048.937    -9812193.991 6  -6565008.883 3
  21183878.039     -270497.038 7   -173751.918 9
  24225228.789    15636908.112 4  12150651.090 2
  20532773.625   -11480124.905 7  -8800109.581 8
  24004982.594    -3219641.352 5  -2383877.545 5
 94  2  9  1 48 30.0000000  0  7 27 26 13  2 19  7 15
  21843924.000     8413893.460 6   6558169.862 7
  22588568.672   -10356365.351 6  -7933158.804 6
  22919923.625    -9912717.224 6  -6643338.657 5
  21187295.898     -252575.882 7   -159787.369 9
  24244227.203    15736783.132 4  12228475.782 2
  20531962.813   -11484375.094 7  -8803421.402 8
  24009894.102    -3193811.193 5  -2363750.145 5
 94  2  9  1 49  0.0000000  0  7 27 26 13  2 19  7 15
  21859695.836     8496779.973 6   6622756.745 7
  22589252.977   -10352791.833 6  -7930374.228 6
  22900849.758   -10012930.398 6  -6721426.800 5
  21190732.406     -234482.173 7   -145688.366 9
  24263276.867    15836851.341 5  12306451.010 3
  20531251.883   -11488131.468 7  -8806348.429 8
  24014920.133    -3167422.694 5  -2343187.653 5
 94  2  9  1 49 30.0000000  0  7 27 26 13  2 19  7 15
  21875534.898     8580027.393 6   6687624.873 7
  22590039.891   -10348656.026 6  -7927151.519 6
  22881844.195   -10112830.623 6  -6799271.089 4
  21194212.008     -216218.232 7   -131456.702 9
  24282351.945    15937115.764 4  12384579.122 2
  20530630.469   -11491384.963 7  -8808883.603 8
  24020043.539    -3140476.135 5  -2322190.316 5
 94  2  9  1 50  0.0000000  0  7 27 26 13  2 19  7 15
  21891452.000     8663644.522 6   6752781.072 7
  22590933.750   -10343981.192 6  -7923508.777 6
  22862885.891   -10212424.074 6  -6876876.346 5
  21197714.023     -197795.782 7   -117101.541 9
  24301463.227    16037553.675 4  12462842.427 2
  20530102.711   -11494143.947 7  -8811033.439 8
  24025273.289    -3112980.905 5  -2300765.448 5
 94  2  9  1 50 30.0000000  0  7 27 26 13  2 19  7 15
  21907436.328     8747644.322 6   6818235.457 7
  22591921.813   -10338778.418 6  -7919454.660 6
  22844000.172   -10311699.554 6  -6954233.835 5
  21201251.039     -179212.429 7   -102620.999 9
  24320607.531    16138165.630 3  12541241.342 2
  20529675.141   -11496411.936 7  -8812800.687 8
  24030612.023    -3084928.665 5  -2278906.552 4
 94  2  9  1 51  0.0000000  0  7 27 26 13  2 19  7 15
  21923491.313     8832042.853 6   6884000.543 7
  22593004.477   -10333060.454 6  -7914999.097 6
  22825169.992   -10410647.840 6  -7031336.357 5
  21204818.313     -160459.025 7    -88007.951 9
  24339795.938    16238965.865 4  12619786.963 1
  20529337.672   -11498175.032 7  -8814174.518 8
  24036064.281    -3056313.879 5  -2256609.296 5
 94  2  9  1 51 30.0000000  0  7 27 26 13  2 19  7 15
  21939626.836     8916825.909 6   6950065.257 7
  22594184.844   -10326841.519 6  -7910153.175 6
  22806400.609   -10509279.595 6  -7108192.240 5
  21208419.312     -141554.174 7    -73276.880 9
  24359006.688    16339941.718 4  12698469.432 1
  20529101.555   -11499435.531 7  -8815156.713 8
  24041608.992    -3027149.628 5  -2233883.914 5
 94  2  9  1 52  0.0000000  0  7 27 26 13  2 19  7 15
  21955837.969     9001982.787 6   7016421.256 6
  22595467.930   -10320112.924 6  -7904910.101 6
  22787688.398   -10607589.060 6  -7184796.970 5
  21212043.547     -122498.116 7    -58427.997 9
  24378255.258    16441095.609 3  12777290.665 1
  20528956.625   -11500203.134 7  -8815754.831 8
  24047258.633    -2997433.965 5  -2210728.821 5
 94  2  9  1 52 30.0000000  0  8 27 26 13  2 19  7 15  4
  21972109.523     9087511.955 6   7083067.347 6
  22596847.211   -10312865.577 6  -7899262.810 6
  22769048.148   -10705564.691 6  -7261141.584 5
  21215699.727     -103278.045 7    -43451.303 9
  24397547.984    16542452.341 3  12856269.906 2
  20528906.391   -11500469.401 7
  24053026.086    -2967158.278 5  -2187137.358 5
  24793905.773          -0.21413
 94  2  9  1 53  0.0000000  0  8 27 26 13  2 19  7 15  4
  21988453.398     9173398.361 6   7149991.822 6
  22598328.930   -10305102.872 6  -7893213.949 6
  22750464.898   -10803222.066 6  -7337238.189 5
  21219387.641      -83903.470 7    -28354.226 9
  24416874.391    16644002.388 3  12935399.801 2
  20528943.703   -11500258.612 7
  24058892.883    -2936341.177 5  -2163124.023 5
  24775785.086      -95222.198 3
 94  2  9  1 53 30.0000000  0  8 27 26 13  2 19  7 15  4
  22004866.023     9259640.519 6   7217193.497 7
  22599906.508   -10296806.304 6  -7886749.086 6
  22731942.500   -10900551.605 6  -7413079.372 5
  21223106.102      -64366.269 7    -13130.422 9
  24436220.141    16745726.719 3  13014665.529 1
  20529071.477   -11499573.735 7  -8815264.355 8
  24064859.977    -2904976.101 5  -2138683.693 5
  24757650.500     -190504.065 3        -0.41612
 94  2  9  1 54  0.0000000  0  8 27 26 13  2 19  7 15  4
  22021343.961     9346244.246 6   7284676.905 7
  22601590.484   -10287965.271 6  -7879859.962 6
  22713487.438   -10997545.094 6  -7488658.658 5
  21226856.531      -44662.988 7      2222.786 9
  24455625.320    16847628.525 3  13094069.518 1
  20529291.695   -11498414.214 7  -8814360.818 8
  24070933.828    -2873057.951 5  -2113812.403 5
  24739516.141     -285829.854 3    -74280.057 2
 94  2  9  1 54 30.0000000  0  8 27 26 13  2 19  7 15  4
  22037892.898     9433208.171 6   7352440.995 6
  22603380.047   -10278569.347 6  -7872538.452 6
  22695091.258   -11094203.219 6  -7563976.640 5
  21230637.422      -24788.035 7     17709.776 9
  24475048.156    16949701.688 3  13173607.049 2
  20529601.531   -11496775.684 7  -8813084.029 8
  24077114.492    -2840590.963 5  -2088513.427 5
  24721379.586     -381198.096 3   -148592.745 2
 94  2  9  1 55  0.0000000  0  8 27 26 13  2 19  7 15  4
  22054510.461     9520533.848 6   7420486.962 6
  22605265.727   -10268622.642 6  -7864787.773 6
  22676763.125   -11190528.680 6  -7639035.390 5
  21234447.828       -4755.299 7     33319.706 9
  24494497.281    17051922.527 3  13253259.626 1
  20530009.805   -11494673.711 7  -8811446.117 8
  24083391.008    -2807581.372 5  -2062791.677 5
  24703208.391     -476615.609 3   -222943.916 3
 94  2  9  1 55 30.0000000  0  8 27 26 13  2 19  7 15  4
  22071199.148     9608227.904 6   7488819.983 6
  22607267.898   -10258123.791 6  -7856606.842 6
  22658496.391   -11286499.806 6  -7713818.045 5
  21238294.367       15443.855 7     49059.309 9
  24513975.836    17154295.457 3  13333030.764 2
  20530499.273   -11492078.322 7  -8809423.731 8
  24089779.430    -2774010.620 5  -2036632.644 5
  24685028.773     -572084.704 3   -297335.222 3
 94  2  9  1 56  0.0000000  0  8 27 26 13  2 19  7 15  4
  22087955.141     9696286.687 6   7557437.194 6
  22609364.242   -10247092.757 6  -7848011.240 6
  22640304.133   -11382124.105 6
  21242166.781       35799.321 7     64920.726 9
  24533487.461    17256826.345 3  13412924.951 1
  20531084.320   -11488998.732 7  -8807024.036 8
  24096280.375    -2739889.343 5  -2010044.612 5
  24666852.344     -667639.664 3
 94  2  9  1 56 30.0000000  0  8 27 26 13  2 19  7 15  4
  22104778.125     9784701.250 6   7626331.653 6
  22611563.594   -10235535.312 6  -7839005.427 6
  22622176.102   -11477395.950 6  -7862568.200 5
  21246072.820       56320.941 7     80911.610 9
  24553029.813    17359516.257 3  13492943.025 2
  20531763.102   -11485430.877 7  -8804243.869 8
  24102871.133    -2705215.352 5  -1983025.923 5
  24648662.352     -763277.867 3   -446316.602 2
 94  2  9  1 57  0.0000000  0  8 27 26 13  2 19  7 15  4
  22121670.758     9873462.684 6   7695496.393 6
  22613860.883   -10223469.405 6  -7829603.415 6
  22604109.766   -11572315.511 6  -7936531.433 5
  21250012.008       77012.679 7     97035.050 9
  24572596.813    17462359.860 3  13573080.914 2
  20532533.359   -11481370.854 7  -8801080.208 8
  24109567.539    -2669992.011 5  -1955579.160 4
  24630452.461     -858996.560 3   -520902.476 2
 94  2  9  1 57 30.0000000  0  8 27 26 13  2 19  7 15  4
  22138626.805     9962565.603 6   7764927.234 6
  22616252.102   -10210898.682 6  -7819808.044 6
  22586113.125   -11666880.243 6  -8010218.195 5
  21253979.508       97890.066 7    113303.147 9
  24592200.070    17565356.714 4  13653338.168 2
  20533406.156   -11476802.272 7  -8797520.256 8
  24116382.047    -2634220.087 5  -1927704.916 4
  24612220.555     -954784.970 3   -595542.691 2
 94  2  9  1 58  0.0000000  0  8 27 26 13  2 19  7 15  4
  22155646.047    10051996.201 6   7834613.389 6
  22618741.234   -10197821.581 6  -7809618.098 6
  22568185.047   -11761102.382 6  -8083637.994 5
  21257991.391      118952.360 7    129715.329 9
  24611829.336    17668505.035 4  13733713.472 1
  20534366.969   -11471749.845 7  -8793583.290 8
  24123291.820    -2597915.423 5  -1899415.562 5
  24593981.672    -1050623.856 4   -670222.228 3
 94  2  9  1 58 30.0000000  0  8 27 26 13  2 19  7 15  4
  22172726.047    10141766.347 6   7904564.145 6
  22621330.406   -10184218.764 6  -7799018.494 6
  22550325.187   -11854969.705 6  -8156781.314 5
  21262035.484      140207.904 7    146278.093 9
  24631482.680    17771806.893 3  13814208.439 2
  20535423.883   -11466202.929 7  -8789261.004 8
  24130299.086    -2561068.703 5  -1870703.815 4
  24575733.477    -1146489.597 4   -744922.746 1
 94  2  9  1 59  0.0000000  0  8 27 26 13  2 19  7 15  4
  22189880.063    10231902.387 6   7974800.009 6
  22624019.141   -10170076.028 6  -7787998.176 6
  22532535.422   -11948467.263 6  -8229636.508 5
  21266118.273      161658.074 7    162992.519 9
  24651170.164    17875266.498 4  13894826.298 2
  20536573.242   -11460153.956 7  -8784547.507 8
  24137417.305    -2523668.331 5  -1841560.663 5
  24557485.039    -1242382.406 4   -819644.316 2
 94  2  9  1 59 30.0000000  0  8 27 26 13  2 19  7 15  4
  22207104.672    10322397.737 6   8045315.859 6
  22626817.375   -10155392.516 6  -7776556.484 6
  22514804.539   -12041603.360 6  -8302210.048 5
  21270230.586      183274.739 7    179836.685 9
  24670882.828    17978873.472 3  13975558.998 3
  20537816.859   -11453619.999 7  -8779456.100 8
  24144636.406    -2485726.380 5  -1811995.518 4
  24539230.633    -1338316.443 4   -894398.059 3
 94  2  9  2  0  0.0000000  0  8 27 26 13  2 19  7 15  4
  22224391.109    10413253.149 6   8116112.274 6
  22629708.820   -10140168.179 6  -7764693.365 6
  22497153.016   -12134376.670 6  -8374500.872 5
  21274370.383      205038.816 7    196795.722 9
  24690628.734    18082627.772 3  14056406.475 1
  20539155.188   -11446610.229 7  -8773993.922 8
  24151963.523    -2447244.719 5  -1782009.802 5
  24520967.195    -1434308.072 4   -969196.633 3
 94  2  9  2  0 30.0000000  0  8 27 26 13  2 19  7 15  4
  22241742.367    10504464.269 6   8187185.857 6
  22632707.227   -10124426.858 6  -7752427.412 6
  22479572.578   -12226787.111 6  -8446508.964 5
  21278537.844      226929.768 7    213853.597 9
  24710395.516    18186511.235 3  14137354.633 1
  20540573.320   -11439125.380 7  -8768161.571 8
  24159383.461    -2408226.829 5  -1751606.261 4
  24502680.500    -1530381.051 4  -1044058.614 2
 94  2  9  2  1  0.0000000  0  8 27 26 13  2 19  7 15  4
  22259170.164    10596021.483 6   8258529.122 6
  22635799.133   -10108188.596 6  -7739774.211 6
  22462052.109   -12318830.152 6  -8518230.756 5
  21282728.148      248948.556 7    231011.101 9
  24730193.852    18290531.859 3  14218409.618 1
  20542088.750   -11431169.251 7  -8761961.970 8
  24166912.711    -2368671.169 5  -1720783.647 4
  24484394.539    -1626523.280 4  -1118974.524 4
 94  2  9  2  1 30.0000000  0  8 27 26 13  2 19  7 15  4
  22276653.313    10687917.155 6   8330136.140 6
  22638978.688   -10091460.691 6  -7726739.480 6
  22444608.328   -12410495.998 6  -8589658.634 6
  21286946.602      271107.826 7    248278.068 9
  24750014.781    18394707.580 3  14299585.480 1
  20543691.867   -11422742.255 7  -8755395.466 8
  24174545.641    -2328571.437 5  -1689537.097 4
  24466087.398    -1722708.018 3  -1193923.573 2
 94  2  9  2  2  0.0000000  0  8 27 26 13  2 19  7 15  4
  22294208.492    10780128.340 6   8401988.986 6
  22642258.922   -10074271.985 6  -7713345.689 6
  22427233.469   -12501798.381 6  -8660803.301 5
  21291183.945      293395.364 7    265644.985 9
  24769866.375    18499028.409 3  14380874.430 1
  20545381.078   -11413871.416 7  -8748483.118 8
  24182278.891    -2287945.337 5  -1657880.377 4
  24447763.117    -1818949.123 3  -1268916.524 1
 94  2  9  2  2 30.0000000  0  8 27 26 13  2 19  7 15  4
  22311811.367    10872658.725 6   8474090.581 6
  22645613.969   -10056614.419 6  -7699586.541 6
  22409929.352   -12592726.314 6  -8731656.183 5
  21295455.633      315835.638 7    283130.923 9
  24789752.953    18603507.249 3  14462286.484 1
  20547155.117   -11404556.436 7  -8741224.683 8
  24190109.039    -2246785.041 5  -1625807.397 4
  24429452.961    -1915216.343 4  -1343929.800 1
 94  2  9  2  3  0.0000000  0  7 27 26 13  2  7 15  4
  22329483.805    10965527.532 6   8546455.872 6
  22649074.203   -10038445.147 6  -7685428.678 6
  22392705.383   -12683254.132 6  -8802197.294 5
  21299759.289      338470.784 7    300768.701 9
  20549018.133   -11394770.768 7  -8733599.474 8
  24198044.422    -2205068.450 5  -1593300.964 5
  24411132.742    -2011468.364 4  -1418931.238 1
 94  2  9  2  3 30.0000000  0  8 27 26 13  2  9  7 15  4
  22347219.172    11058723.005 6   8619075.717 6
  22652624.352   -10019758.040 6  -7670867.298 6
  22375550.906   -12773395.412 6  -8872437.204 6
  21304104.672      361286.680 7    318547.327 9
  24755234.820      -94862.256 4
  20550963.688   -11384531.497 7  -8725620.813 8
  24206087.656    -2162812.473 5  -1560374.235 4
  24392816.961    -2107727.371 4  -1493938.165 1
 94  2  9  2  4  0.0000000  0  8 27 26 13  2  9  7 15  4
  22365013.781    11152253.208 6   8691956.387 6
  22656288.734   -10000536.583 6  -7655889.546 6
  22358474.406   -12863145.017 6  -8942371.919 6
  21308480.172      384290.003 7    336471.991 9
  24737186.000     -189703.186 4
  20553001.516   -11373827.972 7  -8717280.388 8
  24214227.438    -2120015.492 5  -1527025.953 3
  24374502.414    -2203991.236 3  -1568948.812 1
 94  2  9  2  4 30.0000000  0  8 27 26 13  2  9  7 15  4
  22382876.711    11246096.753 6   8765081.213 6
  22660038.680    -9980793.747 6  -7640505.524 6
  22341462.906   -12952518.526 6  -9012013.562 6
  21312888.391      407461.991 7    354528.100 9
  24719137.320     -284539.547 4        -0.11312
  20555128.773   -11362669.000 7  -8708585.067 8
  24222473.797    -2076696.542 5  -1493270.917 5
  24356180.961    -2300273.571 3  -1643973.901 3
 94  2  9  2  5  0.0000000  0  8 27 26 13  2  9  7 15  4
  22400793.109    11340263.875 6   8838458.173 6
  22663895.734    -9960530.624 6  -7624716.077 6
  22324532.953   -13041505.139 6  -9081353.740 6
  21317333.813      430795.646 7    372710.174 9
  24701085.031     -379357.351 3    -73884.040 2
  20557334.797   -11351044.735 7  -8699527.196 8
  24230814.477    -2032847.992 5  -1459103.210 5
  24337857.203    -2396577.803 3  -1719016.033 2
 94  2  9  2  5 30.0000000  0  8 27 26 13  2  9  7 15  4
  22418778.719    11434777.555 6   8912105.184 6
  22667855.477    -9939733.486 6  -7608510.509 6
  22307675.219   -13130081.131 6  -9150373.953 5
  21321802.328      454303.388 7    391027.898 9
  24683055.922     -474125.270 3   -147729.128 2
  20559641.672   -11338946.408 7  -8690099.918 8
  24239268.625    -1988450.055 5  -1424507.410 5
  24319516.406    -2492897.747 3  -1794070.417 4
 94  2  9  2  6  0.0000000  0  8 27 26 13  2  9  7 15  4
  22436827.273    11529615.025 6   8986004.496 6
  22671907.094    -9918418.011 6  -7591901.051 6
  22290893.547   -13218264.545 6  -9219088.257 5
  21326307.914      477967.220 7    409467.253 9
  24665028.805     -568858.896 4   -221547.509 1
  20562029.273   -11326388.752 7  -8680314.724 8
  24247821.570    -1943524.126 5  -1389500.178 4
  24301183.477    -2589250.939 4  -1869150.715 4
 94  2  9  2  6 30.0000000  0  8 27 26 13  2  9  7 15  4
  22454936.930    11624777.807 6   9060157.316 6
  22676067.812    -9896581.968 6  -7574885.968 6
  22274190.703   -13306051.065 6  -9287493.305 6
  21330839.656      501790.064 7    428030.510 9
  24647006.672     -663569.167 4   -295347.674 1
  20564504.734   -11313379.372 7  -8670177.534 8
  24256468.539    -1898069.633 5  -1354081.068 4
  24282841.531    -2685638.494 4  -1944257.802 4
 94  2  9  2  7  0.0000000  0  8 27 26 13  2  9  7 15  4
  22473103.438    11720261.805 6   9134560.412 6
  22680324.383    -9874223.421 6  -7557463.719 6
  22257561.969   -13393441.935 6  -9355590.057 6
  21335403.188      525775.307 7    446720.315 9
  24628995.992     -758254.073 4   -369128.088 2
  20567065.828   -11299920.108 7  -8659689.787 8
  24265217.813    -1852091.145 5  -1318253.682 5
  24264500.070    -2782064.028 5  -2019394.514 3
 94  2  9  2  7 30.0000000  0  8 27 26 13  2  9  7 15  4
  22491336.930    11816065.957 6   9209212.992 6
  22684677.195    -9851330.526 6  -7539625.107 6
  22241007.430   -13480427.977 6  -9423371.363 5
  21340002.336      549931.565 7    465543.386 9
  24610981.914     -852906.658 4   -442883.341 2
  20569715.047   -11285995.607 7  -8648839.513 8
  24274066.875    -1805583.134 5  -1282013.660 5
  24246144.094    -2878506.726 5  -2094544.597 3
 94  2  9  2  8  0.0000000  0  8 27 26 13  2  9  7 15  4
  22509627.617    11912190.101 6   9284114.900 6
  22689128.258    -9827919.582 6  -7521382.810 6
  22224531.875   -13567008.553 6  -9490836.702 6
  21344630.664      574254.268 7    484496.147 9
  24592971.602     -947529.082 4   -516615.045 3
  20572454.016   -11271603.373 7  -8637624.778 8
  24283008.500    -1758548.422 5  -1245363.238 5
  24227787.547    -2974947.212 4  -2169692.988 5
 94  2  9  2  8 30.0000000  0  8 27 26 13  2  9  7 15  4
  22527983.656    12008638.730 6   9359269.676 6
  22693681.742    -9804000.537 6  -7502744.586 6
  22208133.883   -13653167.930 6  -9557973.849 6
  21349294.305      598747.256 7    503581.601 9
  24574983.594    -1042090.937 4   -590299.550 1
  20575283.219   -11256726.039 7  -8626032.043 8
  24292069.633    -1710975.157 5  -1208293.144 5
  24209447.023    -3071369.068 5  -2244826.833 4
 94  2  9  2  9  0.0000000  0  8 27 26 13  2  9  7 15  4
  22546395.375    12105407.570 6   9434673.951 6
  22698328.430    -9779590.965 6
  22191820.773   -13738906.320 6  -9624782.963 6
  21353986.313      623405.690 7
  24556998.617    -1136582.996 4   -663929.710 2
  20578207.469   -11241361.187 7  -8614059.422 8
  24301227.664    -1662866.703 5  -1170806.037 5
  24191097.328    -3167763.629 5  -2319939.439 3
 94  2  9  2  9 30.0000000  0  8 27 26 13  2  9  7 15  4
  22564864.742    12202464.229 6   9510302.516 6
  22703058.148    -9754740.538 6  -7464360.163 6
  22175578.789   -13824250.136 6  -9691284.606 6
  21358703.109      648200.938 7    542116.960 9
  24539028.094    -1231043.318 4   -737535.120 3
  20581215.664   -11225557.660 7  -8601744.979 8
  24310477.367    -1614253.137 5  -1132925.329 5
  24172768.336    -3264145.739 5  -2395042.332 4
 94  2  9  2 10  0.0000000  0  8 27 26 13  2  9  7 15  4
  22583392.773    12299825.761 6   9586168.627 6
  22707876.055    -9729426.580 6  -7444635.002 6
  22159420.203   -13909178.177 6  -9757462.272 6
  21363451.281      673165.458 7    561569.828 9
  24521058.508    -1325448.700 4   -811097.686 3
  20584309.492   -11209305.384 7  -8589080.864 8
  24319826.852    -1565116.831 5  -1094637.268 3
  24154417.336    -3360505.111 4  -2470127.537 3
 94  2  9  2 10 30.0000000  0  8 27 26 13  2  9  7 15  4
  22601972.336    12397476.721 6   9662260.284 6
  22712783.531    -9703640.062 6  -7424541.620 6
  22143337.305   -13993690.454 6  -9823315.969 6
  21368238.164      698303.464 7    581157.895 9
  24503101.563    -1419801.604 3   -884619.411 3
  20587483.305   -11192600.262 7  -8576063.871 8
  24329271.578    -1515461.361 5  -1055944.684 4
  24136087.359    -3456851.125 4  -2545202.325 3
 94  2  9  2 11  0.0000000  0  8 27 26 13  2  9  7 15  4
  22620613.281    12495414.988 6   9738575.797 6
  22717780.875    -9677378.126 6  -7404077.753 6
  22127332.172   -14077784.441 6  -9888843.720 6
  21373056.141      723622.218 7    600886.801 9
  24485147.781    -1514116.573 3   -958111.555 1
  20590749.359   -11175462.761 7  -8562709.971 8
  24338824.258    -1465287.757 5  -1016848.367 4
  24117755.891    -3553175.705 5  -2620260.438 2
 94  2  9  2 11 30.0000000  0  8 27 26 13  2  9  7 15  4
  22639299.305    12593635.785 6   9815111.474 6
  22722869.672    -9650617.018 6  -7383224.941 6
  22111411.398   -14161452.333 6  -9954039.446 6
  21377906.867      749122.982 7    620757.538 9
  24467217.266    -1608369.012 4  -1031554.963 2
  20594094.625   -11157887.158 7  -8549014.690 8
  24348468.375    -1414592.182 5   -977345.315 4
  24099434.992    -3649483.227 5  -2695305.248 1
 94  2  9  2 12  0.0000000  0  8 27 26 13  2  9  7 15  4
  22658047.492    12692139.489 6   9891867.603 5
  22728062.086    -9623340.838 6  -7361970.753 6
  22095570.969   -14244697.527 6 -10018905.807 6
  21382792.258      774796.894 7    640763.189 9
  24449303.594    -1702545.958 5  -1104939.582 2
  20597525.820   -11139857.728 7  -8534965.775 8
  24358211.320    -1363381.565 5   -937440.926 5
  24081106.383    -3745794.126 5  -2770352.647 2
 94  2  9  2 12 30.0000000  0  8 27 26 13  2  9  7 15  4
  22676845.188    12790926.997 6   9968844.897 5
  22733348.883    -9595562.114 6  -7340324.997 6
  22079812.500   -14327525.533 6 -10083447.081 6
  21387708.516      800616.804 7    660882.605 9
  24431390.234    -1796654.510 5  -1178270.857 2
  20601037.461   -11121383.181 7  -8520570.015 8
  24368058.719    -1311664.687 5   -897142.063 5
  24062776.906    -3842101.176 5  -2845397.055 4
 94  2  9  2 13  0.0000000  0  8 27 26 13  2  9  7 15  4
  22695704.031    12890028.617 6  10046066.932 5
  22738735.727    -9567270.923 6  -7318279.907 6
  22064132.820   -14409918.888 6 -10147649.666 6
  21392646.500      826592.103 7    681123.106 9
  24413503.148    -1890666.718 5  -1251527.072 2
  20604640.625   -11102460.861 7  -8505825.338 8
  24377996.617    -1259428.084 5   -856438.209 5
  24044447.586    -3938379.051 5  -2920418.688 2
 94  2  9  2 13 30.0000000  0  8 27 26 13  2  9  7 15  4
  22714623.719    12989467.510 6  10123551.768 5
  22744214.945    -9538458.529 6  -7295828.682 6
  22048532.039   -14491872.872 6 -10211509.881 6
  21397624.203      852725.541 7    701486.836 9
  24395632.867    -1984576.166 5  -1324703.217 3
  20608330.000   -11083070.269 7  -8490715.780 8
  24388033.719    -1206670.560 5   -815328.436 5
  24026140.656    -4034622.476 5  -2995413.519 3
 94  2  9  2 14  0.0000000  0  8 27 26 13  2  9  7 15  4
  22733619.023    13089253.559 6  10201307.124 5
  22749788.992    -9509161.019 6  -7272999.440 6
  22033020.633   -14573393.569 6 -10275032.485 6
  21402626.570      879016.596 7    721973.377 9
  24377775.898    -2078417.571 5  -1397826.325 2
  20612107.938   -11063226.206 7  -8475252.866 8
  24398171.352    -1153401.847 5   -773820.347 5
  24007832.008    -4130831.809 4  -3070381.776 4
 94  2  9  2 14 30.0000000  0  8 27 26 13  2  9  7 15  4
  22752669.570    13189386.562 5  10279332.823 5
  22755453.375    -9479400.982 6  -7249809.800 6
  22017593.266   -14654476.574 6 -10338214.018 6
  21407658.945      905469.488 7    742586.025 9
  24359923.938    -2172202.975 4  -1470905.818 2
  20615968.789   -11042945.462 7  -8459449.676 8
  24408406.102    -1099620.688 5   -731912.938 4
  23989532.734    -4226987.454 4  -3145308.176 4
 94  2  9  2 15  0.0000000  0  8 27 26 13  2  9  7 15  4
  22771788.578    13289849.972 5  10357615.988 5
  22761202.922    -9449184.162 6  -7226264.215 6
  22002245.125   -14735123.452 6 -10401055.710 6
  21412728.156      932106.886 7    763342.445 9
  24342093.078    -2265944.467 5  -1543951.064 4
  20619908.180   -11022231.576 7  -8443308.971 8
  24418734.328    -1045332.789 5   -689610.676 5
  23971252.570    -4323098.609 5  -3220199.915 4
 94  2  9  2 15 30.0000000  0  8 27 26 13  2  9  7 15  4
  22790965.719    13390631.450 6  10436146.979 5
  22767037.273    -9418504.038 6  -7202357.631 6
  21986983.719   -14815320.805 6 -10463547.126 6
  21417837.063      958949.397 7    784258.696 9
  24324263.570    -2359640.850 5  -1616961.118 3
  20623933.164   -11001070.316 7  -8426819.667 8
  24429164.875     -990528.523 5   -646906.039 3
  23952968.508    -4419162.273 5  -3295054.663 2
 94  2  9  2 16  0.0000000  0  8 27 26 13  2  9  7 15  4
  22810194.578    13491692.360 6  10514895.737 6
  22772968.164    -9387368.037 6  -7178095.792 6
  21971806.305   -14895075.768 6 -10525693.828 6
  21422982.805      985996.684 7    805334.513 9
  24306432.625    -2453301.215 5  -1689943.140 2
  20628044.719   -10979482.326 7  -8409997.852 8
  24439692.078     -935218.631 5   -603807.415 5
  23934692.539    -4515183.978 5  -3369876.741 3
 94  2  9  2 16 30.0000000  0  8 27 26 13  2  9  7 15  4
  22829482.930    13593016.848 6  10593849.869 5
  22778984.555    -9355751.213 6  -7153459.298 6
  21956715.547   -14974384.150 6 -10587492.539 6
  21428168.039     1013243.848 7    826566.070 9
  24288620.977    -2546902.832 5  -1762879.403 2
  20632232.570   -10957452.617 7  -8392831.830 8
  24450310.039     -879402.384 5   -560314.234 3
  23916425.664    -4611151.574 5  -3444656.640 4
 94  2  9  2 17  0.0000000  0  8 27 26 13  2  9  7 15  4
  22848808.789    13694592.908 6  10673000.041 5
  22785089.320    -9323650.732 6  -7128445.934 6
  21941705.234   -15053255.309 6 -10648950.564 6
  21433390.266     1040676.820 7    847942.414 9
  24270823.391    -2640447.005 5  -1835770.876 4
  20636508.484   -10934988.233 7  -8375327.113 8
  24461024.930     -823092.861 5   -516436.664 3
  23898173.891    -4707086.866 5  -3519411.353 3
 94  2  9  2 17 30.0000000  0  8 27 26 13  2  9  7 15  4
  22868188.563    13796440.355 5  10752361.675 5
  22791290.906    -9291056.319 6  -7103047.682 6
  21926787.398   -15131675.741 6 -10710057.372 6
  21438645.375     1068286.587 7    869456.530 9
  24253041.828    -2733909.266 5  -1908598.510 3
  20640865.164   -10912087.039 7  -8357482.005 8
  24471832.977     -766280.213 5   -472167.068 4
  23879927.281    -4802978.031 5  -3594131.714 4
 94  2  9  2 18  0.0000000  0  8 27 26 13  2  9  7 15  4
  22887626.766    13898581.185 5  10831951.919 5
  22797592.141    -9257960.445 6  -7077258.692 6
  21911948.281   -15209642.932 6 -10770811.004 6
  21443927.109     1096062.713 7    891100.267 9
  24235271.133    -2827278.377 5  -1981353.607 4
  20645306.375   -10888740.718 7  -8339290.058 8
  24482748.469     -708965.808 5   -427506.480 3
  23861695.008    -4898811.463 5  -3668807.085 4
 94  2  9  2 18 30.0000000  0  8 27 26 13  2  9  7 15  4
  22907119.133    14001018.019 5  10911772.806 5
  22803978.367    -9224384.299 6  -7051095.458 6
  21897193.477   -15287163.135 6 -10831216.333 6
  21449237.328     1123981.622 7    912855.275 9
  24217523.031    -2920543.236 5  -2054027.442 4
  20649836.930   -10864964.594 7  -8320763.194 8
  24493745.938     -651159.160 5   -382462.327 3
  23843463.648    -4994605.727 5  -3743451.922 4
 94  2  9  2 19  0.0000000  0  8 27 26 13  2  9  7 15  4
  22926668.406    14103744.296 5  10991819.242 6
  22810458.641    -9190333.960 6  -7024562.727 6
  21882528.039   -15364235.837 6 -10891272.962 6
  21454579.898     1152039.728 7    934718.737 9
  24199793.195    -3013707.858 5  -2126623.180 4
  20654434.383   -10840780.168 7  -8301918.188 8
  24504835.859     -592863.792 5   -337037.363 5
  23825234.508    -5090361.198 5  -3818066.551 5
 94  2  9  2 19 30.0000000  0  8 27 26 13  2  9  7 15  4
  22946265.797    14206754.754 5  11072087.106 5
  22817027.961    -9155817.274 6  -6997666.606 6
  21867950.383   -15440858.138 6 -10950978.632 6
  21459943.852     1180234.171 7    956688.441 9
  24182087.094    -3106767.027 5  -2199136.786 2
  20659122.867   -10816176.014 7  -8282746.109 8
  24516023.547     -534080.089 5   -291231.885 4
  23807027.133    -5186060.655 5  -3892637.540 5
 94  2  9  2 20  0.0000000  0  8 27 26 13  2  9  7 15  4
  22965932.383    14310071.823 5  11152593.904 5
  22823691.922    -9120812.534 6  -6970390.182 6
  21853459.789   -15517006.523 6 -11010315.011 6
  21465338.609     1208589.621 7    978783.603 9
  24164406.422    -3199697.790 5  -2271550.292 5
  20663890.406   -10791120.834 7  -8263222.578 8
  24527300.898     -474788.229 4   -245030.412 3
  23788834.648    -5281672.935 5  -3967140.562 4
 94  2  9  2 20 30.0000000  0  8 27 26 13  2  9  7 15  4
  22985636.742    14413655.052 5  11233308.084 5
  22830436.961    -9085356.711 6  -6942762.271 6
  21839055.727   -15592700.145 6 -11069297.031 6
  21470761.813     1237091.383 7   1000992.768 9
  24146735.945    -3292528.421 5  -2343885.798 3
  20668735.914   -10765653.609 7  -8243377.980 9
  24538681.711     -415011.387 5   -198451.060 4
  23770660.844    -5377222.918 5  -4041595.049 5
 94  2  9  2 21  0.0000000  0  8 27 26 13  2  9  7 15  4
  23005404.070    14517513.863 5  11314236.999 5
  22837274.203    -9049438.007 6  -6914773.665 6
  21824740.617   -15667923.664 6 -11127912.740 6
  21476218.711     1265764.253 7   1023335.278 9
  24129087.453    -3385274.968 5  -2416155.797 4
  20673662.414   -10739758.122 7  -8223199.666 9
  24550154.586     -354737.863 5   -151484.686 3
  23752489.898    -5472677.280 5  -4115975.001 5
 94  2  9  2 21 30.0000000  0  8 27 26 13  2  9  7 15  4
  23025216.563    14621633.512 5  11395369.182 5
  22844190.742    -9013086.515 6  -6886447.833 6
  21810514.383   -15742688.976 6 -11186171.405 6
  21481713.828     1294620.946 7   1045821.010 9
  24111451.641    -3477949.192 5  -2488369.428 4
  20678665.148   -10713443.756 7  -8202694.957 8
  24561714.703     -293982.906 5   -104143.133 4
  23734337.539    -5568050.142 5  -4190291.454 5
 94  2  9  2 22  0.0000000  0  8 27 26 13  2  9  7 15  4
  23045081.008    14726019.592 5  11476708.979 5
  22851192.180    -8976293.069 6  -6857777.620 6
  21796378.313   -15816979.346 6 -11244059.985 6
  21487238.711     1323684.934 7   1068468.277 9
  24093827.125    -3570535.976 5  -2560514.967 4
  20683754.133   -10686718.708 7  -8181870.233 9
  24573366.367     -232733.668 5    -56416.457 4
  23716209.633    -5663332.964 5  -4264537.744 5
 94  2  9  2 22 30.0000000  0  8 27 26 13  2  9  7 15  4
  23064989.469    14830631.520 5  11558224.745 5
  22858272.641    -8939077.405 6  -6828778.415 6
  21782327.742   -15890808.208 6 -11301588.942 6
  21492813.125     1352946.737 7   1091269.693 9
  24076230.219    -3663055.523 5  -2632608.101 3
  20688910.570   -10659614.362 7  -8160749.953 9
  24585114.344     -171007.360 4     -8318.031 4
  23698095.594    -5758543.066 5  -4338727.363 5
 94  2  9  2 23  0.0000000  0  8 27 26 13  2  9  7 15  4
  23084942.633    14935490.836 5  11639933.288 5
  22865440.914    -8901409.863 6  -6799427.078 6
  21768366.961   -15964158.653 6 -11358745.109 6
  21498422.430     1382425.365 7   1114240.055 9
  24058638.859    -3755485.181 5  -2704631.168 5
  20694145.555   -10632109.158 7  -8139317.318 9
  24596958.570     -108790.867 5     40162.384 3
  23679988.430    -5853655.907 5  -4412841.209 4
 94  2  9  2 23 30.0000000  0  8 27 26 13  2  9  7 15  4
  23104946.648    15040601.231 5  11721837.475 5
  22872694.359    -8863295.599 6  -6769727.659 6
  21754500.484   -16037039.392 6 -11415535.269 6
  21504063.641     1412094.036 7   1137358.503 9
  24041063.438    -3847815.401 5  -2776576.784 4
  20699453.922   -10604218.120 7  -8117584.033 9
  24608883.602      -46096.227 4     89015.326 3
  23661906.367    -5948688.977 5  -4486892.893 5
 94  2  9  2 24  0.0000000  0  8 27 26 13  2  9  7 15  4
  23124995.961    15145974.046 5  11803946.143 5
  22880033.445    -8824725.785 6  -6739673.267 6
  21740719.758   -16109448.173 6 -11471957.677 6
  21509739.781     1441915.572 7   1160596.067 9
  24023514.820    -3940052.745 5  -2848450.033 4
  20704835.711   -10575946.081 7  -8095553.867 9
  24620905.430       17075.157 5    138239.812 3
  23643836.945    -6043643.156 5  -4560883.121 5
 94  2  9  2 24 30.0000000  0  8 27 26 13  2  9  7 15  4
  23145104.664    15251633.539 5  11886278.207 5
  22887465.063    -8785673.541 6  -6709242.957 6
  21727032.391   -16181372.110 6 -11528002.282 6
  21515449.633     1471908.512 7   1183967.189 9
  24005986.922    -4032187.940 5  -2920243.681 4
  20710291.133   -10547267.949 7  -8073207.263 9
  24633016.336       80732.527 4    187842.932 3
  23625791.813    -6138493.352 5  -4634792.308 4
 94  2  9  2 25  0.0000000  0  8 27 26 13  2  9  7 15  4
  23165266.891    15357603.475 5  11968852.151 5
  22894988.875    -8746138.055 6  -6678436.086 6
  21713440.039   -16252809.595 6 -11583667.835 6
  21521189.688     1502072.385 7   1207471.507 9
  23988475.664    -4124202.951 5  -2991943.682 4
  20715823.383   -10518174.049 7  -8050536.677 9
  24645227.039      144873.776 5    237823.143 3
  23607755.773    -6233230.318 5  -4708613.287 5
 94  2  9  2 25 30.0000000  0  8 27 26 13  2  9  7 15  4
  23185488.773    15463868.250 5  12051655.859 5
  22902602.734    -8706134.854 6  -6647264.755 6
  21699938.023   -16323763.214 6 -11638956.354 6
  21526955.328     1532394.680 7   1231099.276 9
  23970985.797    -4216086.355 5  -3063541.146 4
  20721444.758   -10488658.654 7  -8027537.659 9
  24657524.102      209492.215 5    288175.178 2
  23589749.828    -6327858.521 5  -4782349.502 5
 94  2  9  2 26  0.0000000  0  8 27 26 13  2  9  7 15  4
  23205765.586    15570403.406 5  12134670.243 5
  22910298.117    -8665670.593 6  -6615734.189 6
  21686529.805   -16394233.149 6 -11693867.964 6
  21532763.891     1562896.422 7   1254866.871 9
  23953526.016    -4307828.887 5  -3135028.816 4
  20727138.648   -10458710.632 7  -8004201.532 9
  24669914.273      274584.268 5    338896.269 3
  23571771.078    -6422371.906 5  -4855996.239 5
 94  2  9  2 26 30.0000000  0  8 27 26 13  2  9  7 15  4
  23226085.430    15677185.148 5  12217876.782 5
  22918090.148    -8624753.091 6  -6583850.421 6
  21673208.625   -16464219.340 6 -11748402.643 6
  21538604.695     1593588.516 7
  23936097.648    -4399411.532 5  -3206391.931 3
  20732921.461   -10428329.027 7
  24682385.047      340146.359 5    389983.618 5
  23553803.320    -6516757.619 5  -4929543.515 5
 94  2  9  2 27  0.0000000  0  8 27 26 13  2  9  7 15  4
  23246449.359    15784200.715 5  12301265.503 5
  22925957.414    -8583406.066 6  -6551631.961 6
  21659984.523   -16533718.460 6 -11802557.793 6
  21544478.086     1624453.885 7
  23918708.086    -4490831.683 5  -3277628.387 4
  20738782.594   -10397517.269 7
  24694948.063      406177.875 5    441436.759 4
  23535865.195    -6611025.809 5  -5002999.201 5
 94  2  9  2 27 30.0000000  0  8 27 26 13  2  9  7 15  4
  23266851.703    15891438.254 5  12384827.184 5
  22933902.672    -8541643.366 6  -6519089.601 6
  21646851.414   -16602729.240 6 -11856332.396 6
  21550386.227     1655494.415 7   1327021.167 9
  23901338.117    -4582107.201 5  -3348752.142 5
  20744726.937   -10366276.403 7  -7932174.825 9
  24707604.148      472676.718 5    493254.032 3
  23517954.898    -6705183.582 5  -5076368.857 4
 94  2  9  2 28  0.0000000  0  8 27 26 13  2  9  7 15  4
  23287307.594    15998904.828 5  12468567.362 5
  22941934.641    -8499453.382 6  -6486214.302 6
  21633815.961   -16671242.172 6 -11909719.080 6
  21556325.422     1686727.577 7   1351358.696 9
  23883992.094    -4673253.947 5  -3419775.564 5
  20750758.945   -10334607.873 7  -7907498.053 9
  24720346.531      539648.705 4    545440.020 3
  23500055.969    -6799220.638 5  -5149644.448 5
 94  2  9  2 28 30.0000000  0  8 27 26 13  2  9  7 15  4
  23307797.313    16106599.947 5  12552485.612 5
  22950035.508    -8456854.849 6  -6453020.642 6
  21620869.672   -16739264.324 6 -11962723.327 6
  21562305.000     1718133.273 7   1375830.673 9
  23866670.234    -4764295.146 5  -3490716.748 4
  20756864.445   -10302525.276 7  -7882498.610 9
  24733177.555      607083.350 4    597986.502 2
  23482176.359    -6893151.636 5  -5222837.403 5
 94  2  9  2 29  0.0000000  0  8 27 26 13  2  9  7 15  4
  23328340.211    16214540.023 5  12636594.741 5
  22958215.164    -8413849.644 6  -6419510.099 5
  21608020.531   -16806793.183 6 -12015343.199 6
  21568314.945     1749730.071 7   1400451.566 9
  23849359.266    -4855241.790 5  -3561584.203 4
  20763049.172   -10270020.433 7  -7857170.160 9
  24746099.711      674979.252 4    650892.411 4
  23464327.031    -6986982.582 5  -5295952.389 5
 94  2  9  2 29 30.0000000  0  8 27 26 13  2  9  7 15  4
  23348927.539    16322731.419 5  12720899.703 5
  22966488.828    -8370413.288 6  -6385663.586 6
  21595268.211   -16873820.645 7 -12067572.377 6
  21574369.609     1781538.016 7   1425236.991 9
  23832072.742    -4946086.139 5  -3632371.978 5
  20769311.969   -10237091.311 7  -7831511.106 9
  24759107.813      743340.919 4    704161.252 3
  23446491.828    -7080694.368 5  -5368974.526 5
 94  2  9  2 30  0.0000000  0  7 27 26 13  2  9  7  4
  23369561.492    16431170.044 5  12805397.286 5
  22974842.570    -8326529.799 6  -6351468.664 6
  21582605.445   -16940341.708 6 -12119406.951 6
  21580463.289     1813550.676 7   1450181.923 9
  23814811.109    -5036814.859 5  -3703069.629 5
  20775657.523   -10203754.761 7  -7805534.558 9
  23428689.164    -7174275.486 5  -5441894.828 5
 94  2  9  2 30 30.0000000  0  7 27 26 13  2  9  7  4
  23390246.211    16539858.642 5  12890089.668 5
  22983273.203    -8282209.106 6  -6316933.058 6
  21570046.594   -17006355.161 6 -12170845.983 6
  21586592.867     1845759.839 7   1475279.976 9
  23797569.219    -5127412.525 5  -3773665.166 5
  20782073.656   -10170027.420 7  -7779253.507 9
  23410902.852    -7267728.078 5  -5514714.989 5
 94  2  9  2 31  0.0000000  0  7 27 26 13  2  9  7  4
  23410966.055    16648762.062 5  12974949.453 5
  22991790.094    -8237450.486 6  -6282056.217 6
  21557578.430   -17071877.586 7 -12221902.398 6
  21592753.594     1878146.909 7   1500516.664 9
  23780349.922    -5217886.354 5  -3844164.181 4
  20788559.883   -10135939.721 7  -7752691.654 9
  23393133.961    -7361055.462 5  -5587437.590 5
 94  2  9  2 31 30.0000000  0  7 27 26 13  2  9  7  4
  23431733.086    16757875.767 5  13059973.136 5
  23000394.648    -8192245.925 6  -6246831.877 6
  21545202.250   -17136902.099 6 -12272570.824 6
  21598944.797     1910699.600 7   1525882.404 9
  23763164.258    -5308219.431 5  -3914553.556 5
  20795114.656   -10101504.542 7  -7725859.037 9
  23375406.047    -7454245.894 5  -5660053.477 5
 94  2  9  2 32  0.0000000  0  8 27 26 13  2  9  7 12  4
  23452535.742    16867206.907 5  13145166.223 3
  23009072.125    -8146611.728 6  -6211272.771 6
  21532924.906   -17201425.787 7 -12322849.016 6
  21605170.188     1943406.239 7   1551368.104 9
  23746002.422    -5398400.062 5  -3984824.114 5
  20801737.039   -10066720.360 7  -7698754.465 9
  24831505.867          -0.89414
  23357700.125    -7547297.793 5  -5732561.431 5
 94  2  9  2 32 30.0000000  0  8 27 26 13  2  9  7 12  4
  23473379.383    16976753.385 5  13230527.092 4
  23017840.336    -8100560.855 6  -6175388.974 6
  21520739.938   -17265456.692 6 -12372743.200 6
  21611425.688     1976263.956 7   1576971.520 9
  23728870.992    -5488425.922 5  -4054974.063 5
  20808419.844   -10031579.914 7  -7671372.294 9
  24815061.000      -86436.999 3        -0.19811
  23340023.750    -7640214.078 5  -5804963.700 5
 94  2  9  2 33  0.0000000  0  8 27 26 13  2  9  7 12  4
  23494274.461    17086520.172 5  13316059.633 2
  23026680.367    -8054082.619 6  -6139172.172 6
  21508650.852   -17328990.931 7 -12422250.373 7
  21617708.180     2009284.773 7   1602702.032 9
  23711765.477    -5578291.302 5  -4124998.982 5
  20815175.953    -9996079.100 7  -7643709.313 9
  24798601.906     -172912.603 3    -67383.716 2
  23322369.883    -7732980.599 5  -5877249.266 5
 94  2  9  2 33 30.0000000  0  8 27 26 13  2  9  7 12  4
  23515203.297    17196542.390 5  13401791.231 4
  23035602.031    -8007187.660 6  -6102630.651 5
  21496655.859   -17392014.822 7 -12471359.879 6
  21624021.508     2042475.399 7   1628564.867 9
  23694699.078    -5667987.709 5  -4194892.223 5
  20822006.125    -9960209.755 7  -7615759.161 9
  24782141.195     -259414.218 3   -134787.521 1
  23304738.781    -7825585.214 5  -5949408.665 6
 94  2  9  2 34  0.0000000  0  8 27 26 13  2  9  7 12  4
  23536191.969    17306829.702 5  13487729.384 5
  23044601.695    -7959878.502 5  -6065766.374 6
  21484761.609   -17454521.341 7 -12520066.234 6
  21630372.703     2075842.587 7   1654565.277 9
  23677666.914    -5757509.127 5  -4264649.145 5
  20828901.828    -9923956.327 7  -7587509.725 9
  24765673.094     -345934.805 3   -202206.114 1
  23287160.477    -7918017.737 5  -6021433.966 5
 94  2  9  2 34 30.0000000  0  8 27 26 13  2  9  7 12  4
  23557227.180    17417357.264 5  13573854.760 4
  23053685.039    -7912166.702 5  -6028588.358 6
  21472966.102   -17516518.822 7 -12568375.937 7
  21636757.539     2109401.499 7   1680715.082 9
  23660658.781    -5846868.633 5  -4334279.863 5
  20835875.102    -9887326.255 7  -7558966.808 9
  24749214.172     -432482.896 5   -269646.171 1
  23269592.813    -8010293.711 5  -6093337.287 5
 94  2  9  2 35  0.0000000  0  8 27 26 13  2  9  7 12  4
  23578306.563    17528121.030 5  13660164.163 5
  23062845.477    -7864060.404 6  -5991102.923 6
  21461265.164   -17578001.498 7 -12616284.491 6
  21643181.773     2143158.954 7   1707019.593 8
  23643690.805    -5936072.458 5  -4403789.264 5
  20842916.734    -9850315.071 7  -7530126.907 9
  24732735.664     -519052.736 3   -337103.232 2
  23252064.906    -8102410.812 5  -6165116.824 5
 94  2  9  2 35 30.0000000  0  8 27 26 13  2  9  7 12  4
  23599422.023    17639100.456 5  13746641.624 5
  23072066.891    -7815576.396 6  -5953323.183 5
  21449660.953   -17638974.820 6 -12663796.149 7
  21649644.195     2177109.312 7   1733474.418 9
  23626738.742    -6025121.141 5  -4473177.823 5
  20850032.781    -9812916.136 7  -7500984.879 9
  24716258.695     -605649.622 4   -404581.301 2
  23234564.742    -8194380.977 5  -6236781.846 5
 94  2  9  2 36  0.0000000  0  8 27 26 13  2  9  7 12  4
  23620578.313    17750280.728 5  13833275.571 4
  23081370.414    -7766699.707 5  -5915237.452 5
  21438155.430   -17699427.231 7 -12710901.890 7
  21656148.320     2211281.812 7   1760102.352 8
  23609828.906    -6114003.758 5  -4542436.954 5
  20857225.156    -9775109.958 7  -7471525.520 9
  24699781.266     -692262.115 5   -472071.552 1
  23217091.031    -8286195.286 5  -6308325.433 5
 94  2  9  2 36 30.0000000  0  8 27 26 13  2  9  7 12  4
  23641779.617    17861661.148 5  13920065.467 5
  23090744.320    -7717421.858 6  -5876839.139 6
  21426755.852   -17759355.264 7 -12757599.040 6
  21662688.594     2245677.796 7   1786904.424 8
  23592943.773    -6202733.080 5  -4611576.646 5
  20864499.227    -9736913.213 7  -7441761.803 9
  24683298.375     -778886.417 4   -539570.985 1
  23199648.195    -8377855.113 5  -6379748.636 5
 94  2  9  2 37  0.0000000  0  8 27 26 13  2  9  7 12  4
  23663003.211    17973244.119 5  14007013.216 5
  23100198.375    -7667743.860 6  -5838129.013 6
  21415450.344   -17818762.566 7 -12803890.420 6
  21669274.672     2280261.235 7   1813852.557 8
  23576077.758    -6291317.318 5  -4680603.300 5
  20871832.203    -9698344.225 7  -7411708.041 9
  24666804.484     -865526.190 4   -607082.502 1
  23182238.648    -8469350.436 5  -6451043.654 6
 94  2  9  2 37 30.0000000  0  8 27 26 13  2  9  7 12  4
  23684280.523    18085019.050 5  14094110.564 4
  23109726.086    -7617682.353 6  -5799120.049 5
  21404241.492   -17877660.862 7 -12849785.175 6
  21675887.484     2315008.068 7   1840928.010 9
  23559250.227    -6379766.425 5  -4749524.633 5
  20879238.258    -9659431.299 7  -7381386.278 9
  24650318.227     -952192.976 4   -674615.028 2
  23164856.125    -8560689.421 5  -6522216.838 5
 94  2  9  2 38  0.0000000  0  8 27 26 13  2  9  7 12  4
  23705585.164    18197001.963 5  14181369.950 4
  23119326.000    -7567228.648 6  -5759805.479 6
  21393131.008   -17936040.371 6 -12895275.684 6
  21682523.477     2349904.259 7   1868119.850 8
  23542449.992    -6468083.176 5  -4818342.876 5
  20886710.094    -9620185.113 7  -7350804.824 9
  24633823.805    -1038876.684 4   -742160.708 1
  23147513.461    -8651859.042 5  -6593258.069 5
 94  2  9  2 38 30.0000000  0  8 27 26 13  2  9  7 12  4
  23726940.656    18309201.996 5  14268798.537 3
  23129003.391    -7516377.709 5  -5720181.377 6
  21382122.273   -17993892.289 7 -12940355.078 7
  21689191.328     2384944.013 7   1895423.551 8
  23525672.648    -6556239.703 5  -4887036.230 5
  20894242.328    -9580595.198 7  -7319955.531 9
  24617320.656    -1125568.439 4   -809712.666 2
  23130198.875    -8742842.464 5  -6664154.201 5
 94  2  9  2 39  0.0000000  0  8 27 26 13  2  9  7 12  4
  23748334.859    18421616.365 5  14356394.128 3
  23138754.820    -7465131.754 5  -5680249.472 6
  21371215.141   -18051210.640 7 -12985018.709 6
  21695893.516     2420151.179 7   1922857.717 8
  23508930.109    -6644203.040 5  -4955579.073 5
  20901844.844    -9540641.812 7  -7288823.019 9
  24600824.844    -1212261.953 4   -877266.010 1
  23112924.219    -8833620.093 5  -6734889.997 5
 94  2  9  2 39 30.0000000  0  8 27 26 13  2  9  7 12  4
  23769760.938    18534228.599 5  14444143.913 3
  23148579.813    -7413503.979 5  -5640020.038 6
  21360404.820   -18108005.834 6 -13029274.679 6
  21702629.305     2455536.474 7   1950430.670 8
  23492231.836    -6731968.662 5  -5023967.860 5
  20909513.719    -9500321.730 7  -7257404.762 9
  24584326.539    -1298967.386 5   -944828.652 2
  23095684.133    -8924199.974 5  -6805471.666 5
 94  2  9  2 40  0.0000000  0  8 27 26 13  2  9  7 12  4
  23791229.406    18647035.879 5  14532045.644 3
  23158472.320    -7361500.716 5  -5599498.030 6
  21349695.180   -18164281.482 7 -13073125.807 7
  21709397.734     2491120.993 7   1978158.875 8
  23475567.344    -6819530.501 5  -5092197.850 5
  20917258.625    -9459627.338 7  -7225694.845 9
  24567824.117    -1385688.027 4  -1012403.159 2
  23078482.672    -9014577.386 5  -6875895.588 5
 94  2  9  2 40 30.0000000  0  8 27 26 13  2  9  7 12  4
  23812736.391    18760060.757 5  14620116.946 4
  23168446.242    -7309111.264 5  -5558675.094 5
  21339094.547   -18220019.562 7 -13116558.054 6
  21716216.359     2526951.019 7   2006078.381 8
  23458949.766    -6906862.195 5  -5160248.488 5
  20925085.031    -9418525.171 7  -7193667.179 9
  24551326.656    -1472405.575 5  -1079975.212 4
  23061335.258    -9104733.817 5  -6946147.309 5
 94  2  9  2 41  0.0000000  0  8 27 26 13  2  9  7 12  4
  23834286.078    18873305.460 5  14708359.543 4
  23178488.461    -7256341.959 6  -5517556.157 6
  21328587.109   -18275222.726 7 -13159573.489 6
  21723081.594     2563024.543 7   2034187.617 8
  23442370.031    -6993979.581 5  -5228132.159 5
  20932974.563    -9377031.371 7  -7161334.333 9
  24534820.461    -1559122.240 5  -1147546.584 2
  23044218.852    -9194679.045 6  -7016234.449 5
 94  2  9  2 41 30.0000000  0  8 27 26 13  2  9  7 12  4
  23855879.469    18986773.293 5  14796776.026 4
  23188599.070    -7203203.143 6  -5476149.299 5
  21318183.836   -18329892.067 7 -13202172.949 6
  21729988.734     2599321.829 7   2062471.212 8
  23425834.703    -7080898.283 5
  20940950.875    -9335153.693 7  -7128702.380 9
  24518318.914    -1645838.667 5
  23027138.695    -9284423.690 6  -7086165.313 5
 94  2  9  2 42  0.0000000  0  8 27 26 13  2  9  7 12  4
  23877508.531    19100454.067 5  14885358.394 4
  23198780.953    -7149706.255 5  -5434463.413 6
  21307879.820   -18384037.833 6 -13244364.435 6
  21736930.602     2635824.101 7   2090914.550 8
  23409326.563    -7167640.128 5
  20948989.477    -9292916.571 7  -7095790.329 9
  24501813.430    -1732564.683 4
  23010091.438    -9373987.901 6  -7155955.577 5
 94  2  9  2 42 30.0000000  0  8 27 26 13  2  9  7 12  4
  23899181.398    19214333.572 5  14974095.638 2
  23209031.500    -7095833.898 5  -5392484.956 5
  21297678.289   -18437647.867 7 -13286138.465 6
  21743919.336     2672526.563 7   2119513.859 8
  23392856.359    -7254192.491 5  -5430895.412 5
  20957090.594    -9250323.282 7  -7062600.750 9
  24485308.992    -1819287.479 4  -1350272.620 1
  22993088.266    -9463361.973 6  -7225597.696 5
 94  2  9  2 43  0.0000000  0  8 27 26 13  2  9  7 12  4
  23920887.445    19328383.053 5  15062965.368 2
  23219350.461    -7041585.112 5  -5350213.174 5
  21287578.609   -18490723.641 7 -13327496.189 7
  21750937.992     2709409.893 7   2148254.125 8
  23376418.695    -7340560.269 5  -5498194.956 5
  20965263.227    -9207391.037 7  -7029147.054 9
  24468813.477    -1906008.259 5  -1417847.146 1
  22976118.555    -9552540.854 6  -7295087.695 5
 94  2  9  2 43 30.0000000  0  8 27 26 13  2  9  7 12  4
  23942618.328    19442596.468 5  15151962.797 2
  23229751.609    -6986962.448 5  -5307650.071 5
  21277580.711   -18543264.639 7 -13368437.206 6
  21757988.891     2746472.865 7   2177134.370 8
  23360022.695    -7426740.801 5  -5565348.586 5
  20973489.469    -9164133.190 7  -6995439.624 9
  24452313.250    -1992725.707 5  -1485419.153 1
  22959189.586    -9641507.923 6  -7364412.641 6
 94  2  9  2 44  0.0000000  0  8 27 26 13  2  9  7 12  4
  23964380.766    19556949.111 5  15241068.743 3
  23240211.203    -6931973.921 6  -5264801.865 5
  21267683.258   -18595275.706 7 -13408965.288 6
  21765075.875     2783714.786 7   2206154.049 8
  23343656.234    -7512731.990 5  -5632354.679 5
  20981782.289    -9120566.036 7  -6961491.194 9
  24435808.016    -2079444.347 5  -1552992.041 1
  22942304.266    -9730255.124 6  -7433566.275 6
 94  2  9  2 44 30.0000000  0  8 27 26 13  2  9  7 12  4
  23986165.469    19671435.874 4  15330279.209 2
  23250748.313    -6876621.096 5  -5221669.794 5
  21257889.219   -18646749.208 7 -13449074.492 6
  21772197.109     2821136.849 7   2235314.094 8
  23327332.719    -7598516.014 6  -5699199.360 5
  20990133.523    -9076687.652 7  -6927300.241 9
  24419305.297    -2166155.773 5  -1620559.304 3
  22925457.000    -9818769.964 6  -7502538.855 6
 94  2  9  2 45  0.0000000  0  8 27 26 13  2  9  7 12  4
  24007973.711    19786060.119 4  15419596.798 3
  23261341.734    -6820935.391 5  -5178278.327 5
  21248191.617   -18697700.390 7 -13488776.685 7
  21779349.516     2858724.223 7   2264602.956 8
  23311046.906    -7684113.467 6  -5765898.632 5
  20998536.930    -9032506.086 7  -6892873.038 9
  24402801.414    -2252874.511 5  -1688132.278 2
  22908652.055    -9907082.548 6  -7571353.827 6
 94  2  9  2 45 30.0000000  0  8 27 26 13  2  9  7 12  4
  24029821.414    19900856.902 4  15509048.795 3
  23272000.992    -6764911.537 5  -5134623.393 5
  21238598.484   -18748111.527 7 -13528058.071 7
  21786537.563     2896498.971 7   2294037.826 8
  23294794.773    -7769510.433 6  -5832441.699 5
  21007009.688    -8987997.366 7  -6858190.923 9
  24386303.430    -2339582.428 5  -1755696.882 1
  22891886.813    -9995175.385 6  -7639997.564 6
 94  2  9  2 46  0.0000000  0  8 27 26 13  2  9  7 12  4
  24051696.992    20015837.735 3  15598644.232 2
  23282728.664    -6708539.505 5  -5090697.155 5
  21229110.422   -18797974.322 7 -13566912.166 7
  21793764.828     2934466.795 7   2323623.152 8
  23278583.414    -7854695.417 6  -5898819.567 5
  21015547.430    -8943124.745 7  -6823225.225 9
  24369812.875    -2426270.409 5  -1823245.880 2
  22875163.977   -10083061.597 6  -7708480.299 6
 94  2  9  2 46 30.0000000  0  8 27 26 13  2  9  7 12  4
  24073613.227    20131001.175 3  15688381.963 2
  23293517.000    -6651833.147 5  -5046510.389 5
  21219722.398   -18847305.930 7 -13605352.359 7
  21801022.625     2972610.384 7   2353345.430 8
  23262410.680    -7939697.850 6  -5965055.191 5
  21024153.750    -8897897.286 7  -6787983.057 9
  24353317.797    -2512954.720 5  -1890792.033 2
  22858471.125   -10170767.399 6  -7776822.459 6
 94  2  9  2 47  0.0000000  0  8 27 26 13  2  9  7 12  4
  24095573.484    20246369.369 3  15778279.247 2
  23304381.391    -6594773.502 5  -5002048.333 6
  21210438.852   -18896096.662 7 -13643371.094 7
  21808317.250     3010945.994 7   2383217.340 8
  23246268.563    -8024525.507 6  -6031154.621 5
  21032830.586    -8852305.162 7  -6752456.717 9
  24336824.406    -2599624.992 5  -1958327.275 1
  22841818.016   -10258271.366 6  -7845007.344 6
 94  2  9  2 47 30.0000000  0  8 27 26 13  2  9  7 12  4
  24117565.469    20361953.751 4  15868344.987 3
  23315309.344    -6537323.063 5  -4957281.768 6
  21201262.570   -18944327.780 7 -13680953.762 7
  21815652.813     3049490.857 7   2413252.293 8
  23230164.195    -8109141.634 5  -6097089.239 5
  21041575.656    -8806343.970 7  -6716642.798 9
  24320330.789    -2686261.365 5  -2025836.104 2
  22825218.711   -10345530.016 6  -7913001.071 5
 94  2  9  2 48  0.0000000  0  8 27 26 13  2  9  7 12  4
  24139603.234    20477732.042 5  15958561.806 2
  23326316.211    -6479496.228 5  -4912221.886 6
  21192185.852   -18992011.810 7 -13718110.134 7
  21823026.422     3088243.246 7   2443448.961 8
  23214105.469    -8193534.635 6  -6162849.982 5
  21050389.766    -8760040.155 7  -6680561.901 9
  24303851.625    -2772875.698 5  -2093327.757 2
  22808653.313   -10432550.543 6  -7980809.248 6
 94  2  9  2 48 30.0000000  0  8 27 26 13  2  9  7 12  4
  24161660.695    20593681.790 4  16048912.240 3
  23337389.578    -6421307.169 5  -4866879.772 6
  21183216.258   -19039153.254 7 -13754843.699 7
  21830440.938     3127204.735 7   2473808.567 8
  23198088.375    -8277702.150 5  -6228435.023 5
  21059261.055    -8713420.616 7  -6644234.973 9
  24287378.563    -2859471.858 5
  22792145.203   -10519315.848 6
 94  2  9  2 49  0.0000000  0  8 27 26 13  2  9  7 12  4
  24183756.789    20709778.553 4  16139377.219 3
  23348530.531    -6362759.468 5  -4821258.202 5
  21174349.078   -19085755.556 7 -13791157.160 7
  21837894.641     3166377.445 7   2504332.753 8
  23182121.484    -8361615.369 6  -6293821.908 5
  21068190.406    -8666492.823 7  -6607667.866 9
  24270896.313    -2946052.099 5
  22775683.664   -10605809.317 6  -8115816.028 6
 94  2  9  2 49 30.0000000  0  8 27 26 13  2  9  7 12  4
  24205877.953    20826021.672 5  16229956.267 3
  23359735.484    -6303863.747 5  -4775365.442 6
  21165583.297   -19131805.585 7 -13827040.280 7
  21845393.922     3205775.381 7   2535032.454 8
  23166205.234    -8445236.115 6  -6358980.899 6
  21077180.617    -8619240.766 7  -6570848.058 9
  24254424.000    -3032602.303 5
  22759287.680   -10692018.072 6  -8182991.664 6
 94  2  9  2 50  0.0000000  0  8 27 26 13  2  9  7 12  4
  24228011.500    20942378.668 4  16320624.065 4
  23371006.250    -6244660.752 5  -4729233.251 6
  21156922.117   -19177323.449 7 -13862508.731 7
  21852929.359     3245376.787 7   2565890.692 8
  23150342.430    -8528604.660 6  -6423943.369 5
  21086228.781    -8571683.155 7  -6533790.189 9
  24237955.148    -3119141.360 5        -0.04112
  22742925.172   -10777970.111 6  -8249967.257 6
 94  2  9  2 50 30.0000000  0  8 27 26 13  2  9  7 12  4
  24250186.789    21058859.764 5  16411388.514 4
  23382331.000    -6185126.320 5  -4682842.790 6
  21148366.086   -19222291.777 7 -13897548.959 7
  21860503.984     3285179.897 7   2596906.099 8
  23134526.039    -8611716.786 6  -6488706.047 5
  21095342.156    -8523805.484 7  -6496482.898 9
  24221499.195    -3205651.254 5    -67410.298 4
  22726621.688   -10863649.869 6  -8316730.674 6
 94  2  9  2 51  0.0000000  0  8 27 26 13  2  9  7 12  4
  24272368.242    21175483.418 4  16502264.057 4
  23393722.422    -6125273.280 5  -4636204.063 5
  21139912.648   -19266713.420 7 -13932163.207 7
  21868114.531     3325185.078 7   2628078.969 8
  23118759.609    -8694579.433 6  -6553274.305 5
  21104512.195    -8475620.499 7  -6458936.161 9
  24205042.547    -3292133.717 5   -134799.216 2
  22710363.500   -10949069.812 6  -8383291.647 6
 94  2  9  2 51 30.0000000  0  8 27 26 13  2  9  7 12  4
  24294603.219    21292276.728 4  16593271.819 4
  23405172.070    -6065108.568 5  -4589322.470 5
  21131565.406   -19310585.892 7 -13966349.530 7
  21875764.977     3365383.714 7   2659402.581 8
  23103034.680    -8777213.558 6  -6617664.517 6
  21113736.945    -8427129.409 7  -6421150.892 9
  24188589.609    -3378585.101 5   -202163.919 2
  22694155.938   -11034248.094 6  -8449664.305 6
 94  2  9  2 52  0.0010000  0  8 27 26 13  2  9  7 12  4
  24316858.599    21409241.610 4  16684413.247 5
  23416679.247    -6004622.676 5  -4542190.605 5
  21123316.622   -19353918.469 7 -14000115.160 7
  21883449.427     3405766.271 7   2690869.515 8
  23087345.794    -8859636.233 6  -6681889.958 6
  21123024.653    -8378340.299 7  -6383133.392 9
  24172142.317    -3465014.907 5   -269511.765 2
  22677993.325   -11119198.173 6  -8515859.136 6
 94  2  9  2 52 30.0010000  0  8 27 26 13  2  9  7 12  4
  24339153.841    21526394.774 3  16775701.391 2
  23428257.403    -5943800.520 5  -4494796.723 5
  21115177.575   -19396695.077 7 -14033447.555 6
  21891171.521     3446347.741 7   2722491.441 8
  23071713.653    -8941815.920 6  -6745926.056 5
  21132365.435    -8329232.235 7  -6344867.361 9
  24155699.810    -3551402.952 5   -336827.123 3
  22661869.138   -11203896.902 6  -8581858.116 6
 94  2  9  2 53  0.0010000  0  8 27 26 13  2  9  7 12  4
  24361481.231    21643747.539 3  16867145.092 1
  23439891.239    -5882640.326 5  -4447139.439 5
  21107145.536   -19438912.550 7 -14066344.270 7
  21898932.302     3487139.227 7   2754277.017 8
  23056116.669    -9023750.718 6  -6809771.319 6
  21141780.114    -8279787.993 7  -6306339.376 9
  24139269.825    -3637746.552 5   -404107.802 2
  22645801.513   -11288337.007 6  -8647655.566 6
 94  2  9  2 53 30.0010000  0  8 27 26 13  2  9  7 12  4
  24383849.185    21761250.685 3  16958705.961 2
  23451592.981    -5821156.176 5  -4399229.736 5
  21099213.247   -19480587.171 7 -14098817.985 6
  21906729.638     3528111.567 7   2786203.513 8
  23040569.958    -9105460.860 6  -6873441.536 6
  21151249.942    -8230011.993 7  -6267552.875 9
  24122849.747    -3724060.590 5   -471365.469 3
  22629781.661   -11372523.417 6  -8713255.340 6
 94  2  9  2 54  0.0010000  0  8 27 26 13  2  9  7 12  4
  24406225.849    21878875.111 3  17050361.326 2
  23463358.185    -5759354.711 5  -4351072.762 5
  21091386.114   -19521713.007 7 -14130864.071 7
  21914564.731     3569273.393 7   2818277.664 8
  23025065.161    -9186940.264 6  -6936931.958 6
  21160781.927    -8179906.958 7  -6228509.989 9
  24106433.552    -3810337.969 5   -538594.548 2
  22613817.896   -11456434.730 6  -8778640.739 6
 94  2  9  2 54 30.0010000  0  8 27 26 13  2  9  7 12  4
  24428630.106    21996611.244 3  17142103.752 2
  23475170.692    -5697250.962 5  -4302680.247 5
  21083666.208   -19562282.176 7 -14162476.390 7
  21922437.599     3610637.228 7   2850509.220 8
  23009603.591    -9268189.924 6  -7000243.360 6
  21170377.935    -8129481.060 7  -6189217.075 9
  24090019.028    -3896569.361 5   -605787.793 3
  22597906.333   -11540049.850 6  -8843795.343 6
 94  2  9  2 55  0.0010000  0  8 27 26 13  2  9  7 12  4
  24451057.763    22114442.500 3  17233920.292 1
  23487044.638    -5634861.588 5  -4254065.155 5
  21076053.997   -19602289.615 7 -14193651.003 7
  21930345.771     3652204.033 7   2882898.935 8
  22994187.427    -9349212.827 6  -7063378.062 6
  21180030.403    -8078756.830 7  -6149691.695 9
  24073616.145    -3982748.291 5   -672940.161 2
  22582051.575   -11623360.230 6  -8908712.499 6
 94  2  9  2 55 30.0010000  0  8 27 26 13  2  9  7 12  4
  24473487.255    22232362.964 3  17325806.371 1
  23498968.645    -5572205.861 5  -4205242.491 5
  21068544.341   -19641740.887 7 -14224392.229 7
  21938294.856     3693969.565 7   2915443.506 8
  22978810.521    -9430000.505 6  -7126329.470 6
  21189737.310    -8027749.024 7  -6109945.345 9
  24057229.013    -4068879.131 5   -740055.061 3
  22566255.989   -11706367.053 6  -8973393.103 6
 94  2  9  2 56  0.0010000  0  8 27 26 13  2  9  7 12  4
  24495956.161    22350392.571 3  17417777.470 1
  23510942.927    -5509280.828 5  -4156210.009 5
  21061145.997   -19680631.816 7 -14254696.836 7
  21946281.708     3735944.686 7   2948151.393 7
  22963488.958    -9510534.632 6  -7189083.320 5
  21199493.771    -7976465.808 7  -6069984.401 9
  24040848.013    -4154956.132 5   -807128.024 3
  22550520.591   -11789063.502 6  -9037831.858 6
 94  2  9  2 56 30.0010000  0  8 27 26 13  2  9  7 12  4
  24518434.505    22468528.258 3  17509831.231 1
  23522963.864    -5446088.852 5  -4106969.524 5
  21053846.021   -19718976.483 7 -14284575.777 7
  21954307.005     3778117.255 7   2981013.127 8
  22948210.700    -9590809.278 6  -7251634.976 6
  21209305.747    -7924924.262 7  -6029822.152 9
  24024477.802    -4240992.002 5   -874168.887 2
  22534836.599   -11871471.169 6  -9102045.591 6
 94  2  9  2 57  0.0010000  0  8 27 26 13  2  9  7 12  4
  24540938.583    22586798.591 4  17601989.930 1
  23535044.958    -5382611.743 5  -4057506.863 5
  21046658.646   -19756766.890 7 -14314022.828 7
  21962369.864     3820486.724 7   3014028.298 8
  22932989.763    -9670801.796 6  -7313966.795 6
  21219163.185    -7873108.265 7  -5989446.047 9
  24008117.153    -4326977.334 5   -941170.396 2
  22519208.513   -11953592.175 6  -9166035.956 6
 94  2  9  2 57 30.0010000  0  8 27 26 13  2  9  7 12  4
  24563476.677    22705227.257 3  17694272.011 2
  23547184.606    -5318831.447 5  -4007807.927 5
  21039568.716   -19793996.940 7 -14343033.236 7
  21970467.138     3863066.940 7   3047207.686 8
  22917823.122    -9750502.107 6  -7376070.908 6
  21229083.294    -7821000.358 7  -5948842.486 9
  23991760.661    -4412904.279 5  -1008126.449 5
  22503639.052   -12035423.487 6  -9229800.581 6
 94  2  9  2 58  0.0010000  0  8 27 26 13  2  9  7 12  4
  24586044.224    22823808.803 4  17786673.191 2
  23559376.622    -5254742.883 5  -3957868.801 5
  21032595.685   -19830661.773 7 -14371603.221 7
  21978614.239     3905875.601 7   3080565.083 8
  22902709.224    -9829924.221 6  -7437958.257 6
  21239052.481    -7768606.660 7  -5908016.222 9
  23975429.372    -4498766.648 5  -1075032.138 4
  22488119.763   -12116958.988 6  -9293334.711 6
 94  2  9  2 58 30.0010000  0  8 27 26 13  2  9  7 12  4
  24608632.036    22942532.591 3  17879185.248 1
  23571630.903    -5190359.224 5  -3907699.730 5
  21025722.536   -19866769.682 7 -14399739.237 6
  21986808.606     3948907.959 7   3114096.788 7
  22887646.552    -9909082.627 6  -7499640.116 6
  21249075.145    -7715929.596 7  -5866969.162 9
  23959097.919    -4584571.076 5  -1141892.699 3
  22472661.356   -12198208.395 6  -9356645.909 6
 94  2  9  2 59  0.0010000  0  8 27 26 13  2  9  7 12  4
  24631249.599    23061388.063 3  17971799.827 1
  23583936.177    -5125702.745 5  -3857318.062 5
  21018956.231   -19902335.000 7 -14427452.463 7
  21995034.864     3992148.784 7   3147790.937 7
  22872631.161    -9987990.663 6  -7561126.876 6
  21259151.388    -7662966.923 7  -5825699.551 9
  23942780.161    -4670330.289 5  -1208718.024 4
  22457253.442   -12279170.823 6  -9419733.489 6
 94  2  9  2 59 30.0010000  0  8 27 26 13  2  9  7 12  4
  24653896.513    23180379.214 3  18064520.202 2
  23596291.661    -5060745.474 5  -3806702.022 5
  21012296.810   -19937331.538 7 -14454722.470 7
  22003309.122     4035630.600 7   3181672.863 7
  22857670.677   -10066617.361 6  -7622394.412 6
  21269295.700    -7609686.969 7  -5784182.699 9
  23926470.919    -4756016.301 5  -1275486.294 3
  22441909.560   -12359815.578 6  -9482573.523 6
 94  2  9  3  0  0.0010000  0  8 24 26 13  2  9  7 12  4
  24524779.685          -0.59213
  23608709.067    -4995496.603 5  -3755858.755 5
  21005743.919   -19971772.139 7 -14481559.289 6
  22011625.958     4079320.554 7   3215716.982 7
  22842756.583   -10144960.772 6  -7683441.228 6
  21279488.099    -7556102.233 7  -5742428.363 9
  23910175.138    -4841640.463 5  -1342206.376 4
  22426618.130   -12440152.258 6  -9545173.506 6
 94  2  9  3  0 30.0010000  0  8 24 26 13  2  9  7 12  4
  24505197.802     -102919.466 3        -0.43611
  23621184.146    -4929955.828 5  -3704788.034 5
  20999294.138   -20005663.549 7 -14507968.164 6
  22019971.286     4123202.012 7   3249910.327 7
  22827908.396   -10223005.175 6  -7744255.031 6
  21289746.333    -7502203.976 7  -5700429.722 9
  23893895.794    -4927207.914 5  -1408882.287 4
  22411385.927   -12520192.415 6  -9607542.433 6
 94  2  9  3  1  0.0010000  0  8 24 26 13  2  9  7 12  4
  24485612.278     -205827.530 3    -80188.525 2
  23633709.731    -4864112.619 5  -3653481.657 5
  20992950.794   -20038994.639 7 -14533940.435 7
  22028364.153     4167280.662 7   3284257.324 7
  22813114.810   -10300737.483 6  -7804825.657 6
  21300062.763    -7447985.526 7  -5658181.579 9
  23877626.864    -5012705.328 5  -1475503.618 3
  22396220.786   -12599927.928 6  -9669673.970 6
 94  2  9  3  1 30.0010000  0  8 24 26 13  2  9  7 12  4
  24466038.153     -308726.628 3   -160369.598 2
  23646296.302    -4797980.195 5  -3601949.900 5
  20986713.458   -20071771.972 7 -14559481.191 6
  22036785.185     4211555.863 7   3318757.476 7
  22798378.731   -10378173.552 6  -7865165.438 6
  21310437.450    -7393475.583 7  -5615706.308 9
  23861370.505    -5098137.607 5  -1542074.196 3
  22381102.106   -12679368.736 6  -9731575.871 6
 94  2  9  3  2  0.0010000  0  8 24 26 13  2  9  7 12  4
  24446459.950     -411614.736 4   -240542.073 2
  23658936.786    -4731571.259 5  -3550202.679 5
  20980583.911   -20103992.001 7 -14584587.693 7
  22045248.271     4256031.787 7   3353414.042 7
  22783703.372   -10455316.780 6  -7925277.030 6
  21320863.474    -7338685.957 7  -5573013.085 9
  23845127.935    -5183499.786 5  -1608590.173 4
  22366034.841   -12758505.233 6  -9793240.644 6
 94  2  9  3  2 30.0010000  0  8 24 26 13  2  9  7 12  4
  24426885.036     -514469.432 4   -320688.548 3
  23671622.067    -4664888.210 5  -3498241.879 5
  20974560.208   -20135640.073 7 -14609248.509 7
  22053759.630     4300745.510 7   3388255.894 7
  22769079.685   -10532154.444 6  -7985150.525 6
  21331342.028    -7283610.739 7  -5530097.334 9
  23828893.981    -5268774.945 5  -1675038.312 3
  22351041.513   -12837312.654 6  -9854649.004 6
 94  2  9  3  3  0.0010000  0  8 24 26 13  2  9  7 12  4
  24407316.513     -617298.291 5   -400814.891 3
  23684365.786    -4597950.652 5  -3446082.745 5
  20968642.677   -20166728.808 7 -14633473.475 6
  22062310.685     4345681.709 7   3423271.118 7
  22754511.786   -10608699.969 6  -8044796.379 6
  21341870.927    -7228279.883 7  -5486982.382 9
  23812680.497    -5353973.925 5  -1741427.119 4
  22336110.575   -12915799.020 6  -9915807.181 6
 94  2  9  3  3 30.0010000  0  8 24 26 13  2  9  7 12  4
  24387753.700     -720097.258 5   -480917.952 4
  23697146.997    -4530756.487 5  -3393723.669 5
  20962834.442   -20197252.972 7 -14657258.530 6
  22070902.505     4390840.958 7   3458460.133 7
  22740002.888   -10684954.415 6  -8104215.415 6
  21352451.864    -7172691.823 7  -5443667.011 9
  23796484.716    -5439089.394 5  -1807750.817 3
  22321233.731   -12993945.031 6  -9976700.156 7
 94  2  9  3  4  0.0010000  0  8 24 26 13  2  9  7 12  4
  24368200.489     -822855.749 5   -560989.472 5
  23709986.263    -4463301.306 5  -3341161.219 5
  20957134.364   -20227213.874 7 -14680604.673 6
  22079537.450     4436223.529 7   3493823.175 7
  22725546.622   -10760921.241 6  -8163410.338 6
  21363078.521    -7116839.864 7  -5400146.003 9
  23780307.356    -5524120.980 5  -1874009.183 3
  22306431.841   -13071744.346 6 -10037322.968 6
 94  2  9  3  4 30.0010000  0  8 24 26 13  2  9  7 12  4
  24348653.153     -925581.585 5   -641035.546 4
  23722867.302    -4395590.479 5  -3288399.543 5
  20951536.114   -20256621.953 7 -14703520.044 7
  22088215.911     4481819.661 7   3529352.626 7
  22711148.208   -10836595.309 6  -8222377.134 6
  21373756.161    -7060727.327 7  -5356421.948 9
  23764139.997    -5609076.772 5  -1940208.464 5
  22291692.021   -13149204.396 6 -10097681.432 7
 94  2  9  3  5  0.0010000  0  8 24 26 13  2  9  7 12  4
  24329112.474    -1028268.227 5   -721051.042 4
  23735806.560    -4327607.706 5  -3235425.982 5
  20946049.763   -20285461.949 7 -14725992.752 6
  22096932.106     4527623.094 7   3565043.608 7
  22696799.849   -10911979.667 6  -8281118.187 6
  21384485.896    -7004334.959 7  -5312479.831 9
  23747992.278    -5693939.579 5  -2006335.304 4
  22277019.778   -13226307.911 6 -10157762.067 7
 94  2  9  3  5 30.0010000  0  8 24 26 13  2  9  7 12  4
  24309577.653    -1130934.601 5   -801050.770 4
  23748788.481    -4259386.862 5  -3182266.903 5
  20940666.864   -20313751.580 7 -14748036.606 7
  22105686.528     4573620.318 7   3600885.596 7
  22682506.185   -10987103.251 6  -8339656.023 6
  21395267.122    -6947676.748 7  -5268330.577 9
  23731858.091    -5778725.185 5  -2072402.007 5
  22262408.919   -13303062.463 6 -10217570.780 6
 94  2  9  3  6  0.0010000  0  8 24 26 13  2  9  7 12  4
  24290052.567    -1233565.353 5   -881022.746 4
  23761820.146    -4190919.694 5  -3128915.869 5
  20935391.575   -20341477.680 7 -14769641.349 6
  22114479.872     4619832.941 7   3636895.430 7
  22668266.606   -11061928.465 6  -8397961.380 6
  21406101.442    -6890744.365 7  -5223967.682 9
  23715739.224    -5863418.349 5  -2138396.652 3
  22247876.716   -13379462.488 6 -10277103.235 7
 94  2  9  3  6 30.0010000  0  8 24 26 13  2  9  7 12  4
  24270525.599    -1336171.111 5   -960975.246 4
  23774888.411    -4122230.587 5  -3075391.894 5
  20930220.825   -20368646.198 7 -14790811.605 7
  22123311.856     4666239.898 7   3673056.694 7
  22654086.841   -11136449.762 6  -8456029.918 6
  21416984.927    -6833555.222 7  -5179404.713 9
  23699642.271    -5948022.815 5  -2204322.185 5
  22233403.396   -13455521.746 6 -10336370.174 6
 94  2  9  3  7  0.0010000  0  8 24 26 13  2  9  7 12  4
  24251005.911    -1438725.848 4  -1040887.984 3
  23788002.544    -4053326.374 5  -3021700.324 5
  20925156.130   -20395254.748 7 -14811545.528 7
  22132180.427     4712849.497 7   3709375.856 7
  22639961.856   -11210677.752 6  -8513869.895 6
  21427914.989    -6776113.902 7  -5134645.233 9
  23683557.224    -6032533.939 5  -2270175.016 5
  22218989.708   -13531236.117 6 -10395368.357 6
 94  2  9  3  7 30.0010000  0  8 24 26 13  2  9  7 12  4
  24231506.755    -1541201.984 5  -1120739.453 3
  23801151.442    -3984196.667 5  -2967833.035 5
  20920201.310   -20421297.121 7 -14831838.270 6
  22141094.036     4759696.282 7   3745879.836 7
  22625898.411   -11284575.678 6  -8571452.679 6
  21438896.474    -6718414.826 7  -5089684.915 9
  23667497.435    -6116943.389 5  -2335948.574 5
  22204649.060   -13606599.689 6 -10454093.203 6
 94  2  9  3  8  0.0010000  0  8 24 26 13  2  9  7 12  4
  24212021.114    -1643597.725 5  -1200528.320 3
  23814355.896    -3914834.949 5  -2913784.952 5
  20915352.521   -20446778.025 7 -14851693.514 6
  22150052.544     4806778.650 6   3782567.396 7
  22611899.060   -11358132.552 6  -8628769.707 6
  21449920.974    -6660470.143 7  -5044533.208 9
  23651451.239    -6201253.696 5  -2401644.909 4
  22190377.028   -13681616.223 6 -10512547.621 7
 94  2  9  3  8 30.0010000  0  8 24 26 13  2  9  7 12  4
  24192547.802    -1745910.698 4  -1280252.667 3
  23827595.685    -3845243.700 5  -2859558.020 5
  20910612.474   -20471698.249 7 -14871111.855 6
  22159056.567     4854093.384 6   3819436.015 7
  22597967.005   -11431359.314 6  -8685829.513 6
  21460996.005    -6602275.520 7  -4999186.743 9
  23635430.192    -6285463.180 5  -2467262.675 4
  22176168.013   -13756272.534 6 -10570721.341 7
 94  2  9  3  9  0.0010000  0  8 24 26 13  2  9  7 12  4
  24173102.958    -1848142.435 4  -1359913.711 4
  23840888.653    -3775404.242 5  -2805137.685 5
  20905974.286   -20496052.604 7 -14890089.262 6
  22168109.622     4901662.357 7   3856502.743 7
  22584096.692   -11504254.203 6  -8742630.711 6
  21472120.130    -6543819.322 7  -4953636.467 9
  23619426.396    -6369564.440 5  -2532796.106 5
  22162033.841   -13830549.004 6 -10628599.093 7
 94  2  9  3  9 30.0010000  0  8 24 26 13  2  9  7 12  4
  24153654.497    -1950330.408 4  -1439540.642 3
  23854226.466    -3705324.105 5  -2750529.788 5
  20901448.981   -20519848.220 7 -14908631.288 6
  22177205.528     4949466.680 6   3893752.854 7
  22570287.474   -11576815.070 6  -8799171.625 6
  21483290.395    -6485117.164 7  -4907894.514 9
  23603438.161    -6453562.601 5  -2598249.218 4
  22147972.521   -13904453.128 6 -10686186.697 7
 94  2  9  3 10  0.0010000  0  8 24 26 13  2  9  7 12  4
  24134205.646    -2052493.776 4  -1519148.431 3
  23867598.005    -3635022.725 5  -2695749.518 5
  20897022.411   -20543094.814 7 -14926745.506 6
  22186339.536     4997477.195 6   3931163.647 7
  22556540.036   -11649056.882 6  -8855463.928 6
  21494506.950    -6426185.826 7  -4861973.991 9
  23587473.716    -6537464.499 5  -2663627.313 5
  22133977.669   -13977991.853 6 -10743489.581 7
 94  2  9  3 10 30.0010000  0  8 24 26 13  2  9  7 12  4
  24114766.841    -2154604.457 4  -1598715.173 4
  23881021.567    -3564488.126 5  -2640787.515 5
  20892707.200   -20565775.867 7 -14944419.044 6
  22195515.911     5045705.082 6   3968743.804 7
  22542854.841   -11720965.621 6  -8911496.714 6
  21505766.942    -6367005.206 7  -4815859.220 9
  23571528.638    -6621251.402 5  -2728915.801 5
  22120059.169   -14051145.825 6 -10800492.657 7
 94  2  9  3 11  0.0010000  0  8 24 26 13  2  9  7 12  4
  24095353.638    -2256663.997 5  -1678242.050 4
  23894487.817    -3493722.433 5  -2585645.407 5
  20888497.333   -20587900.815 7 -14961659.253 6
  22204734.372     5094140.685 6   4006485.832 7
  22529233.239   -11792547.233 6  -8967274.573 6
  21517076.192    -6307592.975 7  -4769563.981 9
  23555606.216    -6704930.339 5  -2794120.138 4
  22106210.646   -14123925.448 6 -10857204.030 7
 94  2  9  3 11 30.0010000  0  8 24 26 13  2  9  7 12  4
  24075946.224    -2358658.864 5  -1757718.523 4
  23907994.771    -3422739.069 5  -2530333.710 5
  20884390.552   -20609474.954 7 -14978470.255 6
  22213990.599     5142767.437 6   4044376.801 7
  22515675.669   -11863797.456 6  -9022794.219 6
  21528423.403    -6247952.260 7  -4723090.688 9
  23539705.333    -6788504.173 6  -2859242.590 5
  22092431.677   -14196336.052 6 -10913627.861 7
 94  2  9  3 12  0.0010000  0  8 24 26 13  2  9  7 12  4
  24056561.841    -2460542.436 5  -1837108.268 4
  23921554.950    -3351511.324 5  -2474831.579 5
  20880393.388   -20630478.596 7 -14994836.724 6
  22223285.231     5191611.274 6   4082436.926 7
  22502184.403   -11934690.746 6  -9078035.725 6
  21539817.552    -6188051.233 7  -4676414.565 9
  23523821.833    -6871950.465 5  -2924265.653 5
  22078730.294   -14268345.610 6 -10969739.185 7
 94  2  9  3 12 30.0010000  0  8 24 26 13  2  9  7 12  4
  24037195.263    -2562318.061 5  -1916413.929 4
  23935150.395    -3280047.327 5  -2419145.334 5
  20876505.497   -20650916.725 7 -15010762.524 6
  22232618.646     5240671.565 6   4120665.719 7
  22488762.192   -12005231.061 6  -9133002.195 6
  21551271.036    -6127882.736 7  -4629530.024 9
  23507966.138    -6955271.988 6  -2989191.510 5
  22065097.622   -14339960.092 6 -11025542.651 7
 94  2  9  3 13  0.0010000  0  8 24 26 13  2  9  7 12  4
  24017841.653    -2663999.088 5  -1995645.901 4
  23948795.138    -3208362.465 5  -2363287.001 5
  20872723.755   -20670788.598 7 -15026247.087 6
  22241997.841     5289957.619 6   4159070.432 7
  22475407.497   -12075407.132 6  -9187684.829 6
  21562772.614    -6067446.394 7  -4582436.770 9
  23492132.958    -7038465.183 5  -3054017.349 5
  22051543.364   -14411183.331 6 -11081041.263 7
 94  2  9  3 13 30.0010000  0  8 24 26 13  2  9  7 12  4
  23998511.231    -2765607.530 5  -2074821.275 5
  23962471.005    -3136484.979 5  -2307278.589 5
  20869046.856   -20690108.190 7 -15041301.311 6
  22251419.224     5339455.401 6   4197640.131 7
  22462124.294   -12145217.133 6  -9242082.223 6
  21574319.880    -6006759.725 7  -4535148.456 9
  23476327.021    -7121541.537 6  -3118752.160 5
  22038064.489   -14482039.392 6 -11136253.746 7
 94  2  9  3 14  0.0010000  0  8 24 26 13  2  9  7 12  4
  23979186.638    -2867141.060 5  -2153938.258 5
  23976188.739    -3064407.673 5  -2251114.468 5
  20865479.388   -20708863.132 7 -15055915.536 6
  22260879.200     5389183.439 6   4236389.238 7
  22448911.989   -12214642.493 6  -9296179.898 6
  21585914.630    -5945818.469 7  -4487661.758 9
  23460539.466    -7204486.051 6  -3183384.225 5
  22024654.153   -14552522.050 6 -11191175.283 7
 94  2  9  3 14 30.0010000  0  8 24 26 13  2  9  7 12  4
  23959869.224    -2968631.743 5  -2233021.855 5
  23989930.388    -2992161.692 5  -2194818.907 4
  20862013.450   -20727075.545 7 -15070107.021 6
  22270383.263     5439126.750 6   4275306.102 7
  22435771.521   -12283702.085 6  -9349992.557 6
  21597555.349    -5884661.115 7  -4440006.681 9
  23444783.466    -7287318.088 6  -3247928.673 5
  22011302.645   -14622660.390 6 -11245828.518 7
 94  2  9  3 15  0.0010000  0  8 24 26 13  2  9  7 12  4
  23940569.716    -3070068.717 5  -2312063.655 4
  24003715.896    -2919732.927 5  -2138380.907 5
  20858653.091   -20744735.397 7 -15083867.937 6
  22279931.231     5489299.261 6   4314401.559 7
  22422699.231   -12352394.190 6  -9403518.865 6
  21609233.403    -5823294.191 7  -4392188.299 9
  23429041.458    -7370024.955 6  -3312375.527 5
  21998024.536   -14692436.491 6 -11300199.482 7
 94  2  9  3 15 30.0010000  0  8 24 26 13  2  9  7 12  4
  23921282.419    -3171437.931 5  -2391052.632 4
  24017538.216    -2847114.232 5  -2081794.906 5
  20855395.849   -20761843.989 7 -15097199.291 6
  22289523.786     5539693.218 6   4353669.574 7
  22409694.216   -12420738.218 6  -9456773.935 7
  21620949.231    -5761714.071 7  -4344203.789 9
  23413327.239    -7452605.344 6  -3376723.901 5
  21984818.575   -14761833.830 6 -11354275.313 7
 94  2  9  3 16  0.0010000  0  8 24 26 13  2  9  7 12  4
  23902005.638    -3272714.960 4  -2469969.784 3
  24031391.450    -2774300.601 5  -2025057.043 5
  20852248.349   -20778389.295 7 -15110091.731 6
  22299159.770     5590331.864 6   4393128.254 7
  22396751.692   -12488745.017 6  -9509766.249 6
  21632709.427    -5699904.345 7  -4296040.367 9
  23397640.888    -7535044.327 6  -3440962.016 5
  21971690.356   -14830819.008 6 -11408029.974 7
 94  2  9  3 16 30.0010000  0  8 24 26 13  2  9  7 12  4
  23882751.106    -3373894.887 5  -2548811.233 4
  24045279.606    -2701309.453 5  -1968180.825 5
  20849204.286   -20794388.059 7 -15122558.290 7
  22308835.013     5641194.754 6   4432761.672 7
  22383869.513   -12556443.027 6  -9562517.934 6
  21644515.325    -5637884.320 7  -4247713.071 9
  23381974.724    -7617355.979 6  -3505100.961 5
  21958638.396   -14899399.747 6 -11461469.499 7
 94  2  9  3 17  0.0010000  0  8 24 26 13  2  9  7 12  4
  23863525.802    -3474947.427 5  -2627553.445 5
  24059208.231    -2628139.092 5  -1911164.954 5
  20846265.255   -20809825.265 7 -15134587.274 6
  22318559.614     5692288.343 6   4472574.847 7
  22371046.786   -12623817.818 6  -9615017.764 7
  21656361.794    -5575630.927 7  -4199203.941 9
  23366342.521    -7699522.454 6  -3569126.751 5
  21945672.802   -14967551.442 6 -11514574.688 7
 94  2  9  3 17 30.0010000  0  8 24 26 13  2  9  7 12  4
  23844322.060    -3575877.132 5  -2706199.922 5
  24073162.419    -2554812.071 5  -1854027.048 5
  20843433.052   -20824717.304 7 -15146191.451 6
  22328326.528     5743600.386 6   4512558.255 7
  22358290.145   -12690865.734 6  -9667262.889 7
  21668247.911    -5513164.962 7  -4150529.158 9
  23350730.739    -7781557.174 6  -3633049.912 5
  21932781.849   -15035292.763 6 -11567360.113 7
 94  2  9  3 18  0.0010000  0  8 24 26 13  2  9  7 12  4
  23825136.739    -3676673.683 5  -2784742.660 4
  24087149.560    -2481320.084 5  -1796760.552 5
  20840704.341   -20839053.245 7 -15157362.312 6
  22338133.497     5795146.094 6   4552723.739 7
  22345600.130   -12757555.201 6  -9719228.702 7
  21680173.763    -5450487.713 7  -4101689.749 9
  23335144.263    -7863446.373 6  -3696859.654 5
  21919965.755   -15102619.001 6 -11619822.096 7
 94  2  9  3 18 30.0010000  0  8 24 26 13  2  9  7 12  4
  23805983.872    -3777333.410 5  -2863178.783 5
  24101163.271    -2407659.512 5  -1739362.723 4
  20838082.778   -20852833.216 7 -15168099.944 6
  22347984.810     5846918.515 6   4593065.888 7
  22332978.950   -12823867.967 6  -9770900.977 7
  21692142.239    -5387593.517 7  -4052681.278 9
  23319595.294    -7945187.247 6  -3760553.829 5
  21907234.653   -15169529.144 6 -11671959.851 7
 94  2  9  3 19  0.0010000  0  8 24 26 13  2  9  7 12  4
  23786846.966    -3877875.947 5  -2941523.607 5
  24115206.958    -2333844.331 5  -1681844.418 5
  20835565.146   -20866069.773 7 -15178414.137 6
  22357877.685     5898908.841 6   4633577.824 7
  22320433.044   -12889805.473 6  -9822280.847 7
  21704150.466    -5324496.681 7  -4003514.917 9
  23304063.060    -8026789.460 6  -3824139.955 5
  21894582.419   -15236023.061 6 -11723773.278 7
 94  2  9  3 19 30.0010000  0  8 24 26 13  2  9  7 12  4
  23767743.653    -3978291.276 5  -3019769.289 5
  24129287.146    -2259856.651 5  -1624191.683 4
  20833151.028   -20878753.379 7 -15188297.458 6
  22367814.833     5951131.845 6   4674271.064 7
  22307957.724   -12955351.110 6  -9873355.368 7
  21716197.419    -5261191.065 7  -3954185.864 9
  23288563.185    -8108240.528 6  -3887608.316 5
  21882010.747   -15302085.306 6 -11775250.340 7
 94  2  9  3 20  0.0010000  0  8 24 26 13  2  9  7 12  4
  23748657.161    -4078580.515 5  -3097916.727 5
  24143404.364    -2185699.696 5  -1566407.067 4
  20830841.091   -20890887.313 7 -15197752.461 6
  22377795.591     6003570.544 6   4715132.390 7
  22295560.606   -13020507.719 6  -9924126.749 7
  21728281.989    -5197671.100 7  -3904689.790 9
  23273096.739    -8189540.335 6  -3950958.799 5
  21869522.935   -15367703.117 6 -11826381.085 7
 94  2  9  3 20 30.0010000  0  8 24 26 13  2  9  7 12  4
  23729595.052    -4178731.763 5  -3175956.668 4
  24157547.497    -2111359.922 5  -1508479.978 5
  20828638.989   -20902457.964 7 -15206768.545 6
  22387818.419     6056234.591 6   4756169.296 6
  22283241.552   -13085255.318 6  -9974579.414 7
  21740414.114    -5133916.996 7  -3855011.266 9
  23257656.177    -8270672.562 6  -4014178.717 5
  21857128.427   -15432858.293 6 -11877151.331 7
 94  2  9  3 21  0.0010000  0  8 24 26 13  2  9  7 12  4
  23710559.075    -4278766.009 5  -3253905.385 5
  24171723.997    -2036843.222 5  -1450415.024 4
  20826542.317   -20913477.582 7 -15215355.257 6
  22397878.263     6109112.288 6   4797372.693 7
  22270996.927   -13149603.494 6 -10024720.846 7
  21752589.005    -5069952.923 7  -3805169.128 9
  23242245.208    -8351646.525 6  -4077275.297 5
  21844813.489   -15497568.085 6 -11927574.536 7
 94  2  9  3 21 30.0010000  0  8 24 26 13  2  9  7 12  4
  23691546.724    -4378689.269 5  -3331767.643 5
  24185937.552    -1962150.147 5  -1392212.640 3
  20824550.997   -20923942.442 7 -15223509.684 6
  22407984.599     6162219.124 6   4838754.629 6
  22258828.403   -13213545.215 6 -10074545.561 7
  21764802.060    -5005774.358 7  -3755159.860 9
  23226866.388    -8432455.130 6  -4140243.029 5
  21832588.505   -15561836.368 6 -11977653.704 7
 94  2  9  3 22  0.0010000  0  8 24 26 13  2  9  7 12  4
  23672551.146    -4478517.765 5  -3409556.029 5
  24200183.856    -1887289.602 5  -1333879.762 3
  20822662.755   -20933862.613 7 -15231239.671 6
  22418132.841     6215550.194 6   4880311.310 6
  22246733.052   -13277095.377 6 -10124065.176 7
  21777054.442    -4941388.204 7  -3704988.829 9
  23211520.333    -8513105.399 6  -4203087.413 5
  21820440.263   -15625688.763 6 -12027408.797 7
 94  2  9  3 22 30.0010000  0  8 24 26 13  2  9  7 12  4
  23653574.942    -4578240.051 5  -3487261.657 5
  24214465.263    -1812255.612 5  -1275411.725 4
  20820879.763   -20943229.943 7 -15238538.884 6
  22428331.622     6269142.777 6   4922071.758 6
  22234710.849   -13340254.518 6 -10173280.080 7
  21789344.692    -4876792.694 7  -3654654.672 9
  23196203.083    -8593586.097 6  -4265799.637 5
  21808360.685   -15689136.981 6 -12076848.949 7
 94  2  9  3 23  0.0010000  0  8 24 26 13  2  9  7 12  4
  23634619.521    -4677852.333 5  -3564881.578 5
  24228778.310    -1737048.241 5  -1216808.586 4
  20819203.263   -20952047.615 7 -15245409.786 6
  22438583.114     6323006.612 6   4964043.564 6
  22222769.271   -13403031.746 6 -10222197.401 7
  21801674.411    -4812004.035 7  -3604170.001 9
  23180923.091    -8673897.247 6  -4328379.747 5
  21796361.185   -15752189.194 6 -12125980.533 7
 94  2  9  3 23 30.0010000  0  8 24 26 13  2  9  7 12  4
  23615692.294    -4777327.316 5  -3642394.513 5
  24243114.614    -1661668.504 5  -1158071.136 3
  20817630.661   -20960307.103 7 -15251845.751 6
  22448887.739     6377155.695 6   5006237.654 6
  22210898.419   -13465422.197 6 -10270813.333 7
  21814041.810    -4747008.509 7  -3553524.136 9
  23165677.192    -8754026.611 6  -4390818.217 5
  21784434.286   -15814831.784 6 -12174792.924 7
 94  2  9  3 24  0.0010000  0  8 24 26 13  2  9  7 12  4
  23596785.833    -4876668.032 5  -3719802.852 5
  24257488.442    -1586144.631 5  -1099221.379 5
  20816160.005   -20968028.759 7 -15257862.616 6
  22459240.317     6431551.349 6   5048623.871 6
  22199093.833   -13527440.906 6 -10319139.607 7
  21826447.896    -4681818.069 7  -3502726.390 9
  23150459.231    -8833991.668 6  -4453128.656 5
  21772592.388   -15877078.742 6 -12223297.037 7
 94  2  9  3 24 30.0010000  0  8 24 26 13  2  9  7 12  4
  23577913.372    -4975866.157 5  -3797100.069 5
  24271884.450    -1510490.878 4  -1040270.395 3
  20814793.974   -20975216.630 7 -15263463.543 6
  22469632.841     6486171.854 6   5091185.295 6
  22187365.692   -13589081.186 6
  21838887.716    -4616444.894 7  -3451786.259 9
  23135270.450    -8913793.688 6  -4515312.042 5
  21760829.435   -15938901.211 6
 94  2  9  3 25  0.0010000  0  8 24 26 13  2  9  7 12  4
  23559066.317    -5074903.769 5  -3874272.190 5
  24286299.731    -1434706.022 4   -981217.288 3
  20813529.888   -20981858.645 7 -15268639.129 6
  22480066.231     6540993.572 6   5133903.515 6
  22175711.294   -13650322.744 6
  21851364.349    -4550874.811 7  -3400692.681 9
  23120121.208    -8993416.432 6  -4577355.741 5
  21749155.942   -16000258.777 6
 94  2  9  3 25 30.0010000  0  8 24 26 13  2  9  7 12  4
  23540245.192    -5173779.854 5  -3951318.441 5
  24300751.075    -1358823.385 4   -922087.972 4
  20812369.770   -20987966.354 7 -15273398.376 6
  22490530.239     6595994.687 6   5176761.517 6
  22164134.677   -13711163.710 6
  21863880.833    -4485104.709 7  -3349443.254 9
  23105003.856    -9072868.704 6  -4639266.609 5
  21737568.356   -16061148.298 6
 94  2  9  3 26  0.0010000  0  8 24 26 13  2  9  7 12  4
  23521464.083    -5272472.635 5  -4028221.865 5
  24315212.028    -1282819.615 4   -862864.274 5
  20811309.927   -20993525.483 7 -15277730.153 6
  22501032.044     6651185.324 6   5219767.195 6
  22152635.927   -13771578.665 6
  21876432.849    -4419126.146 7  -3298031.392 9
  23089920.692    -9152132.608 6  -4701030.695 5
  21726076.513   -16121552.249 6
 94  2  9  3 26 30.0010000  0  8 24 26 13  2  9  7 12  4
  23502719.083    -5370994.449 5  -4104992.071 5
  24329698.513    -1206700.503 4   -803550.695 5
  20810354.255   -20998551.796 7 -15281646.756 6
  22511571.989     6706567.180 6   5262921.878 6
  22141217.981   -13831583.535 6
  21889026.427    -4352964.322 7  -3246476.719 9
  23074867.052    -9231220.614 6  -4762657.702 5
  21714670.364   -16181484.022 6
 94  2  9  3 27  0.0010000  0  8 24 26 13  2  9  7 12  4
  23484002.231    -5469337.860 5  -4181623.303 5
  24344204.349    -1130452.339 3   -744136.557 4
  20809501.481   -21003031.087 7 -15285137.110 6
  22522152.450     6762180.822 6   5306257.177 6
  22129880.481   -13891163.924 6
  21901656.028    -4286593.123 7  -3194758.905 9
  23059853.216    -9310115.191 6  -4824133.996 6
  21703354.935   -16240948.002 6
 94  2  9  3 27 30.0010000  0  8 24 26 13  2  9  7 12  4
  23465328.411    -5567502.636 5  -4258115.296 5
  24358741.028    -1054066.895 4   -684615.462 4
  20808752.317   -21006960.382 7 -15288198.887 6
  22532788.575     6818060.774 6   5349799.981 6
  22118628.599   -13950308.593 6
  21914325.747    -4220012.939 7  -3142878.238 9
  23044880.341    -9388809.567 6  -4885454.288 5
  21692121.341   -16299948.784 6
 94  2  9  3 28  0.0010000  0  8 24 26 13  2  9  7 12  4
  23446668.310    -5665539.846 5  -4334507.894 5
  24373304.536     -977582.117 4   -625016.952 4
  20808101.653   -21010377.814 7 -15290861.815 6
  22543465.528     6874170.943 6   5393522.184 6
  22107444.755   -14009064.793 6 -10694430.950 7
  21927028.044    -4153268.866 7  -3090869.871 9
  23029935.724    -9467338.686 6  -4946645.813 6
  21680976.739   -16358523.707 6 -12598448.855 8
 94  2  9  3 28 30.0010000  0  8 24 26 13  2  9  7 12  4
  23428045.091    -5763424.289 5  -4410781.437 5
  24387866.208     -900985.768 3   -565331.494 5
  20807555.286   -21013247.237 7 -15293097.719 6
  22554192.333     6930557.395 6   5437459.674 6
  22096342.505   -14067405.223 6 -10739891.025 7
  21939766.880    -4086325.117 7  -3038705.908 9
  23015031.919    -9545662.805 6  -5007677.590 6
  21669918.981   -16416632.830 6 -12643728.682 8
 94  2  9  3 29  0.0010000  0  8 24 26 13  2  9  7 12  4
  23409445.036    -5861175.413 5  -4486951.119 5
  24402459.567     -824310.502 3   -505584.551 4
  20807108.278   -21015596.775 7 -15294928.525 6
  22564968.302     6987192.232 6   5481590.707 6
  22085313.950   -14125355.445 6 -10785047.045 7
  21952537.403    -4019214.121 7  -2986411.626 9
  23000159.427    -9623806.754 6  -5068568.982 6
  21658949.263   -16474294.991 6 -12688660.225 8
 94  2  9  3 29 30.0010000  0  8 24 26 13  2  9  7 12  4
  23390876.763    -5958753.099 5  -4562985.654 5
  24417079.552     -747526.218 5   -445752.681 3
  20806767.294   -21017402.714 7 -15296335.738 6
  22575799.513     7044084.246 6   5525922.138 6
  22074366.505   -14182891.212 6 -10829880.108 7
  21965340.841    -3951921.792 7  -2933976.051 8
  22985334.677    -9701742.846 6  -5129298.396 6
  21648067.216   -16531483.729 6 -12733222.860 8
 94  2  9  3 30  0.0010000  0  8 24 26 13  2  9  7 12  4
  23372335.802    -6056150.858 5  -4638879.978 5
  24431703.583     -670639.263 4   -385840.753 4
  20806523.606   -21018676.605 7 -15297328.373 6
  22586672.591     7101215.085 6   5570439.668 6
  22063495.200   -14240021.287 6 -10874397.048 7
  21978179.489    -3884458.534 7  -2881407.275 8
  22970537.817    -9779479.191 6  -5189872.167 6
  21637271.919   -16588206.169 6 -12777422.154 8
 94  2  9  3 30 30.0010000  0  8 24 26 13  2  9  7 12  4
  23353844.153    -6153356.517 5  -4714624.616 6
  24446357.677     -593633.384 4   -325836.175 4
  20806379.505   -21019418.994 7 -15297906.855 6
  22597587.864     7158592.139 6   5615149.055 6
  22052705.161   -14296735.290 6 -10918589.780 7
  21991052.505    -3816826.436 7  -2828706.945 8
  22955780.474    -9857012.975 6  -5250288.094 6
  21626564.770   -16644455.401 6 -12821252.715 8
 94  2  9  3 31  0.0010000  0  8 24 26 13  2  9  7 12  4
  23335383.692    -6250360.984 5  -4790212.469 5
  24461044.130     -516492.443 5   -265726.381 3
  20806341.544   -21019629.086 7
  22608551.950     7216206.600 6   5660043.435 6
  22041992.294   -14353013.031 6 -10962442.570 7
  22003952.794    -3749023.406 7  -2775873.408 8
  22941067.380    -9934339.481 6  -5310542.510 6
  21615955.177   -16700223.251 6 -12864708.163 8
 94  2  9  3 31 30.0010000  0  8 24 26 13  2  9  7 12  4
  23316957.950    -6347184.324 5  -4865659.195 6
  24475737.966     -439241.700 4   -205531.015 3
  20806402.364   -21019321.662 7
  22619555.817     7274033.160 6   5705103.080 6
  22031367.724   -14408852.777 6 -11005954.053 7
  22016883.497    -3681072.525 7  -2722924.679 8
  22926391.575   -10011470.267 6  -5370644.418 6
  21605430.317   -16755532.278 6 -12907806.094 8
 94  2  9  3 32  0.0010000  0  8 24 26 13  2  9  7 12  4
  23298567.372    -6443819.381 5  -4940959.216 5
  24490453.669     -361886.145 3   -145253.956 3
  20806559.239   -21018484.605 7 -15297178.741 6
  22630602.294     7332084.929 6   5750338.222 6
  22020830.216   -14464231.176 6 -11049106.054 7
  22029841.739    -3612972.023 6  -2669859.356 8
  22911757.325   -10088388.868 6  -5430580.980 6
  21594994.185   -16810353.516 6 -12950523.924 8
 94  2  9  3 32 30.0010000  0  8 24 26 13  2  9  7 12  4
  23280213.286    -6540280.165 5  -5016123.424 5
  24505198.981     -284440.432 4    -84906.677 3
  20806819.481   -21017113.257 7 -15296110.155 6
  22641691.661     7390349.964 6   5795739.530 6
  22010378.255   -14519146.930 6 -11091897.543 7
  22042831.185    -3544719.693 7  -2616675.727 8
  22897156.411   -10165087.469 6  -5490346.116 6
  21584658.771   -16864686.944 6 -12992861.653 8
 94  2  9  3 33  0.0010000  0  8 24 26 13  2  9  7 12  4
  23261890.349    -6636576.330 5  -5091159.394 5
  24519947.146     -206939.336 4    -24516.232 5
  20807180.833   -21015217.880 7 -15294633.233 6
  22652814.966     7448814.028 6   5841295.937 6
  22000017.005   -14573607.854 6 -11134334.631 7
  22055844.802    -3476323.285 7  -2563379.826 8
  22882605.044   -10241572.248 6  -5549944.651 6
  21574404.622   -16918549.001 6 -13034832.072 8
 94  2  9  3 33 30.0010000  0  8 24 26 13  2  9  7 12  4
  23243598.419    -6732704.976 5  -5166064.801 5
  24534699.224     -129394.616 3     35908.236 3
  20807643.755   -21012800.954 7 -15292749.905 6
  22663979.653     7507485.719 6   5887014.127 6
  21989734.458   -14627630.257 6 -11176430.003 7
  22068889.653    -3407777.539 6  -2509967.557 8
  22868096.286   -10317842.109 6  -5609375.695 6
  21564247.044   -16971940.485 6 -13076435.812 8
 94  2  9  3 34  0.0010000  0  8 24  5 13  2  9  7 12  4
  23225335.021    -6828661.865 5  -5240836.374 5
  24512782.833          -0.73414
  20808201.841   -21009859.508 7 -15290457.862 6
  22675190.052     7566382.223 6   5932907.496 6
  21979537.825   -14681231.738 6 -11218197.386 7
  22081966.317    -3339054.508 6  -2456417.148 8
  22853619.716   -10393890.282 6  -5668634.017 6
  21554178.294   -17024839.096 6 -13117655.497 8
 94  2  9  3 34 30.0010000  0  8 24  5 13  2  9  7 12  4
  23207111.966    -6924433.371 5  -5315463.500 6
  24498414.286      -75485.719 4
  20808862.739   -21006389.805 7 -15287754.195 6
  22686443.005     7625529.590 6   5978996.341 6
  21969416.646   -14734409.456 6 -11259634.570 7
  22095083.513    -3270128.267 6  -2402708.389 8
  22839190.661   -10469709.227 6  -5727713.700 6
  21544210.138   -17077242.474 6 -13158489.284 8
 94  2  9  3 35  0.0010000  0  8 24  5 13  2  9  7 12  4
  23188920.138    -7020018.298 5  -5389945.245 6
  24484049.872     -150999.864 3
  20809619.216   -21002406.809 7 -15284650.555 6
  22697745.810     7684937.989 6   6025288.593 6
  21959376.622   -14787164.069 6 -11300742.054 7
  22108234.075    -3201015.661 6  -2348854.411 8
  22824809.927   -10545310.025 6
  21534329.325   -17129153.888 6 -13198939.725 8
 94  2  9  3 35 30.0010000  0  8 24  5 13  2  9  7 12  4
  23170770.052    -7115398.520 5  -5464267.472 5
  24469673.302     -226540.210 4        -0.45514
  20810476.349   -20997902.220 7 -15281140.486 6
  22709107.466     7744617.300 6   6071791.951 6
  21949418.599   -14839487.533 6 -11341513.579 8
  22121420.997    -3131718.279 6  -2294856.453 8
  22810461.911   -10620680.615 6  -5845353.725 6
  21524548.669   -17180564.671 6 -13239000.063 8
 94  2  9  3 36  0.0010000  0  8 24  5 13  2  9  7 12  4
  23152663.903    -7210575.173 5  -5538431.065 6
  24455296.778     -302103.995 5    -58881.288 4
  20811431.028   -20992883.436 7 -15277229.735 6
  22720511.583     7804559.740 6   6118500.336 6
  21939548.278   -14891370.421 6 -11381941.803 7
  22134640.044    -3062247.913 6  -2240723.698 8
  22796166.583   -10695824.463 6  -5903907.367 6
  21514854.146   -17231493.072 6 -13278684.523 8
 94  2  9  3 36 30.0010000  0  8 24  5 13  2  9  7 12  4
  23134590.067    -7305532.949 5  -5612424.113 5
  24440914.739     -377686.049 4   -117776.385 2
  20812485.450   -20987349.374 7 -15272917.473 6
  22731968.646     7864761.971 6   6165411.159 6
  21929762.481   -14942787.306 6 -11422006.901 7
  22147890.755    -2992618.278 6  -2186466.843 8
  22781908.153   -10770736.567 6  -5962280.436 6
  21505254.888   -17281957.142 6 -13318007.163 8
 94  2  9  3 37  0.0010000  0  8 24  5 13  2  9  7 12  4
  23116561.622    -7400266.344 5  -5686242.329 6
  24426525.200     -453300.234 4   -176696.546 2
  20813635.114   -20981303.023 7 -15268206.029 6
  22743471.130     7925213.873 6   6212516.523 6
  21920063.458   -14993741.233 6 -11461711.251 8
  22161168.614    -2922847.061 7  -2132099.658 8
  22767699.802   -10845416.001 6  -6020472.198 6
  21495739.021   -17331957.387 6 -13356968.384 8
 94  2  9  3 37 30.0010000  0  8 24  5 13  2  9  7 12  4
  23098584.630    -7494755.975 5  -5759870.602 6
  24412129.692     -528933.598 4   -235631.631 3
  20814884.653   -20974739.195 7 -15263091.355 6
  22755024.044     7985920.094 6   6259820.064 6
  21910464.864   -15044224.616 6 -11501048.948 7
  22174477.185    -2852919.506 6  -2077610.656 8
  22753533.669   -10919853.551 6  -6078475.477 6
  21486309.888   -17381483.234 6 -13395559.944 8
 94  2  9  3 38  0.0010000  0  8 24  5 13  2  9  7 12  4
  23080650.989    -7588994.311 5  -5833303.063 6
  24397730.278     -604590.976 4   -294585.396 4
  20816232.653   -20967653.031 7 -15257569.665 6
  22766628.442     8046893.112 6   6307331.504 6
  21900944.247   -15094225.841 6 -11540010.934 8
  22187813.630    -2782823.375 6  -2022990.297 8
  22739415.888   -10994040.547 6  -6136283.513 6
  21476986.349   -17430509.834 6 -13433762.481 8
 94  2  9  3 38 30.0010000  0  8 24  5 13  2  9  7 12  4
  23062762.192    -7682994.109 5  -5906549.629 6
  24383324.552     -680291.877 4   -353573.097 5
  20817678.130   -20960054.338 7 -15251648.599 6
  22778279.927     8108121.122 6   6355041.633 6
  21891518.794   -15143759.846 6 -11578608.854 8
  22201179.778    -2712577.282 6  -1968253.087 8
  22725348.646   -11067982.745 6  -6193900.799 6
  21467755.302   -17479015.970 6 -13471559.451 8
 94  2  9  3 39  0.0010000  0  8 24  5 13  2  9  7 12  4
  23044920.700    -7776762.602 5  -5979615.972 6
  24368913.794     -756022.935 4   -412584.276 5
  20819221.200   -20951946.197 7 -15245330.563 6
  22789974.614     8169597.498 6   6402945.287 6
  21882181.395   -15192835.232 6 -11616849.411 8
  22214575.302    -2642188.193 6  -1913404.447 8
  22711320.442   -11141679.009 6  -6251326.449 6
  21458626.677   -17526981.778 6 -13508935.397 8
 94  2  9  3 39 30.0010000  0  8 24  5 13  2  9  7 12  4
  23027112.708    -7870322.223 5  -6052519.556 6
  24354499.396     -831775.293 4   -471612.065 3
  20820861.317   -20943330.773 7 -15238617.242 6
  22801716.513     8231304.581 6   6451028.722 6
  21872928.622   -15241448.231 6 -11654729.667 8
  22227998.567    -2571648.812 6  -1858438.687 8
  22697342.286   -11215127.608 6  -6308559.118 6
  21449604.310   -17574412.448 6 -13545894.358 8
 94  2  9  3 40  0.0010000  0  8 24  5 13  2  9  7 12  4
  23009345.396    -7963688.583 5  -6125272.566 6
  24340083.224     -907547.448 4   -530655.284 2
  20822595.614   -20934212.609 7 -15231512.169 6
  22813500.458     8293228.547 6   6499281.145 6
  21863765.060   -15289603.278 6 -11692253.071 8
  22241449.341    -2500966.661 6  -1803361.697 8
  22683410.661   -11288329.134 6  -6365599.258 6
  21440682.396   -17621305.039 6 -13582434.035 8
 94  2  9  3 40 30.0010000  0  8 24  5 13  2  9  7 12  4
  22991619.013    -8056857.413 5  -6197871.623 6
  24325669.372     -983313.285 5   -589693.605 2
  20824428.536   -20924589.394 7 -15224013.558 6
  22825326.825     8355354.944 6   6547691.315 6
  21854690.435   -15337294.914 6 -11729415.374 7
  22254927.685    -2430136.559 6  -1748169.412 8
  22669532.661   -11361277.233 6  -6422441.925 6
  21431854.864   -17667665.654 6 -13618559.178 8
 94  2  9  3 41  0.0010000  0  8 24  5 13  2  9  7 12  4
  22973928.411    -8149805.577 5  -6270298.754 6
  24311249.497    -1059068.803 4   -648723.859 4
  20826353.317   -20914457.513 7 -15216118.588 6
  22837187.169     8417692.037 6   6596265.659 6
  21845704.567   -15384515.211 6 -11766210.416 8
  22268436.060    -2359153.516 6  -1692857.953 8
  22655699.341   -11433964.226 6  -6479081.142 6
  21423129.396   -17713515.108 6 -13654286.007 8
 94  2  9  3 41 30.0010000  0  8 24  5 13  2  9  7 12  4
  22956284.325    -8242518.851 5  -6342542.849 6
  24296833.200    -1134826.080 4   -707755.450 4
  20828378.794   -20903822.985 7 -15207831.932 6
  22849090.669     8480243.432 6   6645006.986 6
  21836807.731   -15431268.605 6 -11802641.638 8
  22281968.802    -2288031.912 6  -1637438.514 8
  22641917.427   -11506391.970 6  -6535518.330 6
  21414500.966   -17758860.719 6 -13689620.238 8
 94  2  9  3 42  0.0010000  0  8 24  5 13  2  9  7 12  4
  22938693.700    -8334962.985 5  -6414577.223 6
  24282415.060    -1210585.353 5   -766788.618 4
  20830499.052   -20892680.590 7 -15199149.556 6
  22861034.903     8543024.771 6   6693927.509 6
  21828002.661   -15477543.700 6 -11838700.146 8
  22295527.802    -2216778.429 6  -1581916.328 8
  22628185.200   -11578550.947 6  -6591746.095 6
  21405974.224   -17803688.286 6 -13724550.804 8
 94  2  9  3 42 30.0010000  0  8 24  5 13  2  9  7 12  4
  22921156.286    -8427143.809 6  -6486406.421 6
  24267997.028    -1286366.308 5   -825838.682 4
  20832713.950   -20881040.912 7 -15190079.662 6
  22873030.411     8606036.925 6   6743027.879 6
  21819288.185   -15523347.186 6 -11874391.179 8
  22309107.786    -2145413.931 6  -1526307.629 8
  22614503.919   -11650447.592 6  -6647769.446 6
  21397539.856   -17848012.317 6 -13759089.004 8
 94  2  9  3 43  0.0010000  0  8 24  5 13  2  9  7 12  4
  22903660.669    -8519066.627 6  -6558034.577 6
  24253572.255    -1362180.921 5   -884914.975 4
  20835022.692   -20868914.274 7 -15180630.326 6
  22885065.771     8669296.379 6   6792320.954 6
  21810661.122   -15568687.608 6 -11909721.382 8
  22322706.614    -2073964.179 6  -1470632.506 8
  22600873.786   -11722088.085 6  -6703593.206 6
  21389198.013   -17891837.004 6 -13793238.097 8
 94  2  9  3 43 30.0010000  0  8 24  5 13  2  9  7 12  4
  22886213.349    -8610733.993 5  -6629463.686 6
  24239138.013    -1438005.585 4   -943999.112 4
  20837425.989   -20856283.675 7 -15170788.299 6
  22897153.708     8732814.466 6   6841815.555 6
  21802123.677   -15613533.237 6 -11944666.030 8
  22336324.216    -2002394.184 6  -1414863.680 8
  22587294.052   -11793451.379 6  -6759200.954 6
  21380959.927   -17935122.285 6 -13826966.868 8
 94  2  9  3 44  0.0010000  0  8 24  5 13  2  9  7 12  4
  22868817.521    -8702157.193 6  -6700702.535 6
  24224701.575    -1513843.015 4  -1003093.199 4
  20839923.466   -20843158.332 7 -15160560.758 6
  22909287.755     8796585.738 6   6891507.442 6
  21793683.028   -15657892.973 6 -11979232.055 8
  22349969.513    -1930695.734 6  -1358994.759 8
  22573763.067   -11864542.277 6  -6814596.455 6
  21372823.122   -17977881.836 6 -13860285.991 8
 94  2  9  3 44 30.0010000  0  8 24  5 13  2  9  7 12  4
  22851474.075    -8793324.886 6  -6771742.272 6
  24210285.630    -1589674.120 5  -1062182.310 4
  20842517.349   -20829531.487 7 -15149942.428 6
  22921473.075     8860620.503 6   6941404.649 6
  21785334.435   -15701759.004 6 -12013413.380 8
  22363639.911    -1858860.844 6  -1303019.529 8
  22560290.669   -11935349.923 6  -6869771.238 6
  21364786.771   -18020109.227 6 -13893190.450 8
 94  2  9  3 45  0.0010000  0  8 24  5 13  2  9  7 12  4
  22834169.599    -8884253.690 6  -6842595.880 6
  24195846.356    -1665514.398 5  -1121278.578 4
  20845200.349   -20815426.582 7 -15138951.597 6
  22933705.060     8924893.057 6   6991487.150 6
  21777078.450   -15745151.997 6 -12047226.102 8
  22377331.895    -1786902.636 6  -1246948.199 8
  22546864.895   -12005893.378 6  -6924740.165 6
  21356846.817   -18061833.302 6 -13925702.696 8
 94  2  9  3 45 30.0010000  0  8 24  5 13  2  9  7 12  4
  22816908.747    -8974919.044 5  -6913244.204 6
  24181422.380    -1741334.581 5  -1180359.246 4
  20847979.333   -20800821.102 7 -15127570.698 6
  22945982.341     8989417.056 5   7041765.572 6
  21768913.153   -15788045.090 6 -12080649.290 8
  22391056.239    -1714785.185 6  -1190752.789 7
  22533496.380   -12076146.051 6  -6979482.492 6
  21349007.521   -18103034.862 6 -13957807.796 8
 94  2  9  3 46  0.0010000  0  8 24  5 13  2  9  7 12  4
  22799707.606    -9065305.051 5  -6983674.839 6
  24166992.989    -1817142.698 4  -1239430.497 5
  20850853.278   -20785719.616 7 -15115803.308 6
  22958310.005     9054195.875 6   7092242.565 6
  21760843.778   -15830450.580 6 -12113692.531 8
  22404806.231    -1642525.394 6  -1134446.453 7
  22520185.052   -12146108.306 6  -7033998.537 6
  21341272.224   -18143716.968 6 -13989508.131 8
 94  2  9  3 46 30.0010000  0  8 24  5 13  2  9  7 12  4
  22782566.528    -9155444.797 6  -7053913.582 6
  24152564.575    -1892958.553 5  -1298507.747 5
  20853818.396   -20770139.428 7 -15103662.900 6
  22970682.341     9119220.982 5   7142911.468 5
  21752870.419   -15872367.073 6 -12146354.736 8
  22418580.630    -1570145.246 6  -1078046.346 7
  22506922.810   -12215792.730 6  -7088298.085 7
  21333630.153   -18183882.227 7 -14020805.733 8
 94  2  9  3 47  0.0010000  0  8 24  5 13  2  9  7 12  4
  22765458.474    -9245332.481 6  -7123955.914 6
  24138139.661    -1968784.217 5  -1357592.650 2
  20856874.560   -20754067.692 7 -15091139.462 6
  22983106.450     9184508.587 5   7193784.909 6
  21744991.606   -15913780.415 6 -12178624.873 8
  22432377.614    -1497627.463 6  -1021538.995 7
  22493717.286   -12285182.528 6  -7142368.045 6
  21326085.786   -18223509.770 7 -14051684.328 8
 94  2  9  3 47 30.0010000  0  8 24  5 13  2  9  7 12  4
  22748400.880    -9334961.059 6  -7193796.356 6
  24123708.599    -2044625.490 5  -1416689.718 4
  20860029.349   -20737504.503 7 -15078233.073 6
  22995582.731     9250059.183 5   7244863.273 6
  21737207.856   -15954684.513 6 -12210498.201 8
  22446206.044    -1424971.561 6   -964924.005 7
  22480570.044   -12354273.315 6  -7196205.026 6
  21318644.794   -18262578.442 6 -14082127.435 8
 94  2  9  3 48  0.0010000  0  8 24  5 13  2  9  7 12  4
  22731393.021    -9424344.743 6  -7263445.960 6
  24109261.669    -2120507.795 5  -1475818.784 4
  20863271.419   -20720467.203 7 -15064957.258 6
  23008102.786     9315859.594 5   7296136.296 6
  21729515.021   -15995082.741 6 -12241977.340 8
  22460053.677    -1352194.778 6   -908214.837 7
  22467481.067   -12423078.090 6  -7249819.127 6
  21311313.747   -18301094.204 6 -14112139.707 8
 94  2  9  3 48 30.0010000  0  8 24  5 13  2  9  7 12  4
  22714426.435    -9513485.761 6  -7332906.489 6
  24094815.442    -2196433.272 5  -1534981.479 4
  20866602.872   -20702961.140 7 -15051316.171 6
  23020670.192     9381896.866 6   7347593.898 6
  21721922.521   -16034979.250 6 -12273065.531 8
  22473925.067    -1279305.393 6   -851417.921 7
  22454437.638   -12491597.808 6  -7303211.118 6
  21304093.786   -18339067.131 6 -14141728.990 8
 94  2  9  3 49  0.0010000  0  8 24  5 13  2  9  7 12  4
  22697516.466    -9602347.583 6  -7402149.448 6
  24080358.638    -2272393.496 5  -1594171.246 5
  20870023.091   -20684981.361 7 -15037305.946 6
  23033280.567     9448156.874 6   7399225.063 6
  21714428.888   -16074376.637 6 -12303764.796 8
  22487816.974    -1206293.815 6   -794525.780 7
  22441454.778   -12559823.181 6  -7356373.745 7
  21296972.622   -18376494.235 6 -14170892.961 8
 94  2  9  3 49 30.0010000  0  8 24  5 13  2  9  7 12  4
  22680665.864    -9690909.554 6  -7471158.761 6
  24065909.075    -2348356.199 5  -1653362.942 5
  20873537.700   -20666521.406 7 -15022921.565 6
  23045928.989     9514648.494 6   7451036.694 6
  21707029.200   -16113269.623 6 -12334071.027 8
  22501739.317    -1133143.644 6   -737525.662 7
  22428530.731   -12627743.489 6  -7409298.650 7
  21289953.771   -18413364.288 6 -14199622.871 8
 94  2  9  3 50  0.0010000  0  8 24  5 13  2  9  7 12  4
  22663872.146    -9779170.463 6  -7539933.485 6
  24051453.677    -2424312.258 5  -1712549.459 5
  20877140.661   -20647585.135 7 -15008166.027 6
  23058626.255     9581363.192 5   7503022.145 5
  21699719.091   -16151671.126 6 -12363994.271 8
  22515683.989    -1059862.689 6   -680423.627 7
  22415665.177   -12695357.904 6  -7461985.208 7
  21283046.317   -18449689.519 6 -14227928.247 8
 94  2  9  3 50 30.0010000  0  8 24  5 13  2  9  7 12  4
  22647132.966    -9867119.702 6  -7608465.348 6
  24036998.583    -2500255.713 5  -1771726.161 5
  20880833.130   -20628171.918 7 -14993038.849 6
  23071364.247     9648296.131 6   7555177.658 6
  21692502.927   -16189593.936 6 -12393544.518 8
  22529652.567     -986456.041 6   -623223.633 7
  22402861.364   -12762661.614 6  -7514429.659 7
  21276233.685   -18485468.914 6 -14255808.288 8
 94  2  9  3 51  0.0010000  0  8 24  5 13  2  9  7 12  4
  22630457.536    -9954766.018 6  -7676761.155 6
  24022554.216    -2576185.640 5  -1830892.324 5
  20884617.669   -20608286.687 7 -14977543.860 6
  23084144.310     9715460.915 5   7607513.842 5
  21685379.911   -16227030.144 6 -12422715.597 8
  22543644.396     -912923.242 6   -565925.356 7
  22390105.997   -12829654.944 6  -7566632.254 7
  21269528.114   -18520706.390 6 -14283266.053 8
 94  2  9  3 51 30.0010000  0  8 24  5 13  2  9  7 12  4
  22613834.927   -10042127.018 6  -7744834.658 6
  24008108.130    -2652110.477 5  -1890054.532 4
  20888490.481   -20587938.566 7 -14961688.179 6
  23096969.435     9782867.444 5   7660038.392 6
  21678346.833   -16263980.583 6 -12451508.145 8
  22557656.599     -839280.692 6   -508541.555 7
  22377418.044   -12896342.590 6  -7618596.645 7
  21262923.481   -18555406.848 6 -14310305.363 8
 94  2  9  3 52  0.0010000  0  8 24  5 13  2  9  7 12  4
  22597262.396   -10129205.504 6  -7812688.011 6
  23993658.567    -2728049.551 5  -1949227.833 5
  20892451.411   -20567125.104 7 -14945469.887 6
  23109847.981     9850524.011 5   7712757.779 6
  21671414.731   -16300423.120 6 -12479904.922 8
  22571687.458     -765535.220 6   -451077.557 7
  22364786.731   -12962717.593 6  -7670317.429 7
  21256419.864   -18589576.337 6 -14336930.932 8
 94  2  9  3 52 30.0010000  0  8 24  5 13  2  9  7 12  4
  22580746.052   -10215989.881 6  -7880312.191 6
  23979198.739    -2804005.088 5  -2008413.949 5
  20896500.544   -20545841.722 7 -14928885.436 6
  23122772.403     9918452.741 5   7765689.231 6
  21664579.356   -16336330.528 6 -12507884.731 8
  22585745.341     -691679.340 6   -393527.521 7
  22352220.794   -13028770.940 6  -7721787.567 7
  21250025.755   -18623202.217 7 -14363132.902 8
 94  2  9  3 53  0.0010000  0  8 24  5 13  2  9  7 12  4
  22564287.208   -10302496.141 6  -7947719.644 6
  23964737.099    -2879996.778 5  -2067628.238 5
  20900635.005   -20524107.319 7 -14911949.537 7
  23135747.583     9986645.446 5   7818826.380 5
  21657850.145   -16371705.885 6 -12535449.947 8
  22599818.919     -617729.016 6   -335903.901 7
  22339705.091   -13094517.118 6  -7773018.352 7
  21243722.903   -18656304.780 7 -14388927.099 8
 94  2  9  3 53 30.0010000  0  8 24  5 13  2  9  7 12  4
  22547882.036   -10388685.556 6  -8014880.216 7
  23950283.653    -2955990.474 5  -2126844.117 5
  20904862.302   -20501898.872 7 -14894644.255 7
  23148779.263    10055120.177 5   7872183.297 5
  21651220.653   -16406529.289 6 -12562585.067 8
  22613912.935     -543668.203 6   -278194.180 7
  22327261.302   -13159928.539 6  -7823988.300 7
  21237530.356   -18688854.279 6 -14414290.336 8
 94  2  9  3 54  0.0010000  0  8 24  5 13  2  9  7 12  4
  22531541.669   -10474574.436 6  -8081806.591 6
  23935817.810    -3031998.369 5  -2186071.028 5
  20909174.896   -20479237.679 7 -14876986.188 6
  23161857.450    10123846.583 5   7925736.324 5
  21644699.935   -16440816.207 6 -12589302.147 8
  22628023.208     -469525.861 6   -220420.931 7
  22314873.583   -13225021.991 6  -7874710.460 7
  21231435.521   -18720871.436 6 -14439238.768 8
 94  2  9  3 54 30.0010000  0  8 24  5 13  2  9  7 12  4
  22515257.981   -10560148.172 6  -8148487.419 6
  23921352.427    -3107999.902 5  -2245293.001 5
  20913573.989   -20456124.276 7 -14858975.735 6
  23174984.575    10192817.120 5   7979479.585 5
  21638274.130   -16474573.715 6 -12615606.707 8
  22642141.599     -395308.817 6   -162589.478 7
  22302548.427   -13289793.609 6  -7925181.850 7
  21225451.771   -18752339.972 7 -14463759.689 8
 94  2  9  3 55  0.0010000  0  8 24  5 13  2  9  7 12  4
  22499025.271   -10645414.900 6  -8214929.016 7
  23906892.552    -3183985.335 5  -2304502.400 5
  20918057.302   -20432557.340 7 -14840611.887 6
  23188151.466    10262020.983 5   8033404.655 6
  21631949.630   -16507807.689 6 -12641503.316 8
  22656279.520     -321014.006 6   -104697.418 7
  22290283.817   -13354237.306 6  -7975397.723 7
  21219564.856   -18783262.305 7 -14487855.009 8
 94  2  9  3 55 30.0010000  0  8 24  5 13  2  9  7 12  4
  22482864.661   -10730372.684 6  -8281129.870 6
  23892438.052    -3259941.884 5  -2363689.303 5
  20922629.974   -20408536.282 7 -14821894.179 6
  23201362.739    10331448.824 5   8087504.252 6
  21625721.872   -16540518.582 6 -12666992.321 8
  22670434.474     -246639.494 6    -46743.254 7
  22278087.239   -13418348.075 6  -8025354.171 7
  21213789.231   -18813624.645 6 -14511513.969 8
 94  2  9  3 56  0.0010000  0  8 24  5 13  2  9  7 12  4
  22466757.755   -10815020.007 6  -8347088.817 6
  23877986.521    -3335879.323 5  -2422861.306 5
  20927285.028   -20384063.198 7 -14802824.239 6
  23214616.747    10401094.971 5   8141773.951 6
  21619602.028   -16572704.911 6 -12692072.585 8
  22684604.224     -172171.675 6     11283.609 7
  22265947.849   -13482123.428 6  -8075049.250 7
  21208119.653   -18843414.772 7 -14534727.045 8
 94  2  9  3 56 30.0010000  0  8 24  5 13  2  9  7 12  4
  22450705.817   -10899350.887 6  -8412801.175 7
  23863541.208    -3411792.218 5  -2482014.204 5
  20932029.950   -20359133.327 7 -14783398.371 7
  23227913.700    10470979.311 5   8196229.259 5
  21613575.560   -16604372.826 6 -12716748.885 8
  22698797.731      -97586.723 6     69401.748 7
  22253879.138   -13545554.033 7  -8124475.688 7
  21202561.263   -18872630.939 7 -14557492.884 8
 94  2  9  3 57  0.0010000  0  8 24  5 13  2  9  7 12  4
  22434720.880   -10983370.506 6  -8478270.988 7
  23849102.560    -3487681.293 5  -2541148.527 5
  20936860.185   -20333753.557 7 -14763621.915 7
  23241260.403    10541103.603 5   8250871.547 5
  21607643.786   -16635527.864 6 -12741025.544 8
  22713013.052      -22879.170 6    127615.421 7
  22241871.364   -13608642.253 6  -8173635.344 7
  21197107.794   -18901278.030 6 -14579815.281 8
 94  2  9  3 57 30.0010000  0  8 24  5 13  2  9  7 12  4
  22418794.544   -11067047.154 6  -8543473.570 6
  23834666.278    -3563532.514 5  -2600253.373 5
  20941774.724   -20307914.958 7 -14743487.943 6
  23254654.646    10611494.346 5   8305721.454 5
  21601816.099   -16666163.474 6 -12764897.453 8
  22727255.146       51953.701 6    185926.739 7
  22229935.685   -13671374.423 6  -8222517.563 7
  21191767.747   -18929332.755 7 -14601676.095 8
 94  2  9  3 58  0.0010000  0  8 24  5 13  2  9  7 12  4
  22402932.927   -11150389.271 6  -8608415.460 6
  23820235.489    -3639362.745 5  -2659341.848 5
  20946779.036   -20281631.989 7 -14723007.708 6
  23268098.903    10682151.559 5   8360779.008 6
  21596081.880   -16696294.916 6 -12788376.505 8
  22741518.896      126907.197 6    244332.060 7
  22218063.435   -13733760.519 6  -8271130.103 7
  21186540.380   -18956818.558 7 -14623093.605 8
 94  2  9  3 58 30.0010000  0  8 24  5 13  2  9  7 12  4
  22387140.106   -11233407.760 6  -8673105.189 6
  23805806.145    -3715183.999 5  -2718423.320 5
  20951862.739   -20254909.386 7 -14702184.906 6
  23281594.372    10753069.107 5   8416039.404 6
  21590442.794   -16725916.182 6 -12811458.008 8
  22755801.286      201969.986 6    302822.538 7
  22206257.895   -13795800.587 6  -8319473.009 7
  21181416.169   -18983746.287 7 -14644076.246 8
 94  2  9  3 59  0.0010000  0  8 24  5 13  2  9  7 12  4
  22371399.794   -11316098.300 6  -8737539.374 7
  23791379.106    -3791007.436 5  -2777506.504 5
  20957029.200   -20227754.742 7 -14681025.442 6
  23295134.505    10824220.840 5   8471482.285 5
  21584906.833   -16755017.055 6 -12834134.014 8
  22770102.606      277126.657 6    361386.171 7
  22194519.661   -13857497.553 6  -8367548.572 7
  21176397.208   -19010106.777 7 -14664616.877 8
 94  2  9  3 59 30.0010000  0  8 24  5 13  2  9  7 12  4
  22355731.114   -11398457.459 6  -8801715.329 7
  23776949.731    -3866839.552 5  -2836596.467 5
  20962279.044   -20200163.893 7 -14659526.078 7
  23308715.388    10895599.633 5   8527102.105 5
  21579473.169   -16783583.446 6 -12856393.540 8
  22784421.731      352368.548 6    420016.212 7
  22182841.075   -13918842.796 6  -8415350.060 7
  21171488.052   -19035899.971 7 -14684715.461 8
 94  2  9  4  0  0.0010000  0  8 24  5 13  2  9  7 12  4
  22340118.028   -11480491.607 6  -8865638.041 7
  23762518.052    -3942677.525 5  -2895690.975 5
  20967614.599   -20172134.685 7 -14637685.140 7
  23322341.560    10967192.627 5   8582888.841 5
  21574142.474   -16811597.932 6 -12878223.010 8
  22798759.981      427705.884 6    478720.617 7
  22171235.075   -13979829.629 6  -8462872.265 7
  21166687.185   -19061135.590 7 -14704379.576 8
 94  2  9  4  0 30.0010000  0  8 24  5 13  2  9  7 12  4
  22324568.442   -11562202.688 6  -8929308.996 7
  23748085.435    -4018510.803 5  -2954781.834 5
  20973029.724   -20143668.030 7 -14615503.330 6
  23336006.130    11039000.750 5   8638843.198 5
  21568916.114   -16839052.047 6 -12899615.829 8
  22813108.935      503122.103 6    537486.495 7
  22159700.380   -14040453.907 7  -8510111.954 7
  21161995.716   -19085800.687 7 -14723599.125 8
 94  2  9  4  1  0.0010000  0  8 24  5 13  2  9  7 12  4
  22309085.122   -11643587.999 6  -8992726.112 7
  23733658.833    -4094321.866 5  -3013855.396 5
  20978527.856   -20114773.404 7 -14592988.042 7
  23349711.442    11111028.119 5   8694968.388 5
  21563794.458   -16865959.398 6 -12920582.601 8
  22827472.106      578601.911 6    596301.923 7
  22148235.536   -14100720.783 7  -8557073.165 7
  21157407.575   -19109903.157 6 -14742380.263 8
 94  2  9  4  1 30.0010000  0  8 24  5 13  2  9  7 12  4
  22293659.192   -11724650.754 6  -9055891.899 7
  23719238.950    -4170101.319 5  -3072904.307 5
  20984109.669   -20085452.919 7 -14570140.919 6
  23363463.700    11183292.681 5   8751278.403 5
  21558777.880   -16892324.027 6 -12941126.469 8
  22841850.231      654154.182 6    655173.824 7
  22136833.536   -14160627.696 7  -8603753.874 7
  21152930.060   -19133445.823 7 -14760725.194 8
 94  2  9  4  2  0.0010000  0  8 24  5 13  2  9  7 12  4
  22278296.692   -11805382.660 6  -9118799.864 7
  23704825.880    -4245850.943 5  -3131929.995 5
  20989769.567   -20055711.128 7 -14546965.485 6
  23377260.731    11255814.595 5   8807788.968 5
  21553864.763   -16918147.405 6 -12961248.595 8
  22856244.161      729795.278 6    714114.936 6
  22125499.872   -14220174.400 7  -8650153.906 7
  21148556.661   -19156416.794 7 -14778624.647 8
 94  2  9  4  2 30.0010000  0  8 24  5 13  2  9  7 12  4
  22262997.060   -11885755.598 6  -9181428.126 7
  23690420.653    -4321565.358 5  -3190928.234 5
  20995509.114   -20025542.652 7 -14523457.585 7
  23391115.942    11328609.803 5   8864512.482 5
  21549055.989   -16943424.432 6 -12980944.981 8
  22870653.864      805524.544 6    773124.745 7
  22114241.263   -14279350.789 7  -8696265.382 7
  21144299.302   -19178788.119 7 -14796056.841 8
 94  2  9  4  3  0.0010000  0  8 24  5 13  2  9  7 12  4
  22247777.044   -11965753.997 6  -9243764.540 7
  23676015.591    -4397254.814 5  -3249907.009 5
  21001332.630   -19994949.354 7 -14499618.654 7
  23405024.005    11401676.456 5   8921447.514 5
  21544351.208   -16968156.383 6 -13000216.634 8
  22885083.099      881351.546 6    832210.713 7
  22103052.052   -14338154.374 7  -8742086.355 7
  21140157.138   -19200562.743 7 -14813024.072 8
 94  2  9  4  3 30.0010000  0  8 24  5 13  2  9  7 12  4
  22232623.560   -12045372.718 6  -9305805.098 7
  23661612.880    -4472938.545 5  -3308881.359 5
  21007233.919   -19963935.959 7 -14475452.371 7
  23418976.505    11475015.937 5   8978595.136 5
  21539744.794   -16992351.478 6 -13019069.956 8
  22899531.841      957274.739 6    891371.632 7
  22091933.270   -14396585.065 7  -8787616.755 7
  21136125.083   -19221744.421 7 -14829529.270 8
 94  2  9  4  4  0.0010000  0  8 24  5 13  2  9  7 12  4
  22217550.622   -12124608.933 6  -9367547.591 7
  23647208.481    -4548618.540 5  -3367852.785 5
  21013213.817   -19932505.172 7 -14450960.848 7
  23432984.294    11548627.938 5   9035955.108 5
  21535244.435   -17016010.423 6 -13037505.509 8
  22913992.278     1033277.940 6    950594.903 7
  22080884.638   -14454640.691 6  -8832854.915 7
  21132204.997   -19242339.026 7 -14845577.005 8
 94  2  9  4  4 30.0010000  0  8 24  5 13  2  9  7 12  4
  22202539.919   -12203484.424 6  -9429008.981 7
  23632811.966    -4624283.287 5  -3426812.315 5
  21019275.341   -19900664.391 7 -14426149.852 7
  23447042.552    11622489.704 5   9093509.711 5
  21530841.739   -17039137.189 6 -13055526.367 8
  22928468.599     1109339.091 6   1009863.330 6
  22069908.192   -14512324.343 7  -8877803.211 7
  21128394.724   -19262364.221 7 -14861181.048 8
 94  2  9  4  5  0.0010000  0  8 24  5 13  2  9  7 12  4
  22187595.739   -12282009.507 6  -9490197.360 7
  23618417.036    -4699925.919 5  -3485754.624 5
  21025413.614   -19868402.964 7 -14401011.081 7
  23461147.927    11696619.799 5   9151273.398 5
  21526542.489   -17061729.944 6 -13073131.108 8
  22942957.763     1185473.662 6   1069188.961 7
  22059006.271   -14569620.165 7  -8922449.306 7
  21124690.380   -19281822.900 7 -14876343.651 8
 94  2  9  4  5 30.0010000  0  8 24  5 13  2  9  7 12  4
  22172711.208   -12360200.023 6  -9551125.014 7
  23604029.739    -4775548.287 5  -3544681.137 5
  21031633.653   -19835723.635 7 -14375546.672 7
  23475306.247    11771016.429 5   9209244.783 5
  21522345.685   -17083783.669 6 -13090315.837 8
  22957456.458     1261679.606 6   1128570.210 7
  22048176.544   -14626526.796 7  -8966792.138 7
  21121098.794   -19300711.806 7 -14891062.268 8
 94  2  9  4  6  0.0010000  0  8 24  5 13  2  9  7 12  4
  22157901.685   -12438065.647 6  -9611799.525 7
  23589639.669    -4851144.484 5  -3603587.273 5
  21037929.880   -19802630.338 7 -14349759.690 7
  23489510.450    11845662.243 5   9267410.327 5
  21518255.083   -17105283.835 6 -13107069.220 8
  22971971.489     1337958.741 6   1188008.500 6
  22037421.216   -14683043.057 7  -9010830.784 7
  21117611.177   -19319027.824 7 -14905334.490 8
 94  2  9  4  6 30.0010000  0  8 24  5 13  2  9  7 12  4
  22143149.872   -12515601.393 6  -9672216.972 7
  23575257.950    -4926717.606 5  -3662475.422 5
  21044307.396   -19769121.909 7 -14323649.230 7
  23503757.396    11920541.817 5   9325758.018 5
  21514271.138   -17126223.337 6 -13123385.733 8
  22986504.575     1414315.546 6   1247507.295 6
  22026741.122   -14739163.236 7  -9054560.791 7
  21114233.755   -19336776.822 7 -14919164.869 8
 94  2  9  4  7  0.0010000  0  8 24  5 13  2  9  7 12  4
  22128454.630   -12592791.323 6  -9732364.943 7
  23560877.536    -5002286.757 5  -3721360.468 5
  21050761.372   -19735204.101 7 -14297219.773 7
  23518052.177    11995646.976 5   9384281.495 5
  21510389.724   -17146607.584 6 -13139269.551 8
  23001050.356     1490754.510 6   1307070.114 6
  22016136.552   -14794888.494 7  -9097983.079 8
  21110965.747   -19353963.243 7 -14932556.884 8
 94  2  9  4  7 30.0010000  0  8 24  5 13  2  9  7 12  4
  22113840.521   -12669616.904 6  -9792229.024 7
  23546503.661    -5077831.467 5  -3780226.451 5
  21057290.310   -19700883.005 7 -14270476.059 7
  23532381.231    12070958.996 5   9442966.165 5
  21506619.341   -17166413.477 6 -13154702.713 8
  23015608.763     1567266.693 6   1366689.986 6
  22005606.825   -14850219.843 7  -9141098.406 8
  21107800.435   -19370595.176 7 -14945516.827 8
 94  2  9  4  8  0.0010000  0  8 24  5 13  2  9  7 12  4
  22099287.966   -12746065.165 6  -9851799.091 7
  23532134.771    -5153346.253 5  -3839069.158 5
  21063898.974   -19666163.758 7 -14243422.103 7
  23546752.935    12146466.809 5   9501803.386 5
  21502962.013   -17185644.816 6 -13169688.180 8
  23030181.247     1643842.058 6   1426359.098 6
  21995156.786   -14905158.187 7  -9183907.510 8
  21104738.333   -19386675.818 7 -14958047.196 8
 94  2  9  4  8 30.0010000  0  8 24  5 13  2  9  7 12  4
  22084820.341   -12822126.742 6  -9911067.842 7
  23517773.521    -5228833.193 5  -3897890.145 5
  21070582.716   -19631045.548 7 -14216057.267 7
  23561156.622    12222183.157 5   9560803.107 5
  21499406.786   -17204305.427 6 -13184228.920 8
  23044764.849     1720484.865 6   1486080.759 6
  21984774.380   -14959697.648 7  -9226405.800 8
  21101788.028   -19402193.064 7 -14970138.554 8
 94  2  9  4  9  0.0010000  0  8 24  5 13  2  9  7 12  4
  22070417.653   -12897788.122 6
  23503411.239    -5304282.010 5
  21077339.903   -19595526.937 7 -14188380.427 7
  23575607.028    12298133.768 5   9619985.376 5
  21495965.927   -17222399.020 6 -13198327.834 8
  23059364.942     1797199.172 6   1545858.138 6
  21974472.513   -15013832.413 7  -9268588.736 7
  21098947.247   -19417122.785 7 -14981772.098 8
 94  2  9  4  9 30.0010000  0  8 24  5 13  2  9  7 12  4
  22056093.325   -12973066.346 6 -10028683.083 7
  23489063.388    -5379695.751 5  -4015444.854 5
  21084171.333   -19559622.904 7 -14160403.260 7
  23590108.013    12374322.791 5   9679353.437 5
  21492627.427   -17239950.801 6 -13212004.551 8
  23073968.802     1873965.008 6   1605675.663 6
  21964248.216   -15067572.348 7  -9310464.004 8
  21096218.630   -19431463.280 7 -14992946.501 8
 94  2  9  4 10  0.0010000  0  8 24  5 13  2  9  7 12  4
  22041840.161   -13047957.969 6 -10087040.180 7
  23474714.138    -5455078.926 5  -4074184.987 5
  21091079.864   -19523324.568 7 -14132118.846 7
  23604660.763    12450771.318 5   9738923.684 5
  21489391.927   -17256965.372 6 -13225262.663 8
  23088593.981     1950795.423 6   1665543.506 6
  21954099.388   -15120904.214 7  -9352021.303 8
  21093602.739   -19445189.696 7 -15003642.406 8
 94  2  9  4 10 30.0010000  0  8 24  5 13  2  9  7 12  4
  22027662.700   -13122465.316 6 -10145097.863 7
  23460374.192    -5530436.212 5  -4132904.945 5
  21098061.271   -19486636.002 7 -14103530.356 7
  23619259.231    12527487.037 5
  21486254.786   -17273444.175 6 -13238103.290 8
  23103225.716     2027693.721 6
  21944028.880   -15173827.233 7  -9393260.021 8
  21091106.489   -19458319.686 7 -15013873.560 8
 94  2  9  4 11  0.0010000  0  8 24  5 13  2  9  7 12  4
  22013561.044   -13196585.087 6 -10202853.516 7
  23446041.661    -5605759.656 5  -4191598.528 5
  21105114.825   -19449563.164 7 -14074642.426 7
  23633903.130    12604464.450 5
  21483220.122   -17289387.552 6 -13250526.714 8
  23117870.349     2104654.364 6
  21934035.802   -15226342.601 7  -9434181.096 8
  21088718.325   -19470861.753 7 -15023646.596 8
 94  2  9  4 11 30.0010000  0  8 24  5 13  2  9  7 12  4
  21999527.646   -13270313.225 6 -10260304.005 7
  23431721.067    -5681036.893 5  -4250256.106 5
  21112245.138   -19412097.597 7 -14045448.481 7
  23648599.161    12681708.020 5   9918874.257 5
  21480293.755   -17304763.385 6 -13262507.881 8
  23132532.747     2181699.830 6   1845469.002 6
  21924120.739   -15278437.358 7  -9474774.415 8
  21086443.528   -19482812.304 7 -15032958.718 8
 94  2  9  4 12  0.0010000  0  8 24  5 13  2  9  7 12  4
  21985572.630   -13343647.513 6 -10317447.603 7
  23417400.513    -5756283.155 5  -4308889.531 5
  21119446.888   -19374248.123 7 -14015955.387 7
  23663353.341    12759206.464 5   9979262.616 4
  21477477.106   -17319555.482 6 -13274034.201 8
  23147210.419     2258828.939 6   1905569.597 6
  21914285.349   -15330115.526 7  -9515043.121 8
  21084281.692   -19494179.896 7 -15041816.578 8
 94  2  9  4 12 30.0010000  0  8 24  5 13  2  9  7 12  4
  21971696.966   -13416576.067 6 -10374275.034 7
  23403085.911    -5831486.881 5  -4367489.839 5
  21126723.520   -19336011.710 7 -13986160.779 7
  23678148.270    12836960.227 5  10039849.929 5
  21474776.700   -17333762.499 6 -13285104.606 8
  23161903.544     2336049.846 6   1965741.723 6
  21904532.060   -15381369.225 7  -9554981.070 8
  21082230.825   -19504962.626 7 -15050218.697 8
 94  2  9  4 13  0.0010000  0  8 24  5 13  2  9  7 12  4
  21957896.044   -13489108.307 6 -10430793.656 8
  23388783.536    -5906646.045 5  -4426055.409 5
  21134072.411   -19297394.308 7 -13956069.297 7
  23692991.802    12914959.116 5  10100628.273 5
  21472183.239   -17347393.157 6 -13295725.906 8
  23176611.771     2413354.915 6   2025979.426 6
  21894860.552   -15432199.818 7  -9594589.326 8
  21080290.224   -19515148.826 7 -15058155.991 8
 94  2  9  4 13 30.0010000  0  8 24  5 13  2  9  7 12  4
  21944162.739   -13561242.362 6 -10487002.001 7
  23374486.786    -5981770.331 5  -4484593.808 5
  21141494.216   -19258397.321 7 -13925682.035 7
  23707874.606    12993190.215 5  10161587.552 5
  21469697.778   -17360447.950 6 -13305898.481 8
  23191335.653     2490726.911 6   2086269.288 6
  21885272.567   -15482604.042 7  -9633865.349 8
  21078462.396   -19524747.394 7 -15065635.396 8
 94  2  9  4 14  0.0010000  0  8 24  5 13  2  9  7 12  4
  21930511.396   -13632975.086 6 -10542897.620 7
  23360203.825    -6056857.744 5  -4543103.465 6
  21148987.255   -19219020.870 7 -13894999.086 7
  23722803.185    13071634.061 5  10222712.617 4
  21467319.864   -17372940.094 6 -13315632.625 8
  23206068.067     2568142.322 6   2146592.986 6
  21875760.013   -15532577.333 7  -9672805.576 8
  21076752.528   -19533765.551 7 -15072662.529 8
 94  2  9  4 14 30.0010000  0  8 24  5 13  2  9  7 12  4
  21916941.146   -13704315.872 6 -10598487.838 7
  23345921.099    -6131906.095 5  -4601582.699 5
  21156548.435   -19179273.955 7 -13864027.470 7
  23737766.388    13150273.834 5  10283990.311 4
  21465047.286   -17384877.312 6 -13324934.361 8
  23220807.911     2645592.010 6   2206943.374 6
  21866330.622   -15582124.021 7  -9711413.387 8
  21075141.880   -19542219.695 7 -15079250.163 8
 94  2  9  4 15  0.0010000  0  8 24  5 13  2  9  7 12  4
  21903440.739   -13775249.153 6 -10653760.509 8
  23331648.583    -6206917.083 5  -4660032.820 5
  21164184.638   -19139151.473 7 -13832763.196 7
  23752773.239    13229124.971 5  10345432.723 4
  21462890.638   -17396238.774 6 -13333787.449 8
  23235553.521     2723079.826 6   2267323.483 6
  21856988.677   -15631233.959 7  -9749680.878 8
  21073639.942   -19550097.991 7 -15085389.095 8
 94  2  9  4 15 30.0010000  0  8 24  5 13  2  9  7 12  4
  21890024.341   -13845775.009 6 -10708715.712 8
  23317373.653    -6281909.928 5  -4718468.793 6
  21171889.552   -19098667.791 7 -13801217.470 7
  23767818.255    13308183.526 5  10407036.743 5
  21460832.591   -17407025.992 6 -13342193.078 8
  23250305.802     2800599.040 6   2327728.062 6
  21847720.958   -15679917.366 7  -9787615.999 8
  21072251.091   -19557402.485 7 -15091080.903 8
 94  2  9  4 16  0.0010000  0  8 24  5 13  2  9  7 12  4
  21876678.216   -13915896.200 6 -10763355.584 8
  23303110.380    -6356867.584 5  -4776877.365 5
  21179661.396   -19057825.476 7 -13769392.292 7
  23782904.497    13387475.815 5  10468822.925 4
  21458891.896   -17417232.591 6 -13350146.282 8
  23265067.646     2878166.005 6   2388169.842 6
  21838539.528   -15728171.815 7  -9825216.876 8
  21070976.028   -19564116.646 7 -15096312.714 8
 94  2  9  4 16 30.0010000  0  8 24  5 13  2  9  7 12  4
  21863411.333   -13985604.702 6 -10817673.889 8
  23288859.114    -6431771.902 5  -4835244.368 5
  21187501.560   -19016621.991 7 -13737285.694 7
  23798051.333    13467042.223 5  10530822.701 4
  21457063.013   -17426852.771 6 -13357642.537 8
  23279837.833     2955801.253 6   2448664.827 6
  21829436.927   -15775990.248 6  -9862477.990 8
  21069811.458   -19570224.854 7 -15101072.353 8
 94  2  9  4 17  0.0010000  0  8 24  5 13  2  9  7 12  4
  21850225.677   -14054903.104 6 -10871672.638 8
  23274618.091    -6506609.882 5  -4893559.679 6
  21195410.599   -18975060.897 7 -13704900.416 7
  23813242.942    13546882.142 5  10593035.599 4
  21455341.528   -17435902.826 6 -13364694.538 8
  23294625.630     3033494.688 6   2509205.169 6
  21820421.692   -15823371.492 6  -9899398.444 8
  21068763.794   -19575721.850 7 -15105355.725 8
 94  2  9  4 17 30.0010000  0  8 24  5 13  2  9  7 12  4
  21837117.255   -14123797.795 6 -10925356.792 8
  23260394.310    -6581348.029 5  -4951797.193 6
  21203388.927   -18933139.000 7 -13672234.008 7
  23828488.036    13626993.863 5  10655460.293 5
  21453721.919   -17444394.550 6 -13371311.469 8
  23309415.122     3111244.216 6   2569789.211 6
  21811492.317   -15870307.725 7  -9935972.131 8
  21067838.677   -19580615.624 7 -15109169.051 8
 94  2  9  4 18  0.0010000  0  8 24  5 13  2  9  7 12  4
  21824083.567   -14192285.782 6 -10978724.058 8
  23246193.466    -6655969.735 5  -5009943.977 6
  21211435.661   -18890853.362 7 -13639284.161 7
  23843778.653    13707377.217 5  10718096.638 5
  21452213.638   -17452335.455 6 -13377499.200 8
  23324222.966     3189047.346 6   2630415.016 6
  21802643.778   -15916791.339 7  -9972193.128 8
  21067013.778   -19584924.575 7 -15112526.670 8
 94  2  9  4 18 30.0010000  0  8 24  5 13  2  9  7 12  4
  21811127.396   -14260358.996 6 -11031768.105 8
  23232009.450    -6730500.382 5  -5068019.803 6
  21219547.895   -18848213.614 7 -13606058.384 7
  23859127.075    13787998.512 5  10780918.379 5
  21450806.958   -17459735.181 6 -13383265.221 8
  23339036.903     3266892.342 6   2691073.457 6
  21793887.505   -15962827.186 7 -10008065.226 8
  21066301.450   -19588670.793 7 -15115445.798 8
 94  2  9  4 19  0.0010000  0  8 24  5 13  2  9  7 12  4
  21798255.255   -14328008.227 6 -11084481.786 8
  23217838.763    -6804962.666 5  -5126042.365 5
  21227732.146   -18805218.128 7 -13572555.409 7
  23874506.349    13868842.188 5  10843913.425 5
  21449498.942   -17466583.748 6 -13388601.779 8
  23353859.958     3344777.222 6   2751762.978 6
  21785214.396   -16008409.237 7 -10043583.706 8
  21065696.450   -19591852.662 7 -15117925.175 8
 94  2  9  4 19 30.0010000  0  8 24  5 13  2  9  7 12  4
  21785468.153   -14395222.141 6 -11136856.259 8
  23203679.919    -6879380.428 5  -5184030.230 6
  21235979.466   -18761869.503 7 -13538777.264 7
  23889939.263    13949920.518 5  10907091.311 4
  21448305.192   -17472866.717 6 -13393497.609 8
  23368688.817     3422713.559 6   2812492.582 6
  21776625.685   -16053535.435 7 -10078746.980 8
  21065196.755   -19594462.451 7 -15119958.771 8
 94  2  9  4 20  0.0010000  0  8 24  5 13  2  9  7 12  4
  21772755.888   -14462003.270 6 -11188893.492 8
  23189519.958    -6953794.873 6  -5242015.499 6
  21244291.021   -18718180.473 7 -13504733.864 7
  23905406.997    14031220.266 5  10970441.749 4
  21447215.247   -17478575.936 6 -13397946.351 8
  23383527.286     3500693.521 6   2873256.186 6
  21768125.146   -16098213.772 7 -10113561.274 8
  21064811.942   -19596493.601 7 -15121541.484 8
 94  2  9  4 20 30.0010000  0  8 24  5 13  2  9  7 12  4
  21760131.255   -14528344.056 6 -11240587.603 8
  23175358.169    -7028210.407 5  -5300001.622 6
  21252674.896   -18674142.659 7 -13470418.684 7
  23920920.724    14112750.246 5  11033971.562 4
  21446247.278   -17483693.668 6 -13401934.197 8
  23398376.333     3578733.244 5   2934066.347 6
  21759709.810   -16142431.220 7 -10148016.420 8
  21064541.521   -19597918.255 7 -15122651.600 8
 94  2  9  4 21  0.0010000  0  8 24  5 13  2  9  7 12  4
  21747584.997   -14594255.167 6 -11291946.899 8
  23161199.489    -7102615.201 6  -5357979.381 6
  21261120.927   -18629757.853 7 -13435833.127 7
  23936485.708    14194522.260 5  11097689.974 4
  21445383.849   -17488217.417 6 -13405459.205 8
  23413240.388     3656835.757 6   2994925.438 6
  21751381.747   -16186184.970 7 -10182110.258 8
  21064384.817   -19598726.796 7 -15123281.632 8
 94  2  9  4 21 30.0010000  0  8 24  5 13  2  9  7 12  4
  21735124.638   -14659727.294 6 -11342964.134 8
  23147045.427    -7176989.630 5  -5415933.481 6
  21269630.817   -18585024.700 7 -13400976.130 7
  23952086.114    14276535.667 5  11161596.494 4
  21444638.817   -17492140.790 6 -13408516.387 8
  23428115.411     3734999.604 6   3055832.335 6
  21743147.552   -16229469.192 7 -10215838.218 8
  21064353.075   -19598916.073 7
 94  2  9  4 22  0.0010000  0  8 24  5 13  2  9  7 12  4
  21722749.927   -14724772.988 6 -11393649.078 8
  23132902.060    -7251326.920 6  -5473858.643 6
  21278211.614   -18539949.940 7 -13365852.941 7
  23967740.216    14358777.454 5  11225680.982 2
  21444006.864   -17495468.837 6 -13411109.673 8
  23443000.575     3813207.270 6   3116773.357 6
  21734997.255   -16272285.821 7 -10249201.835 8
  21064428.325   -19598514.687 7
 94  2  9  4 22 30.0010000  0  8 24  5 13  2  9  7 12  4
  21710456.575   -14789394.588 6 -11444003.565 8
  23118768.880    -7325592.471 6  -5531727.891 6
  21286851.489   -18494537.762 7 -13330466.832 7
  23983437.481    14441259.683 5  11289952.795 3
  21443478.521   -17498204.825 6 -13413241.616 8
  23457887.380     3891453.386 6   3177744.352 6
  21726941.419   -16314634.846 7 -10282201.079 8
  21064612.575   -19597545.694 7 -15122361.283 8
 94  2  9  4 23  0.0010000  0  8 24  5 13  2  9  7 12  4
  21698244.442   -14853587.689 6 -11494024.162 8
  23104657.685    -7399753.819 6  -5589515.951 6
  21295557.372   -18448787.868 7 -13294817.565 7
  23999176.317    14523987.069 5  11354415.661 4
  21443074.763   -17500348.108 6 -13414911.717 8
  23472781.802     3969732.373 6   3238740.971 6
  21718970.052   -16356510.918 7 -10314831.790 8
  21064905.060   -19596009.700 7 -15121164.403 8
 94  2  9  4 23 30.0010000  0  8 24  5 13  2  9  7 12  4
  21686105.919   -14917348.848 6 -11543708.171 8
  23090567.739    -7473792.615 6  -5647208.522 6
  21304326.677   -18402701.718 7 -13258906.280 7
  24014964.005    14606962.167 5  11419071.546 3
  21442780.294   -17501899.118 6 -13416120.305 8
  23487685.044     4048034.577 6   3299755.664 6
  21711093.075   -16397911.389 7 -10347091.891 8
  21065305.896   -19593904.426 7 -15119523.932 8
 94  2  9  4 24  0.0010000  0  8 24  5 13  2  9  7 12  4
  21674057.349   -14980685.946 6 -11593061.750 8
  23076500.356    -7547692.610 6  -5704792.938 6
  21313159.716   -18356285.500 7 -13222737.796 7
  24030804.435    14690188.081 5  11483922.883 3
  21442593.567   -17502867.329 6 -13416874.758 8
  23502591.380     4126367.209 5   3360794.064 6
  21703303.622   -16438837.558 7 -10378982.422 8
  21065813.474   -19591241.733 7 -15117449.096 8
 94  2  9  4 24 30.0010000  0  8 24  5 13  2  9  7 12  4
  21662082.778   -15043596.926 6 -11642083.276 8
  23062469.239    -7621465.611 6  -5762278.392 6
  21322051.677   -18309552.091 7 -13186322.157 7
  24046686.505    14773641.252 5  11548951.300 3
  21442521.872   -17503276.365 6
  23517499.771     4204733.059 5   3421858.361 6
  21695604.567   -16479297.733 7 -10410509.828 8
  21066427.997   -19587996.647 7 -15114920.449 8
 94  2  9  4 25  0.0010000  0  8 24  5 13  2  9  7 12  4
  21650197.685   -15106061.307 6 -11690756.818 8
  23048451.419    -7695137.452 6  -5819685.025 6
  21331007.825   -18262499.408 7 -13149657.730 7
  24062605.919    14857310.156 4  11614147.797 3
  21442546.450   -17503129.806 6
  23532421.786     4283142.340 5   3482956.497 6
  21687993.661   -16519285.562 7 -10441669.180 8
  21067161.888   -19584142.370 7 -15111917.116 8
 94  2  9  4 25 30.0010000  0  8 24  5 13  2  9  7 12  4
  21638399.177   -15168073.393 6 -11739077.916 8
  23034441.021    -7768741.625 6  -5877038.929 6
  21340019.153   -18215131.639 7 -13112747.785 7
  24078562.560    14941189.129 4  11679507.984 2
  21442680.833   -17502430.609 6 -13416534.477 8
  23547350.849     4361598.701 5   3544091.318 6
  21680477.028   -16558800.544 7 -10472460.071 8
  21068009.942   -19579691.240 7 -15108448.696 8
 94  2  9  4 26  0.0010000  0  8 24  5 13  2  9  7 12  4
  21626683.950   -15229623.646 6 -11787039.143 8
  23020440.919    -7842304.812 6  -5934360.897 6
  21349095.052   -18167438.036 7 -13075583.939 7
  24094573.849    15025281.557 4  11745034.489 3
  21442918.271   -17501176.634 6 -13415557.360 8
  23562296.216     4440116.799 5   3605274.245 6
  21673053.286   -16597827.483 7 -10502870.677 8
  21068973.536   -19574626.091 7 -15104501.831 8
 94  2  9  4 26 30.0010000  0  8 24  5 13  2  9  7 12  4
  21615059.622   -15290716.769 6 -11834644.170 8
  23006447.927    -7915851.447 6  -5991669.960 6
  21358232.567   -18119424.216 7 -13038170.584 7
  24110610.974    15109580.026 4  11810721.582 3
  21443262.974   -17499369.929 6 -13414149.541 8
  23577241.606     4518681.417 5   3666493.422 6
  21665713.841   -16636367.496 7 -10532901.858 8
  21070056.771   -19568936.778 7 -15100068.601 8
 94  2  9  4 27  0.0010000  0  8 24  5 13  2  9  7 12  4
  21603520.692   -15351364.251 6 -11881901.944 8
  22992454.567    -7989372.670 6  -6048959.237 6
  21367430.294   -18071094.683 7 -13000511.205 7
  24126696.919    15194106.438 5  11876586.293 3
  21443715.833   -17496997.322 6 -13412300.760 8
  23592200.778     4597282.863 5   3727741.295 6
  21658472.638   -16674420.558 7 -10562553.596 8
  21071252.145   -19562660.684 7 -15095178.124 8
 94  2  9  4 27 30.0010000  0  8 24  5 13  2  9  7 12  4
  21592057.849   -15411573.017 6 -11928817.871 8
  22978470.560    -8062859.945 6  -6106222.046 6
  21376684.599   -18022450.624 7 -12962606.746 7
  24142828.435    15278865.029 4  11942631.916 2
  21444275.044   -17494050.702 6 -13410004.702 8
  23607169.606     4675914.107 5   3789012.383 6
  21651327.333   -16711983.385 7 -10591823.328 8
  21072555.349   -19555806.337 7 -15089837.070 8
 94  2  9  4 28  0.0010000  0  8 24  5 13  2  9  7 12  4
  21580686.771   -15471344.756 6 -11975393.231 8
  22964500.731    -8136292.197 6  -6163441.979 6
  21385998.575   -17973503.581 7 -12924466.197 7
  24158999.739    15363851.151 5  12008854.845 2
  21444943.052   -17490528.660 6 -13407260.255 8
  23622130.200     4754561.850 5   3850296.328 6
  21644269.466   -16749063.129 7 -10620716.640 8
  21073971.075   -19548369.999 7 -15084042.527 8
 94  2  9  4 28 30.0010000  0  8 24  5 13  2  9  7 12  4
  21569403.052   -15530653.961 6 -12021608.185 8
  22950544.458    -8209625.459 6  -6220584.789 6
  21395371.505   -17924252.264 7 -12886088.549 7
  24175218.903    15449079.732 5  12075266.707 3
  21445732.294   -17486409.734 6 -13404050.720 8
  23637099.575     4833227.158 5   3911593.963 6
  21637305.880   -16785654.091 6 -10649229.070 8
  21075492.841   -19540362.638 7 -15077803.015 8
 94  2  9  4 29  0.0010000  0  8 24  5 13  2  9  7 12  4
  21558203.685   -15589493.721 6 -12067457.348 8
  22936608.106    -8282850.573 6  -6277643.322 6
  21404803.192   -17874696.617 7 -12847473.760 7
  24191480.669    15534553.947 5  12141869.966 4
  21446624.208   -17481690.086 6 -13400373.080 8
  23652073.802     4911910.619 5   3972905.752 6
  21630439.310   -16821751.822 7 -10677357.179 8
  21077125.497   -19531788.747 7 -15071122.059 8
 94  2  9  4 29 30.0010000  0  8 24  5 13  2  9  7 12  4
  21547096.146   -15647865.317 6 -12112941.700 8
  22922693.911    -8355979.760 6  -6334627.109 6
  21414290.091   -17824841.399 7 -12808625.542 7
  24207791.427    15620263.724 4  12208656.763 2
  21447640.263   -17476376.682 6 -13396232.773 8
  23667049.513     4990607.686 5   4034228.125 6
  21623662.653   -16857356.468 6 -10705101.056 8
  21078866.661   -19522627.497 7 -15063983.421 8
 94  2  9  4 30  0.0010000  0  8 24  5 13  2  9  7 12  4
  21536080.333   -15705764.706 6 -12158058.094 8
  22908799.606    -8428998.883 6  -6391525.129 6
  21423835.239   -17774681.822 7 -12769540.157 7
  24224148.747    15706223.460 4  12275638.353 4
  21448762.935   -17470467.995 6 -13391628.604 8
  23682027.091     5069331.934 5   4095571.690 6
  21616985.231   -16892459.168 7 -10732453.807 8
  21080724.646   -19512878.148 7 -15056386.516 8
 94  2  9  4 30 30.0010000  0  8 24  5 13  2  9  7 12  4
  21525146.669   -15763199.879 6 -12202812.772 8
  22894922.544    -8501920.447 6  -6448347.133 6
  21433438.661   -17724219.568 7 -12730218.920 7
  24240558.044    15792429.571 4  12342811.894 4
  21449998.911   -17463971.202 6 -13386566.178 8
  23697019.122     5148095.887 5   4156946.198 6
  21610398.981   -16927056.968 7 -10759413.138 8
  21082691.013   -19502547.228 7 -15048336.450 8
 94  2  9  4 31  0.0010000  0  8 24  5 13  2  9  7 12  4
  21514305.958   -15820183.075 6 -12247215.254 8
  22881058.630    -8574764.003 6  -6505108.350 6
  21443098.396   -17673451.816 7 -12690659.629 7
  24257010.302    15878879.361 4  12410175.356 5
  21451346.638   -17456884.091 6 -13381043.757 8
  23712020.325     5226918.189 5   4218366.170 6
  21603910.669   -16961142.757 6 -10785973.490 8
  21084768.169   -19491621.960 7 -15039823.251 8
 94  2  9  4 31 30.0010000  0  8 24  5 13  2  9  7 12  4
  21503548.028   -15876716.926 6 -12291267.594 8
  22867211.802    -8647540.609 6  -6561817.397 6
  21452815.271   -17622395.936 7 -12650875.837 7
  24273500.911    15965551.166 4  12477711.778 4
  21452807.278   -17449220.761 6 -13375072.340 8
  23727031.958     5305793.213 5   4279827.203 6
  21597522.708   -16994729.574 7 -10812145.035 8
  21086955.536   -19480120.832 7 -15030861.330 8
 94  2  9  4 32  0.0010000  0  8 24  5 13  2  9  7 12  4
  21492878.450   -15932778.475 6 -12334951.911 8
  22853377.224    -8720232.734 6  -6618460.600 6
  21462582.708   -17571045.020 7 -12610862.131 7
  24290023.185    16052431.776 3  12545410.892 5
  21454373.075   -17440973.293 6 -13368645.756 8
  23742049.700     5384723.387 5   4341331.226 6
  21591227.091   -17027806.149 7 -10837918.995 8
  21089255.411   -19468058.450 7 -15021462.069 8
 94  2  9  4 32 30.0010000  0  8 24  5 13  2  9  7 12  4
  21482301.794   -15988358.407 6 -12378260.946 8
  22839563.685    -8792833.013 6  -6675032.238 6
  21472414.239   -17519396.682 7 -12570616.677 7
  24306602.333    16139514.456 4  12613267.482 2
  21456059.544   -17432128.046 6 -13361753.361 8
  23757074.247     5463698.756 5   4402870.465 5
  21585032.950   -17060365.706 7 -10863290.082 8
  21091655.044   -19455425.989 7 -15011618.591 8
 94  2  9  4 33  0.0010000  0  8 24  5 13  2  9  7 12  4
  21471816.606   -16043460.701 6 -12421197.783 8
  22825765.075    -8865343.983 6  -6731534.294 6
  21482298.450   -17467460.871 7 -12530147.215 7
  24323212.044    16226788.303 4  12681273.037 3
  21457852.286   -17422692.778 6 -13354401.210 8
  23772104.950     5542688.614 5   4464421.002 5
  21578935.435   -17092414.060 7 -10888262.823 8
  21094165.880   -19442233.199 7 -15001338.484 8
 94  2  9  4 33 30.0010000  0  8 24  5 13  2  9  7 12  4
  21461422.591   -16098077.214 6 -12463756.103 8
  22811983.989    -8937750.824 6  -6787955.219 6
  21492234.661   -17415240.489 7 -12489456.015 7
  24339857.888    16314259.288 4  12749432.206 2
  21459760.114   -17412675.747 6 -13346595.742 8
  23787138.966     5621679.430 5   4525972.284 6
  21572931.310   -17123949.647 6 -10912836.012 8
  21096786.177   -19428480.103 7 -14990621.787 8
 94  2  9  4 34  0.0010000  0  8 24  5 13  2  9  7 12  4
  21451116.747   -16152231.171 6 -12505953.976 8
  22798226.466    -9010056.682 6  -6844297.427 6
  21502226.021   -17362748.813 7 -12448553.404 7
  24356537.552    16401931.851 4  12817748.490 2
  21461775.075   -17402084.445 6 -13338342.794 8
  23802167.997     5700652.757 5   4587509.931 6
  21567027.927   -17154981.694 7 -10937016.832 8
  21099504.224   -19414171.110 7 -14979471.925 8
 94  2  9  4 34 30.0010000  0  8 24  5 13  2  9  7 12  4
  21440900.239   -16205917.400 6 -12547787.399 8
  22784487.200    -9082247.553 6  -6900550.048 6
  21512265.294   -17309974.537 7 -12407430.599 7
  24373268.896    16489845.867 4  12886252.887 2
  21463897.685   -17390908.618 6 -13329634.364 8
  23817197.169     5779635.837 5   4649055.183 5
  21561221.505   -17185494.355 7 -10960792.925 8
  21102344.942   -19399271.177 7 -14967861.583 8
 94  2  9  4 35  0.0010000  0  8 24  5 13  2  9  7 12  4
  21430774.489   -16259134.206 6 -12589255.030 8
  22770772.872    -9154325.893 6  -6956714.987 6
  21522362.388   -17256922.450 7 -12366091.306 7
  24390050.216    16578006.308 4  12954949.297 1
  21466137.966   -17379162.758 6 -13320481.752 8
  23832233.247     5858647.120 5   4710622.406 5
  21555513.724   -17215488.527 7 -10984165.013 8
  21105288.544   -19383781.590 7 -14955791.770 8
 94  2  9  4 35 30.0010000  0  8 24  5 13  2  9  7 12  4
  21420738.528   -16311873.582 6 -12630350.637 8
  22757078.630    -9226289.755 6  -7012790.707 6
  21532509.606   -17203595.312 7 -12324537.695 7
  24406874.505    16666418.478 4  13023841.852 1
  21468478.247   -17366853.229 6 -13310889.922 8
  23847274.560     5937697.125 5   4772219.801 6
  21549902.544   -17244962.447 7 -11007131.711 8
  21108351.794   -19367702.893 7 -14943262.914 8
 94  2  9  4 36  0.0010000  0  8 24  5 13  2  9  7 12  4
  21410795.778   -16364121.651 6 -12671063.412 8
  22743406.474    -9298131.858 6  -7068771.575 6
  21542710.513   -17149988.469 7 -12282766.132 7
  24423738.927    16755069.733 3  13092920.754 1
  21470931.114   -17353975.850 6 -13300855.613 8
  23862325.106     6016791.711 5   4833851.940 5
  21544396.036   -17273907.416 7 -11029686.236 8
  21111520.989   -19351030.762 7 -14930271.645 8
 94  2  9  4 36 30.0010000  0  8 24  5 13  2  9  7 12  4
  21400944.302   -16415872.579 6 -12711388.800 8
  22729758.646    -9369868.277 6  -7124670.071 6
  21552963.810   -17096107.582 7 -12240781.043 7
  24440646.224    16843945.678 3  13162174.706 1
  21473484.521   -17340545.340 6 -13290390.288 8
  23877382.724     6095927.010 5   4895515.790 5
  21538988.372   -17302325.042 7 -11051829.841 8
  21114807.145   -19333766.679 7 -14916819.112 8
 94  2  9  4 37  0.0010000  0  8 24  5 13  2  9  7 12  4
  21391190.560   -16467127.926 6 -12751328.024 8
  22716122.981    -9441511.167 6  -7180495.703 6
  21563266.169   -17041964.128 7 -12198591.330 7
  24457599.224    16933029.449 3  13231590.587 2
  21476145.286   -17326571.088 6 -13279501.275 8
  23892448.521     6175083.515 5   4957196.173 5
  21533681.317   -17330222.634 7 -11073568.228 8
  21118200.747   -19315930.248 7 -14902920.596 8
 94  2  9  4 37 30.0010000  0  8 24  5 13  2  9  7 12  4
  21381533.731   -16517884.740 6 -12790878.772 8
  22702507.185    -9513059.746 6  -7236247.831 7
  21573619.638   -16987558.359 7 -12156197.229 7
  24474594.185    17022317.969 3  13301166.040 2
  21478904.833   -17312041.428 6 -13268179.463 8
  23907511.810     6254247.733 5   5018882.575 5
  21528470.255   -17357596.007 6 -11094898.131 8
  21121701.661   -19297528.394 7 -14888581.488 8
 94  2  9  4 38  0.0010000  0  8 24  5 13  2  9  7 12  4
  21371971.075   -16568139.937 6 -12830038.663 8
  22688910.880    -9584508.929 6  -7291922.509 7
  21584026.708   -16932883.096 7 -12113593.132 7
  24491626.646    17111818.583 3  13370906.726 1
  21481786.489   -17296930.926 6 -13256405.058 8
  23922580.263     6333434.290 5   5080586.378 5
  21523363.606   -17384434.261 7 -11115811.058 8
  21125312.810   -19278549.179 7 -14873792.484 8
 94  2  9  4 38 30.0010000  0  8 24  5 13  2  9  7 12  4
  21362504.763   -16617896.401 6 -12868809.919 8
  22675330.435    -9655867.256 6  -7347526.401 6
  21594480.544   -16877939.382 7 -12070779.850 7
  24508699.263    17201546.899 3  13440824.862 2
  21484772.567   -17281225.240 6 -13244166.875 8
  23937656.536     6412651.193 5   5142313.823 5
  21518356.989   -17410734.286 6 -11136304.585 8
  21129035.067   -19258997.644 7 -14858557.523 8
 94  2  9  4 39  0.0010000  0  8 24  5 13  2  9  7 12  4
  21353123.653   -16667173.971 6 -12907208.017 8
  22661770.138    -9727137.796 6  -7403061.887 6
  21604981.364   -16822743.831 7 -12027770.340 7
  24525813.567    17291491.218 3  13510911.261 1
  21487874.099   -17264927.645 6 -13231467.458 8
  23952731.942     6491884.642 5   5204054.162 5
  21513454.810   -17436508.390 7 -11156388.311 8
  21132860.200   -19238903.981 7 -14842900.117 8
 94  2  9  4 39 30.0010000  0  8 24  5 13  2  9  7 12  4
  21343843.833   -16715954.913 6 -12945219.142 8
  22648226.989    -9798300.326 6  -7458513.201 7
  21615533.724   -16767287.073 7 -11984557.275 7
  24542970.669    17381650.665 3  13581165.334 3
  21491091.474   -17248026.328 6 -13218297.608 8
  23967814.505     6571140.809 5   5265812.201 5
  21508652.020   -17461743.346 6 -11176051.908 8
  21136788.942   -19218252.893 7 -14826808.369 8
 94  2  9  4 40  0.0010000  0  8 24  5 13  2  9  7 12  4
  21334652.872   -16764249.787 6 -12982851.492 8
  22634709.981    -9869348.450 6  -7513875.377 7
  21626139.130   -16711574.693 7 -11941145.043 7
  24560173.388    17472023.095 3  13651585.365 2
  21494419.036   -17230535.850 6 -13204668.675 8
  23982901.200     6650415.057 5   5327584.341 5
  21503950.216   -17486440.648 6 -11195296.566 8
  21140823.685   -19197043.741 7 -14810281.754 8
 94  2  9  4 40 30.0010000  0  8 24  5 13  2  9  7 12  4
  21325550.567   -16812070.743 6 -13020114.563 8
  22621209.208    -9940273.704 6  -7569141.794 7
  21636787.302   -16655613.224 7 -11897538.701 7
  24577407.989    17562606.353 3  13722169.670 4
  21497856.864   -17212472.920 6 -13190593.677 8
  23997988.841     6729689.589 5   5389356.685 5
  21499353.708   -17510602.888 7 -11214124.292 8
  21144962.747   -19175290.117 7 -14793330.874 8
 94  2  9  4 41  0.0010000  0  8 24  5 13  2  9  7 12  4
  21316545.349   -16859410.124 6 -13057002.389 8
  22607744.583   -10011057.316 6  -7624297.856 6
  21647485.435   -16599397.457 7 -11853734.219 7
  24594682.489    17653412.801 3  13792927.889 2
  21501401.724   -17193836.473 6 -13176071.775 8
  24013071.903     6808968.028 5   5451132.095 5
  21494860.802   -17534220.837 6 -11232527.885 8
  21149211.177   -19152972.717 7 -14775940.691 8
 94  2  9  4 41 30.0010000  0  8 24  5 13  2  9  7 12  4
  21307632.606   -16906258.147 6 -13093507.328 8
  22594298.224   -10081698.469 6  -7679342.906 7
  21658228.630   -16542928.011 7 -11809732.052 7
  24612015.599    17744441.204 4  13863859.092 2
  21505057.692   -17174634.825 6 -13161109.456 8
  24028158.950     6888257.915 5   5512916.407 5
  21490469.950   -17557291.099 6 -11250504.720 8
  21153565.997   -19130081.975 7 -14758103.746 9
 94  2  9  4 42  0.0010000  0  8 24  5 13  2  9  7 12  4
  21298804.919   -16952631.480 6 -13129642.384 8
  22580883.153   -10152195.437 6  -7734275.606 7
  21669025.341   -16486203.745 7 -11765531.334 7
  24629378.520    17835706.692 3  13934974.961 3
  21508824.060   -17154859.573 6 -13145700.171 8
  24043252.396     6967570.991 5   5574718.797 5
  21486183.372   -17579808.812 6 -11268050.993 7
  21158032.638   -19106627.430 7 -14739827.480 8
 94  2  9  4 42 30.0010000  0  8 24  5 13  2  9  7 12  4
  21290067.060   -16998531.700 6 -13165408.779 8
  22567490.763   -10222574.698 6  -7789116.580 7
  21679862.106   -16429245.704 7 -11721148.446 7
  24646793.325    17927192.810 4  14006262.813 2
  21512690.255   -17134519.684 6 -13129850.915 8
  24058350.099     7046897.160 5   5636531.387 5
  21482002.067   -17601790.947 6 -11285179.934 8
  21162598.521   -19082622.629 7 -14721122.433 8
 94  2  9  4 43  0.0010000  0  8 24  5 13  2  9  7 12  4
  21281429.950   -17043941.608 6 -13200793.109 8
  22554121.677   -10292841.560 6  -7843869.977 7
  21690747.013   -16372062.908 7 -11676590.427 7
  24664233.310    18018881.059 3  14077708.151 3
  21516668.958   -17113629.930 6 -13113573.189 8
  24073449.099     7126235.668 5   5698353.582 5
  21477919.700   -17623242.532 6 -11301895.457 8
  21167266.950   -19058072.695 7 -14701992.613 8
 94  2  9  4 43 30.0010000  0  8 24  5 13  2  9  7 12  4
  21272882.263   -17088851.925 6 -13235788.164 8
  22540773.669   -10362979.414 6  -7898522.842 7
  21701671.013   -16314643.341 7 -11631847.906 7
  24681716.396    18110762.438 3  14149303.981 3
  21520745.497   -17092183.277 6 -13096861.522 8
  24088545.700     7205597.626 5   5760194.048 5
  21473941.856   -17644147.974 7 -11318185.421 8
  21172043.864   -19032980.594 7 -14682440.323 9
 94  2  9  4 44  0.0010000  0  8 24  5 13  2  9  7 12  4
  21264433.950   -17133258.872 6 -13270390.967 8
  22527451.317   -10432986.209 6  -7953073.585 7
  21712643.974   -16256985.803 7 -11586919.960 7
  24699241.778    18202838.185 3  14221051.262 2
  21524937.583   -17070167.287 6 -13079706.207 8
  24103652.591     7284983.350 5   5822053.070 5
  21470065.864   -17664501.868 6 -11334045.599 8
  21176924.083   -19007334.928 7 -14662456.680 9
 94  2  9  4 44 30.0010000  0  8 24  5 13  2  9  7 12  4
  21256080.044   -17177137.203 6 -13304581.860 8
  22514155.536   -10502858.566 6  -8007519.585 7
  21723659.435   -16199092.033 7 -11541807.935 7
  24716797.419    18295097.891 3  14292941.897 1
  21529233.302   -17047587.078 6 -13062111.245 8
  24118765.677     7364390.123 5   5883928.450 5
  21466300.997   -17684302.479 6 -11349474.644 8
  21181912.294   -18981125.199 7 -14642033.514 9
 94  2  9  4 45  0.0010000  0  8 24  5 13  2  9  7 12  4
  21247832.661   -17220492.955 6 -13338365.554 8
  22500884.911   -10572590.626 6  -8061856.250 7
  21734722.622   -16140965.545 7 -11496514.569 7
  24734391.583    18387539.244 3  14364974.074 2
  21533634.036   -17024442.294 6 -13044076.357 8
  24133876.505     7443812.772 5   5945816.234 5
  21462638.091   -17703549.320 6 -11364472.190 8
  21187007.411   -18954359.207 6 -14621176.896 9
 94  2  9  4 45 30.0010000  0  8 24  5 13  2  9  7 12  4
  21239680.028   -17263337.051 6 -13371750.557 8
  22487642.935   -10642191.322 6  -8116090.550 7
  21745825.349   -16082611.976 7 -11451044.252 7
  24752014.677    18480170.133 3  14437153.920 1
  21538152.489   -17000720.633 6 -13025591.949 8
  24148996.341     7523244.297 5   6007710.915 5
  21459080.849   -17722244.453 6 -11379039.825 7
  21192203.731   -18927038.928 7 -14599888.364 9
 94  2  9  4 46  0.0010000  0  8 24  5 13  2  9  7 12  4
  21231626.747   -17305652.365 6 -13404723.519 8
  22474420.833   -10711644.760 6  -8170210.116 7
  21756974.880   -16024022.923 7 -11405390.456 7
  24769689.536    18573023.428 3  14509507.097 1
  21542777.817   -16976407.524 6 -13006646.679 8
  24164112.216     7602687.070 5   6069614.352 5
  21455632.856   -17740375.571 7 -11393167.969 8
  21197512.755   -18899146.207 7 -14578153.774 9
 94  2  9  4 46 30.0010000  0  8 24  5 13  2  9  7 12  4
  21223673.536   -17347455.123 6 -13437297.088 8
  22461234.356   -10780966.003 6  -8224226.648 7
  21768164.560   -15965217.363 7 -11359567.941 7
  24787392.841    18666088.289 3  14582025.131 1
  21547509.817   -16951529.555 6 -12987261.253 8
  24179223.981     7682111.441 5   6131503.471 5
  21452286.513   -17757957.992 7 -11406868.564 8
  21202924.841   -18870710.831 6 -14555996.337 9
 94  2  9  4 47  0.0010000  0  8 24  5 13  2  9  7 12  4
  21215815.466   -17388753.067 6 -13469477.296 8
  22448066.028   -10850153.241 6  -8278138.789 7
  21779397.185   -15906190.191 7 -11313572.745 7
  24805144.263    18759380.118 3  14654720.001 2
  21552356.153   -16926084.996 6 -12967434.326 8
  24194338.122     7761523.227 5   6193382.770 5
  21449043.583   -17774983.095 6 -11420134.883 8
  21208439.638   -18841720.797 7 -14533406.698 9
 94  2  9  4 47 30.0010000  0  8 24  5 13  2  9  7 12  4
  21208054.231   -17429541.988 6 -13501260.862 8
  22434929.192   -10919206.919 6  -8331946.850 7
  21790672.481   -15846938.109 7 -11267402.292 7
  24822945.661    18852889.493 3  14727584.387 1
  21557303.278   -16900082.547 6 -12947172.688 8
  24209445.380     7840932.819 5   6255260.361 5
  21445911.450   -17791443.735 6 -11432961.360 7
  21214062.388   -18812163.053 7 -14510374.686 9
 94  2  9  4 48  0.0010000  0  8 24  5 13  2  9  7 12  4
  21200389.044   -17469823.674 6 -13532649.178 8
  22421811.771   -10988133.082 6  -8385655.534 7
  21801989.849   -15787467.895 7 -11221061.874 7
  24840782.919    18946603.928 2  14800608.540 1
  21562354.599   -16873533.406 6 -12926485.048 8
  24224556.888     7920343.278 5   6317138.646 5
  21442887.856   -17807343.078 6 -11445350.455 7
  21219798.075   -18782035.036 6 -14486898.308 9
 94  2  9  4 48 30.0010000  0  8 24  5 13  2  9  7 12  4
  21192813.755   -17509607.560 6 -13563649.602 8
  22408718.419   -11056938.884 6  -8439270.449 7
  21813344.896   -15727789.203 7 -11174559.001 7
  24858642.833    19040500.959 3  14873775.024 1
  21567509.419   -16846444.409 6 -12905376.749 8
  24239674.067     7999765.496 5   6379026.084 5
  21439967.755   -17822687.106 6 -11457306.849 7
  21225642.075   -18751339.114 7 -14462979.404 9
 94  2  9  4 49  0.0010000  0  8 24  5 13  2  9  7 12  4
  21185341.419   -17548879.360 6 -13594250.998 8
  22395651.216   -11125601.490 6  -8492773.769 7
  21824742.341   -15667894.506 7 -11127887.820 7
  24876543.794    19134576.876 2  14947080.854 1
  21572772.755   -16818800.567 6 -12883836.103 8
  24254795.638     8079224.893 5   6440942.476 5
  21437155.974   -17837465.012 6 -11468822.103 7
  21231589.794   -18720062.847 6 -14438608.284 9
 94  2  9  4 49 30.0010000  0  7 24  5 13  9  7 12  4
  21177971.888   -17587614.795 6 -13624434.450 8
  22382616.224   -11194106.020 6  -8546153.918 7
  21836185.403   -15607773.318 7 -11081040.133 7
  21578138.880   -16790576.241 6 -12861843.122 8
  24269921.396     8158729.635 5   6502894.216 5
  21434453.075   -17851662.344 7 -11479884.965 7
  21237653.380   -18688206.192 6 -14413784.915 9
 94  2  9  4 50  0.0010000  0  7 24  5 13  9  7 12  4
  21170696.466   -17625837.317 6 -13654218.226 8
  22369611.208   -11262451.561 6  -8599410.188 7
  21847663.036   -15547438.226 7 -11034025.781 7
  21583619.950   -16761780.189 6 -12839404.648 8
  24285060.481     8238258.491 5   6564864.737 5
  21431860.396   -17865288.394 6 -11490502.667 7
  21243821.966   -18655793.237 6 -14388528.065 9
 94  2  9  4 50 30.0010000  0  7 24  5 13  9  7 12  4
  21163520.888   -17663552.455 6 -13683606.636 8
  22356637.911   -11330623.152 6  -8652530.896 7
  21859189.396   -15486889.059 7 -10986844.616 7
  21589208.286   -16732408.493 6 -12816517.626 8
  24300194.856     8317809.237 5   6626852.317 5
  21429377.677   -17878339.430 7 -11500672.308 7
  21250091.458   -18622835.229 6 -14362846.498 9
 94  2  9  4 51  0.0010000  0  7 24  5 13  9  7 12  4
  21156438.942   -17700767.349 6 -13712605.244 8
  22343695.708   -11398640.005 6  -8705531.034 7
  21870750.286   -15426139.343 7 -10939507.173 7
  21594903.435   -16702478.122 6 -12793195.270 8
  24315329.646     8397356.967 5   6688837.573 5
  21427001.927   -17890825.766 7 -11510401.923 7
  21256461.271   -18589361.215 6 -14336762.854 9
 94  2  9  4 51 30.0010000  0  7 24  5 13  9  7 12  4
  21149449.169   -17737495.013 6 -13741224.193 8
  22330783.255   -11466501.139 6  -8758409.835 7
  21882346.872   -15365190.701 7 -10892014.724 7
  21600707.513   -16671988.182 6 -12769436.883 8
  24330471.294     8476903.036 5   6750821.509 5
  21424735.067   -17902745.152 7 -11519689.760 7
  21262931.888   -18555376.884 6 -14310281.552 9
 94  2  9  4 52  0.0010000  0  7 24  5 13  9  7 12  4
  21142556.349   -17773727.568 6 -13769457.346 8
  22317898.560   -11534186.122 6  -8811151.379 7
  21893982.513   -15304036.513 7 -10844362.112 7
  21606619.020   -16640941.154 6 -12745244.403 8
  24345607.505     8556459.925 5   6812813.870 5
  21422573.919   -17914087.914 6 -11528528.277 7
  21269494.731   -18520878.329 6 -14283399.561 9
 94  2  9  4 52 30.0010000  0  7 24  5 13  9  7 12  4
  21135763.138   -17809425.587 6 -13797273.969 8
  22305055.216   -11601697.669 6  -8863757.777 7
  21905659.817   -15242674.121 7 -10796547.263 7
  21612629.513   -16609335.722 6 -12720616.803 8
  24360746.841     8636025.849 5   6874813.275 5
  21420524.427   -17924847.797 6 -11536912.604 7
  21276159.036   -18485852.917 6 -14256107.030 9
 94  2  9  4 53  0.0010000  0  7 24  5 13  9  7 12  4
  21129068.685   -17844595.249 6 -13824678.895 8
  22292231.161   -11669066.280 6  -8916252.795 7
  21917372.286   -15181123.567 7 -10748585.792 7
  21618744.755   -16577199.392 6 -12695575.504 8
  24375894.661     8715587.103 5   6936809.048 5
  21418584.138   -17935041.750 7 -11544855.948 7
  21282924.106   -18450317.737 6 -14228417.281 9
 94  2  9  4 53 30.0010000  0  7 24  5 13  9  7 12  4
  21122480.739   -17879225.199 6 -13851663.270 8
  22279442.669   -11736288.413 6  -8968633.680 7
  21929121.958   -15119383.640 7 -10700476.759 7
  21624962.255   -16544523.208 6 -12670113.562 8
  24391029.653     8795146.352 5   6998803.266 5
  21416756.810   -17944664.947 7 -11552354.544 7
  21289785.575   -18414262.321 6 -14200322.151 9
 94  2  9  4 54  0.0010000  0  7 24  5 13  9  7 12  4
  21115998.411   -17913296.741 6 -13878212.516 8
  22266676.903   -11803363.144 6  -9020899.700 7
  21940906.505   -15057449.867 7 -10652216.668 7
  21631282.942   -16511302.629 6 -12644227.405 8
  24406171.552     8874696.425 5   7060790.319 5
  21415034.122   -17953709.997 7 -11559402.634 7
  21296743.872   -18377682.464 6 -14171818.367 9
 94  2  9  4 54 30.0010000  0  7 24  5 13  9  7 12  4
  21109621.044   -17946817.057 6 -13904332.237 8
  22253942.239   -11870288.601 6  -9073049.404 7
  21952730.716   -14995316.902 7 -10603801.368 7
  21637712.552   -16477519.746 6 -12617903.087 8
  24421308.450     8954259.866 5   7122787.783 5
  21413424.224   -17962167.913 7 -11565993.226 7
  21303805.060   -18340569.730 6 -14142899.349 9
 94  2  9  4 55  0.0010000  0  7 24  5 13  9  7 12  4
  21103339.575   -17979813.372 6 -13930043.632 8
  22241235.263   -11937056.625 6  -9125076.439 7
  21964592.161   -14932993.970 7 -10555238.045 7
  21644249.419   -16443169.664 6 -12591136.792 8
  24436452.606     9033845.052 5   7184802.199 5
  21411925.231   -17970044.768 7 -11572131.040 7
  21310964.872   -18302938.840 6 -14113576.570 9
 94  2  9  4 55 30.0010000  0  7 24  5 13  9  7 12  4
  21097158.989   -18012295.888 6 -13955354.677 8
  22228563.114   -12003651.738 6  -9176968.724 7
  21976487.536   -14870486.070 7 -10506530.587 7
  21650896.224   -16408243.885 6 -12563921.905 8
  24451596.911     9113439.380 5   7246823.751 5
  21410539.700   -17977342.487 7 -11577817.579 7
  21318224.606   -18264792.382 6 -14083852.055 9
 94  2  9  4 56  0.0010000  0  7 24  5 13  9  7 12  4
  21091074.333   -18044269.539 6 -13980269.200 8
  22215927.685   -12070058.777 6  -9228714.461 8
  21988412.067   -14807799.684 7 -10457684.053 7
  21657653.552   -16372754.315 6 -12536267.706 8
  24466742.810     9193048.515 5   7308856.825 4
  21409256.341   -17984064.225 6 -11583055.296 7
  21325582.685   -18226130.817 6 -14053726.165 9
 94  2  9  4 56 30.0010000  0  7 24  5 13  9  7 12  4
  21085090.255   -18075719.787 6 -14004775.877 8
  22203326.513   -12136267.886 6  -9280305.987 8
  22000379.247   -14744928.253 7 -10408693.331 7
  21664510.591   -16336698.414 6 -12508172.198 8
  24481900.216     9272682.927 5   7370909.617 4
  21408091.396   -17990200.402 7 -11587836.735 7
  21333040.489   -18186935.939 6 -14023184.697 9
 94  2  9  4 57  0.0010000  0  7 24  5 13  9  7 12  4
  21079207.161   -18106631.101 6 -14028862.609 8
  22190767.138   -12202279.874 6  -9331743.892 8
  22012378.958   -14681876.246 7 -10359561.897 7
  21671477.435   -16300091.869 6 -12479647.632 8
  24497058.396     9352320.656 5   7432964.971 5
  21407032.146   -17995752.161 7 -11592162.784 7
  21340599.403   -18147211.370 6 -13992230.500 9
 94  2  9  4 57 30.0010000  0  7 24  5 13  9  7 12  4
  21073426.528   -18137002.555 6 -14052528.666 8
  22178242.614   -12268095.837 6  -9383029.054 7
  22024411.966   -14618640.331 7 -10310287.159 7
  21678546.028   -16262940.231 6 -12450698.307 8
  24512214.724     9431965.280 5   7495025.704 5
  21406090.833   -18000713.353 6 -11596028.650 7
  21348262.060   -18106950.462 6 -13960858.358 9
 94  2  9  4 58  0.0010000  0  7 24  5 13  9  7 12  4
  21067747.497   -18166848.830 6 -14075785.494 8
  22165750.833   -12333731.163 6  -9434173.463 8
  22036474.653   -14555232.743 7 -10260878.658 7
  21685714.388   -16225270.181 6 -12421345.034 8
  24527368.786     9511606.866 5   7557084.059 4
  21405254.825   -18005092.992 7 -11599441.356 7
  21356023.638   -18066162.481 6 -13929075.518 9
 94  2  9  4 58 30.0010000  0  7 24  5 13  9  7 12  4
  21062163.310   -18196182.596 6 -14098642.968 8
  22153298.606   -12399192.144 6  -9485182.013 8
  22048577.263   -14491651.680 7 -10211334.970 7
  21692982.771   -16187082.794 6 -12391588.627 8
  24542521.208     9591246.634 5   7619141.007 5
  21404532.794   -18008886.488 6 -11602397.332 7
  21363884.794   -18024851.166 6 -13896884.885 9
 94  2  9  4 59  0.0010000  0  7 24  5 13  9  7 12  4
  21056681.099   -18225012.959 6 -14121108.178 8
  22140875.560   -12464459.920 6  -9536040.012 8
  22060705.919   -14427894.820 7 -10161654.305 7
  21700348.810   -16148372.482 6 -12361424.755 8
  24557678.833     9670894.791 5   7681204.508 5
  21403925.310   -18012088.211 6 -11604892.187 7
  21371849.974   -17983012.701 6 -13864283.483 9
 94  2  9  4 59 30.0010000  0  7 24  5 13  9  7 12  4
  21051286.911   -18253359.442 6 -14143196.337 8
  22128488.481   -12529541.706 6  -9586753.092 8
  22072868.622   -14363976.674 7 -10111847.945 7
  21707812.138   -16109151.967 6 -12330863.320 8
  24572829.239     9750534.198 5   7743261.174 5
  21403426.669   -18014710.095 6 -11606935.214 7
  21379909.177   -17940651.821 6 -13831275.003 9
 94  2  9  5  0  0.0010000  0  7 24  5 13  9  7 12  4
  21045984.591   -18281208.593 6 -14164896.952 8
  22116140.935   -12594431.222 6  -9637316.351 8
  22085063.497   -14299896.145 7 -10061915.081 6
  21715371.646   -16069417.131 6 -12299901.115 8
  24587988.474     9830160.806 5   7805307.852 5
  21403038.669   -18016747.899 6 -11608523.113 7
  21388068.481   -17897772.674 6 -13797862.679 9
 94  2  9  5  0 30.0010000  0  8 24  5 13 20  9  7 12  4
  21040783.231   -18308538.344 6 -14186192.869 8
  22103830.896   -12659129.231 6  -9687730.377 8
  22097287.161   -14235655.352 7 -10011857.326 7
  25076573.685      -93124.865 3
  21723032.247   -16029156.680 6 -12268529.348 8
  24603135.997     9909775.289 5   7867345.092 4
  21402763.974   -18018200.884 6 -11609655.314 7
  21396326.075   -17854377.562 6 -13764048.308 9
 94  2  9  5  1  0.0010000  0  8 24  5 13 20  9  7 12  4
  21035689.083   -18335318.587 6 -14207060.577 8
  22091556.364   -12723629.454 6  -9737990.283 8
  22109547.114   -14171250.457 7  -9961671.694 6
  25058853.138     -186273.372 3        -0.16611
  21730797.528   -15988361.179 6 -12236740.650 8
  24618282.474     9989379.797 4   7929374.567 4
  21402596.435   -18019062.093 6 -11610326.396 7
  21404680.567   -17810469.097 6 -13729833.918 9
 94  2  9  5  1 30.0010000  0  8 24  5 13 20  9  7 12  4
  21030701.271   -18361535.902 6 -14227489.649 8
  22079321.278   -12787943.909 7  -9788105.439 8
  22121834.021   -14106677.755 7  -9911355.310 7
  25041123.075     -279438.697 3    -72596.593 1
  21738663.216   -15947026.592 6 -12204531.903 8
  24633431.622    10068982.521 5   7991402.652 5
  21402546.442   -18019325.602 6
  21413132.974   -17766060.809 6 -13695230.059 9
 94  2  9  5  2  0.0010000  0  8 24  5 13 20  9  7 12  4
  21025818.458   -18387186.729 6 -14247477.296 8
  22067113.403   -12852079.380 6  -9838081.136 8
  22134150.794   -14041943.459 7  -9860912.999 7
  25023389.146     -372623.541 3   -145208.122 1
  21746629.255   -15905154.909 6 -12171904.621 8
  24648577.544    10148588.745 5   8053433.461 5
  21402611.497   -18018994.520 6
  21421674.349   -17721170.603 6 -13660250.677 9
 94  2  9  5  2 30.0010000  0  8 24  5 13 20  9  7 12  4
  21021044.763   -18412271.712 6 -14267024.028 8
  22054944.263   -12916029.527 7  -9887912.411 8
  22146500.771   -13977046.355 7  -9810343.834 7
  25005661.122     -465823.182 3   -217831.169 1
  21754700.489   -15862743.936 6 -12138857.119 8
  24663728.294    10228200.712 5   8115468.747 4
  21402787.466   -18018064.939 6 -11609549.408 7
  21430306.919   -17675797.930 6 -13624895.346 9
 94  2  9  5  3  0.0010000  0  8 24  5 13 20  9  7 12  4
  21016375.060   -18436815.484 6 -14286149.039 8
  22042811.731   -12979787.519 6  -9937593.963 8
  22158882.692   -13911992.362 7  -9759652.416 6
  24987919.372     -559039.915 3   -290467.566 2
  21762871.958   -15819804.297 6 -12105397.665 8
  24678882.567    10307805.991 5   8177498.830 2
  21403078.114   -18016539.848 6 -11608361.025 7
  21439031.177   -17629949.120 6 -13589169.002 9
 94  2  9  5  3 30.0010000  0  8 24  5 13 20  9  7 12  4
  21011802.356   -18460838.049 6 -14304867.905 8
  22030714.888   -13043350.849 6  -9987123.817 8
  22171286.497   -13846792.474 7  -9708847.301 6
  24970179.364     -652281.721 3   -363123.484 2
  21771143.653   -15776339.608 6 -12071529.090 8
  24694025.106    10387391.072 5   8239513.154 4
  21403479.481   -18014427.787 6 -11606715.262 7
  21447846.880   -17583630.634 6 -13553076.674 9
 94  2  9  5  4  0.0010000  0  8 24  5 13 20  9  7 12  4
  21007331.864   -18484336.348 6 -14323178.266 8
  22018659.896   -13106710.362 6 -10036494.876 8
  22183722.333   -13781453.491 7  -9657933.810 6
  24952433.161     -745551.920 3   -435801.565 1
  21779513.927   -15732352.242 6 -12037253.229 8
  24709162.474    10466947.225 5   8301504.955 5
  21403987.841   -18011732.665 6 -11604615.180 7
  21456751.395   -17536840.445 6 -13516616.785 9
 94  2  9  5  4 30.0010000  0  8 24  5 13 20  9  7 12  4
  21002959.536   -18507309.711 6 -14341079.584 8
  22006642.614   -13169847.180 6 -10085692.386 8
  22196182.481   -13715968.777 7  -9606906.758 6
  24934670.146     -838840.521 3   -508493.957 2
  21787984.825   -15687838.452 6 -12002567.173 8
  24724299.622    10546491.238 5   8363487.288 4
  21404617.271   -18008445.454 6 -11602053.720 7
  21465748.403   -17489561.453 6 -13479776.013 9
 94  2  9  5  5  0.0010000  0  8 24  5 13 20  9  7 12  4
  20998692.396   -18529742.984 6 -14358560.048 8
  21994674.536   -13232757.453 6 -10134713.371 8
  22208676.442   -13650327.469 7  -9555757.690 6
  24916920.122     -932132.850 3   -581189.266 1
  21796553.505   -15642790.263 6 -11967464.694 8
  24739436.216    10626056.479 4   8425486.162 2
  21405358.403   -18004552.795 6 -11599020.483 7
  21474842.958   -17441769.473 6 -13442535.510 9
 94  2  9  5  5 30.0010000  0  8 24  5 13 20  9  7 12  4
  20994524.286   -18551632.249 6 -14375616.611 8
  21982741.966   -13295457.102 7 -10183570.243 8
  22221196.130   -13584536.814 7  -9504492.252 6
  24899164.950    -1025432.794 3   -653890.517 2
  21805231.216   -15597204.570 6 -11931943.386 8
  24754589.114    10705657.801 4   8487513.151 4
  21406213.021   -18000059.037 6 -11595518.869 7
  21484032.474   -17393466.489 6 -13404896.821 9
 94  2  9  5  6  0.0010000  0  8 24  5 13 20  9  7 12  4
  20990459.278   -18572989.082 6 -14392258.288 8
  21970848.341   -13357955.570 6 -10232270.345 8
  22233738.755   -13518605.355 6  -9453117.080 6
  24881410.075    -1118745.976 3   -726602.039 2
  21814007.083   -15551097.026 6 -11896015.438 8
  24769735.286    10785286.535 4   8549561.505 4
  21407180.302   -17994970.418 6 -11591553.711 7
  21493321.661   -17344658.256 6 -13366864.431 9
 94  2  9  5  6 30.0010000  0  8 24  5 13 20  9  7 12  4
  20986494.974   -18593824.913 6 -14408493.991 8
  21958996.583   -13420242.004 7 -10280805.229 8
  22246312.270   -13452534.490 6  -9401633.296 6
  24863644.685    -1212070.297 3   -799322.263 1
  21822880.497   -15504465.082 6 -11859678.870 8
  24784896.099    10864937.670 4   8611627.304 3
  21408265.638   -17989285.813 6 -11587124.151 7
  21502708.903   -17295338.211 7 -13328433.225 9
 94  2  9  5  7  0.0010000  0  8 24  5 13 20  9  7 12  4
  20982631.864   -18614137.333 6 -14424321.841 8
  21947181.638   -13482321.238 7 -10329178.657 8
  22258911.646   -13386325.897 6  -9350042.182 6
  24845900.153    -1305403.911 3   -872049.728 2
  21831852.646   -15457306.557 6 -11822931.976 8
  24800056.841    10944594.336 4   8673697.436 2
  21409459.958   -17983004.333 6 -11582229.496 7
  21512187.036   -17245519.857 6 -13289613.727 9
 94  2  9  5  7 30.0010000  0  8 24  5 13 20  9  7 12  4
  20978867.817   -18633915.487 6 -14439733.385 8
  21935414.825   -13544163.441 7 -10377367.384 8
  22271537.911   -13319971.858 6  -9298337.738 6
  24828131.286    -1398735.785 3   -944775.826 1
  21840930.989   -15409611.300 6 -11785766.859 8
  24815212.067    11024238.378 4   8735757.716 4
  21410769.856   -17976115.946 6 -11576861.933 7
  21521760.380   -17195213.399 6 -13250413.889 9
 94  2  9  5  8  0.0010000  0  8 24  5 13 20  9  7 12  4
  20975200.685   -18653180.899 6 -14454745.387 8
  21923690.067   -13605774.096 7 -10425375.685 8
  22284187.685   -13253489.745 6  -9246533.493 6
  24810365.755    -1492079.789 3  -1017511.417 1
  21850101.388   -15361412.347 6 -11748209.237 8
  24830363.138    11103842.533 4   8797786.918 5
  21412194.458   -17968635.819 6 -11571033.262 7
  21531422.630   -17144446.506 6 -13210855.275 9
 94  2  9  5  8 30.0010000  0  8 24  5 13 20  9  7 12  4
  20971637.013   -18671922.432 6 -14469349.177 8
  21912006.747   -13667168.060 7 -10473215.137 9
  22296862.521   -13186883.213 6  -9194632.296 6
  24792602.810    -1585435.833 3  -1090256.361 3
  21859366.544   -15312726.551 6 -11710272.257 8
  24845501.536    11183412.085 3   8859789.165 4
  21413729.966   -17960565.122 6 -11564744.414 7
  21541171.591   -17093224.674 6 -13170942.157 9
 94  2  9  5  9  0.0010000  0  8 24  5 13 20  9  7 12  4
  20968171.161   -18690115.139 6 -14483525.302 8
  21900364.646   -13728350.209 7 -10520889.538 8
  22309566.325   -13120143.482 7  -9142627.309 6
  24774834.583    -1678792.042 3  -1163001.427 3
  21868723.466   -15263558.728 6 -11671959.684 8
  24860642.067    11262963.312 3   8921777.099 2
  21415380.552   -17951892.867 6 -11557986.816 7
  21551001.403   -17041547.484 7 -13130674.217 9
 94  2  9  5  9 30.0010000  0  8 24  5 13 20  9  7 12  4
  20964816.974   -18707756.800 6 -14497272.049 8
  21888762.935   -13789318.306 7 -10568397.145 8
  22322287.075   -13053278.220 6  -9090524.514 6
  24757070.114    -1772152.748 3  -1235750.018 2
  21878172.278   -15213918.614 6 -11633279.091 8
  24875774.661    11342502.058 4   8983755.373 2
  21417143.731   -17942624.224 6 -11550764.500 7
  21560922.177   -16989413.675 6 -13090050.467 9
 94  2  9  5 10  0.0010000  0  8 24  5 13 20  9  7 12  4
  20961560.856   -18724854.883 6 -14510595.222 8
  21877197.294   -13850091.087 7 -10615752.565 8
  22335035.333   -12986293.352 6  -9038328.520 6
  24739298.614    -1865520.157 3  -1308503.817 2
  21887700.513   -15163817.085 6 -11594238.952 8
  24890906.450    11422034.992 3   9045729.067 3
  21419019.778   -17932762.919 6 -11543080.375 7
  21570931.669   -16936810.485 6 -13049060.976 9
 94  2  9  5 10 30.0010000  0  8 24  5 13 20  9  7 12  4
  20958416.317   -18741385.122 6 -14523475.920 8
  21865673.778   -13910650.645 7 -10662941.829 9
  22347808.060   -12919178.211 6  -8986031.005 6
  24721534.278    -1958880.391 3  -1381252.033 2
  21897329.700   -15113237.284 6 -11554826.127 8
  24906046.958    11501580.806 3   9107712.779 3
  21421012.419   -17922296.220 6 -11534924.514 7
  21581034.981   -16883715.458 6 -13007688.215 9
 94  2  9  5 11  0.0010000  0  8 24  5 13 20  9  7 12  4
  20955373.177   -18757369.309 6 -14535931.122 8
  21854195.083   -13970970.652 7 -10709944.439 9
  22360601.497   -12851941.553 6  -8933638.809 6
  24703775.380    -2052238.759 4  -1453998.815 2
  21907049.114   -15062169.696 6 -11515033.207 8
  24921186.872    11581135.454 4   9169703.418 4
  21423118.731   -17911230.840 6 -11526302.143 7
  21591233.763   -16830132.047 7 -12965934.914 9
 94  2  9  5 11 30.0010000  0  8 24  5 13 20  9  7 12  4
  20952433.778   -18772816.551 6 -14547967.929 7
  21842767.763   -14031023.097 7 -10756738.556 9
  22373422.286   -12784575.048 6  -8881145.435 6
  24686013.372    -2145583.158 3  -1526734.703 2
  21916862.763   -15010596.979 6 -11474846.693 8
  24936327.349    11660702.701 3   9231703.890 3
  21425338.364   -17899555.969 6 -11517204.849 7
  21601524.325   -16776051.819 7 -12923794.477 9
 94  2  9  5 12  0.0010000  0  8 24  5 13 20  9  7 12  4
  20949594.505   -18787736.795 6 -14559594.086 8
  21831390.271   -14090815.550 7 -10803330.077 9
  22386264.755   -12717084.931 6  -8828555.733 6
  24668253.083    -2238916.675 4  -1599462.083 2
  21926771.419   -14958524.241 6 -11434270.542 8
  24951468.903    11740274.660 3   9293707.965 4
  21427676.966   -17887276.048 6 -11507636.084 7
  21611907.841   -16721480.461 7 -12881271.340 9
 94  2  9  5 12 30.0010000  0  8 24  5 13 20  9  7 12  4
  20946856.325   -18802122.171 6 -14570803.459 8
  21820068.099   -14150322.366 7 -10849699.026 9
  22399128.739   -12649466.752 6  -8775866.250 6
  24650495.466    -2332231.301 4  -1672174.804 3
  21936775.271   -14905941.903 6 -11393297.306 8
  24966611.427    11819853.197 4   9355717.214 5
  21430129.771   -17874384.403 6 -11497590.653 7
  21622388.310   -16666425.879 6 -12838371.667 9
 94  2  9  5 13  0.0010000  0  8 24  5 13 20  9  7 12  4
  20944218.669   -18815990.594 6 -14581610.024 8
  21808794.146   -14209558.169 7 -10895856.795 9
  22412021.458   -12581728.406 6  -8723083.131 6
  24632736.341    -2425531.760 3  -1744876.434 3
  21946879.981   -14852852.678 6 -11351929.085 8
  24981750.896    11899413.972 3   9417712.598 3
  21432695.591   -17860887.099 6 -11487073.278 7
  21632946.497   -16610913.732 6 -12795115.451 9
 94  2  9  5 13 30.0010000  0  8 24  5 13 20  9  7 12  4
  20941682.122   -18829341.422 6 -14592013.249 8
  21797567.294   -14268562.241 7 -10941833.992 9
  22424933.122   -12513880.929 6  -8670214.969 6
  24614985.536    -2518825.471 3  -1817572.841 2
  21957072.544   -14799272.631 6 -11310178.412 8
  24996885.278    11978945.179 3   9479684.954 3
  21435378.474   -17846793.087 6 -11476090.930 7
  21643596.450   -16554961.650 7 -12751516.423 9
 94  2  9  5 14  0.0010000  0  8 24  5 13 20  9  7 12  4
  20939241.091   -18842163.901 6 -14602004.802 7
  21786378.450   -14327346.734 7 -10987640.100 9
  22437861.536   -12445926.322 6  -8617263.332 6
  24597232.700    -2612110.998 3  -1890262.874 3
  21967360.450   -14745216.904 6 -11268057.083 8
  25012015.724    12058454.836 3   9541640.523 3
  21438175.864   -17832102.296 6 -11464643.568 7
  21654325.177   -16498578.143 7 -12707581.224 9
 94  2  9  5 14 30.0010000  0  8 24  5 13 20  9  7 12  4
  20936901.630   -18854450.883 6 -14611579.059 8
  21775238.356   -14385892.775 7 -11033260.393 9
  22450818.903   -12377853.664 6  -8564219.705 6
  24579485.278    -2705373.913 3  -1962935.305 3
  21977735.692   -14690674.909 6 -11225556.836 8
  25027147.763    12137955.446 3   9603589.035 3
  21441086.856   -17816802.066 6 -11452721.321 7
  21665137.567   -16441762.633 6 -12663309.398 9
 94  2  9  5 15  0.0010000  0  8 24  5 13 20  9  7 12  4
  20934662.942   -18866213.213 6 -14620744.496 8
  21764138.349   -14444219.634 7 -11078709.895 9
  22463791.778   -12309672.677 6  -8511091.665 6
  24561743.513    -2798620.711 4  -2035595.153 2
  21988210.286   -14635650.378 6 -11182680.586 8
  25042268.927    12217459.363 3   9665540.126 3
  21444113.755   -17800900.031 6 -11440330.128 7
  21676027.638   -16384519.952 6 -12618704.712 9
 94  2  9  5 15 30.0010000  0  8 24  5 13 20  9  7 12  4
  20932522.372   -18877453.274 6 -14629502.984 8
  21753081.028   -14502327.728 7 -11123988.924 9
  22476785.755   -12241390.574 6  -8457884.828 6
  24544004.481    -2891855.184 4  -2108245.374 2
  21998766.231   -14580157.274 6 -11139439.218 8
  25057410.044    12296974.328 3   9727499.821 4
  21447250.794   -17784401.875 6 -11427474.433 7
  21687005.786   -16326845.040 7 -12573763.231 9
 94  2  9  5 16  0.0010000  0  8 24  5 13 20  9  7 12  4
  20930483.919   -18888175.212 6 -14637857.735 7
  21742069.849   -14560194.154 7 -11169079.645 9
  22489798.521   -12173005.122 6  -8404597.464 6
  24526265.685    -2985071.630 4  -2180881.566 1
  22009421.575   -14524182.748 6 -11095822.718 8
  25072543.505    12376503.661 3   9789470.725 2
  21450505.942   -17767303.376 6 -11414150.927 7
  21698065.997   -16268731.616 7 -12528480.039 9
 94  2  9  5 16 30.0010000  0  8 24  5 13 20  9  7 12  4
  20928543.700   -18898373.932 6 -14645804.786 8
  21731106.653   -14617811.624 7 -11213976.381 9
  22502831.505   -12104519.985 6  -8351232.422 6
  24508529.060    -3078270.192 3  -2253503.812 3
  22020170.153   -14467701.482 6 -11051811.356 8
  25087670.614    12456048.260 3   9851453.517 4
  21453871.942   -17749606.602 6 -11400361.258 7
  21709204.646   -16210174.120 6 -12482850.820 9
 94  2  9  5 17  0.0010000  0  8 24  5 13 20  9  7 12  4
  20926704.755   -18908030.017 6 -14653329.002 7
  21720188.380   -14675180.043 7 -11258679.043 9
  22515884.935   -12035934.622 6  -8297789.286 6
  24490796.505    -3171446.898 4  -2326109.052 2
  22031013.911   -14410711.720 6 -11007403.766 8
  25102813.794    12535598.036 3   9913440.326 2
  21457355.685   -17731308.977 6 -11386103.364 7
  21720435.278   -16151164.402 7 -12436869.222 9
 94  2  9  5 17 30.0010000  0  7 24  5 13 20  9 12  4
  20924972.005   -18917118.784 6 -14660411.152 7
  21709323.388   -14732272.297 7 -11303166.519 9
  22528955.310   -11967233.452 6  -8244255.902 6
  24473074.606    -3264582.796 3  -2398682.501 3
  22041958.997   -14353207.488 6 -10962595.284 8
  21460954.122   -17712393.582 6 -11371364.105 7
  21731753.950   -16091685.585 7 -12390522.090 9
 94  2  9  5 18  0.0010000  0  7 24  5 13 20  9 12  4
  20923348.435   -18925656.006 6 -14667063.520 8
  21698509.919   -14789100.409 7 -11347448.159 9
  22542045.989   -11898433.388 6  -8190645.460 6
  24455358.153    -3357691.258 3  -2471234.564 3
  22052995.614   -14295201.461 6 -10917395.797 8
  21464670.341   -17692875.426 6 -11356155.155 7
  21743156.333   -16031758.793 7 -12343825.888 9
 94  2  9  5 18 30.0010000  0  7 24  5 13 20  9 12  4
  20921830.302   -18933645.967 6 -14673289.462 8
  21687745.786   -14845665.852 7 -11391525.125 9
  22555155.528   -11829540.425 6  -8136962.632 6
  24437638.286    -3450775.051 4  -2543767.390 3
  22064126.349   -14236723.102 6 -10871828.253 8
  21468497.325   -17672758.852 6 -11340479.906 7
  21754646.880   -15971398.110 7 -12296791.590 9
 94  2  9  5 19  0.0010000  0  7 24  5 13 20  9 12  4
  20920410.216   -18941118.323 6 -14679112.074 7
  21677028.880   -14901986.039 7 -11435410.983 9
  22568282.903   -11760563.291 6  -8083214.225 6
  24419933.075    -3543839.224 4  -2616284.917 3
  22075330.270   -14177811.946 6 -10825923.471 8
  21472436.692   -17652051.135 6 -11324344.036 7
  21766210.216   -15910620.288 6 -12249432.252 9
 94  2  9  5 19 30.0010000  0  7 24  5 13 20  9 12  4
  20919081.942   -18948081.090 6 -14684537.596 7
  21666363.833   -14958038.609 7 -11479088.319 9
  22581430.013   -11691482.831 6  -8029385.294 6
  24402233.130    -3636861.334 4  -2688769.692 3
  22086625.638   -14118459.466 6 -10779674.802 8
  21476496.481   -17630731.464 6 -11307731.314 7
  21777857.200   -15849414.930 7 -12201739.763 9
 94  2  9  5 20  0.0010000  0  7 24  5 13 20  9 12  4
  20917852.677   -18954547.809 6 -14689576.593 7
  21655749.341   -15013825.769 7 -11522558.836 9
  22594591.739   -11622305.197 6  -7975480.645 6
  24384535.700    -3729844.166 4  -2761223.848 3
  22098003.810   -14058685.139 6 -10733097.420 8
  21480666.450   -17608804.684 6 -11290645.515 7
  21789582.013   -15787805.305 7 -12153732.264 9
 94  2  9  5 20 30.0010000  0  7 24  5 13 20  9 12  4
  20916715.106   -18960523.860 6 -14694233.252 7
  21645180.239   -15069357.794 7 -11565830.545 9
  22607770.810   -11553052.436 6  -7921517.464 6
  24366847.872    -3822806.167 4  -2833661.749 3
  22109455.575   -13998510.160 6 -10686207.840 8
  21484952.271   -17586291.388 6 -11273102.690 7
  21801380.481   -15725803.875 7 -12105419.456 9
 94  2  9  5 21  0.0010000  0  7 24  5 13 20  9 12  4
  20915679.364   -18965975.491 6 -14698481.270 7
  21634664.435   -15124614.044 7 -11608887.365 9
  22620970.146   -11483709.245 6  -7867483.801 6
  24349162.169    -3915728.778 4  -2906068.985 5
  22120985.114   -13937904.676 6 -10638982.801 8
  21489349.302   -17563174.664 6 -11255089.671 7
  21813258.021   -15663379.462 7 -12056777.058 9
 94  2  9  5 21 30.0010000  0  7 24  5 13 20  9 12  4
  20914742.075   -18970883.904 6 -14702306.006 7
  21624205.044   -15179572.108 7 -11651711.830 9
  22634178.403   -11414279.941 6  -7813383.047 6
  24331490.114    -4008612.840 4  -2978446.175 3
  22132598.396   -13876861.679 6 -10591416.846 8
  21493864.466   -17539457.488 6 -11236608.751 7
  21825219.317   -15600526.322 7 -12007800.582 9
 94  2  9  5 22  0.0010000  0  7 24  5 13 20  9 12  4
  20913921.130   -18975214.558 6 -14705680.540 7
  21613808.192   -15234219.124 7 -11694293.918 9
  22647406.364   -11344763.779 6  -7759214.616 6
  24313821.427    -4101454.423 4  -3050790.247 3
  22144305.692   -13815358.663 6 -10543492.440 8
  21498490.208   -17515137.775 6 -11217658.338 7
  21837265.903   -15537231.365 7 -11958479.850 9
 94  2  9  5 22 30.0010000  0  7 24  5 13 20  9 12  4
  20913205.458   -18978960.604 6 -14708599.519 7
  21603466.927   -15288561.655 7 -11736638.746 9
  22660653.677   -11275161.530 6  -7704979.104 6
  24296159.716    -4194250.834 4  -3123099.134 3
  22156101.778   -13753374.375 6 -10495193.001 8
  21503234.302   -17490215.067 6 -11198238.052 7
  21849396.638   -15473477.631 7 -11908801.613 9
 94  2  9  5 23  0.0010000  0  7 24  5 13 20  9 12  4
  20912598.817   -18982167.680 6 -14711098.540 7
  21593177.661   -15342622.397 7 -11778763.999 9
  22673909.880   -11205492.168 6  -7650691.284 6
  24278511.411    -4287017.387 5  -3195384.754 4
  22167982.474   -13690939.921 6 -10446542.802 7
  21508088.661   -17464706.854 6 -11178361.527 7
  21861608.067   -15409305.966 7 -11858797.716 9
 94  2  9  5 23 30.0010000  0  7 24  5 13 20  9 12  4
  20912093.013   -18984819.084 6 -14713164.562 7
  21582950.294   -15396368.847 7 -11820644.354 9
  22687186.114   -11135729.698 6  -7596330.935 6
  24260867.325    -4379724.630 4  -3267624.159 3
  22179957.122   -13628028.643 6 -10397521.033 7
  21513059.880   -17438586.075 6 -11158007.681 7
  21873896.528   -15344716.791 7 -11808468.485 9
 94  2  9  5 24  0.0010000  0  7 24  5 13 20  9 12  4
  20911689.083   -18986939.518 6 -14714816.844 7
  21572780.364   -15449819.492 7 -11862294.208 9
  22700474.950   -11065886.679 6  -7541907.805 6
  24243235.153    -4472381.779 4  -3339824.518 4
  22192014.630   -13564649.870 6 -10348134.998 7
  21518143.864   -17411864.188 6 -11137185.445 7
  21886263.450   -15279729.923 7 -11757829.374 9
 94  2  9  5 24 30.0010000  0  7 24  5 13 20  9 12  4
  20911384.341   -18988544.543 6 -14716067.512 7
  21562664.583   -15502974.453 7 -11903713.653 9
  22713782.669   -10995961.439 6  -7487420.607 6
  24225617.341    -4564983.600 5  -3411981.800 4
  22204163.083   -13500821.465 6 -10298398.585 7
  21523343.200   -17384538.100 6 -11115892.395 7
  21898703.810   -15214350.120 7 -11706884.080 8
 94  2  9  5 25  0.0010000  0  7 24  5 13 20  9 12  4
  20911176.302   -18989636.295 6 -14716918.215 7
  21552605.825   -15555832.090 7 -11944901.431 9
  22727104.935   -10925963.808 6  -7432877.003 6
  24208004.856    -4657536.577 5  -3484100.973 3
  22216389.997   -13436558.400 6 -10248323.480 7
  21528657.396   -17356616.725 6 -11094135.486 7
  21911216.185   -15148595.552 6 -11655646.748 9
 94  2  9  5 25 30.0010000  0  7 24  5 13 20  9 12  4
  20911069.489   -18990190.973 6
  21542606.505   -15608391.370 7 -11985856.711 9
  22740435.271   -10855892.951 6  -7378276.334 6
  24190403.146    -4750036.659 5  -3556178.944 4
  22228706.700   -13371845.847 6 -10197898.130 7
  21534083.333   -17328098.011 6 -11071913.117 7
  21923805.700   -15082444.416 6 -11604100.406 9
 94  2  9  5 26  0.0010000  0  7 24  5 13 20  9 12  4
  20911069.185   -18990188.363 6
  21532657.763   -15660657.166 7 -12026583.309 9
  22753790.349   -10785734.294 6  -7323607.260 6
  24172811.286    -4842465.703 5  -3628201.574 5
  22241106.481   -13306681.975 6 -10147121.096 7
  21539625.841   -17298966.249 6 -11049213.047 7
  21936479.099   -15015854.047 7 -11552211.814 9
 94  2  9  5 26 30.0010000  0  8 24  5 13 20  9 16 12  4
  20911175.575   -18989639.130 6
  21522765.583   -15712643.481 7 -12067092.123 9
  22767151.075   -10715505.502 6  -7268883.518 6
  24155227.771    -4934837.854 5  -3700179.872 2
  22253585.833   -13241093.765 6 -10096013.414 7
  25245802.474          -0.30313
  21545282.958   -17269238.013 6 -11026048.201 7
  21949230.325   -14948844.066 7 -11499996.243 9
 94  2  9  5 27  0.0010000  0  8 24  5 13 20  9 16 12  4
  20911384.435   -18988553.089 6 -14716074.143 7
  21512923.880   -15764349.601 7 -12107382.606 9
  22780528.216   -10645206.884 6  -7214105.374 6
  24137666.302    -5027149.983 5  -3772111.404 5
  22266145.442   -13175079.052 6 -10044573.389 7
  25229004.192      -88251.955 3        -0.46611
  21551053.997   -17238913.045 6 -11002418.360 7
  21962063.458   -14881415.508 7 -11447454.508 8
 94  2  9  5 27 30.0010000  0  8 24  5 13 20  9 16 12  4
  20911687.771   -18986946.636 6 -14714822.355 7
  21503138.810   -15815779.999 7 -12147458.238 9
  22793915.224   -10574842.605 6  -7159276.085 6
  24120113.794    -5119402.929 5  -3843996.777 3
  22278786.294   -13108659.823 6  -9992818.152 7
  25212208.325     -176575.384 3    -68823.917 1
  21556938.560   -17207994.413 6 -10978325.930 7
  21974974.771   -14813567.287 7 -11394585.771 9
 94  2  9  5 28  0.0010000  0  8 24  5 13 20  9 16 12  4
  20912090.395   -18984835.646 6 -14713177.424 7
  21493410.060   -15866921.638 7 -12187308.865 9
  22807321.802   -10504411.102 6  -7104394.390 6
  24102570.044    -5211591.581 5  -3915832.078 4
  22291498.036   -13041846.086 6  -9940755.521 7
  25195387.903     -264994.183 3   -137721.699 1
  21562932.950   -17176479.429 6 -10953768.810 7
  21987961.317   -14745314.445 7 -11341401.739 8
 94  2  9  5 28 30.0010000  0  8 24  5 13 20  9 16 12  4
  20912582.060   -18982240.233 6 -14711155.017 8
  21483736.810   -15917757.755 7 -12226921.425 9
  22820738.685   -10433918.574 6  -7049465.148 6
  24085037.888    -5303719.085 5  -3987619.713 5
  22304289.942   -12974632.642 6  -9888381.421 7
  25178537.685     -353534.855 3   -206714.419 1
  21569046.700   -17144373.618 6 -10928751.308 7
  22001020.669   -14676679.990 7 -11287920.341 8
 94  2  9  5 29  0.0010000  0  8 24  5 13 20  9 16 12  4
  20913169.669   -18979150.364 6 -14708747.321 7
  21474120.427   -15968283.266 7 -12266291.949 9
  22834164.763   -10363360.105 6  -6994484.524 6
  24067522.286    -5395777.006 5  -4059353.170 4
  22317154.497   -12907016.012 6  -9835693.145 7
  25161661.606     -442187.657 3   -275794.494 1
  21575271.630   -17111671.335 6 -10903269.008 7
  22014152.911   -14607662.587 7 -11234140.546 9
 94  2  9  5 29 30.0010000  0  8 24  5 13 20  9 16 12  4
  20913853.958   -18975554.918 6 -14705945.665 8
  21464564.771   -16018492.742 7 -12305416.220 9
  22847597.786   -10292739.988 6  -6939455.858 6
  24050012.356    -5487766.226 5  -4131033.068 5
  22330103.403   -12838994.863 6  -9782689.668 7
  25144753.724     -530945.798 2   -344956.658 2
  21581602.841   -17078375.933 6 -10877324.550 7
  22027359.794   -14538274.339 7 -11180071.791 8
 94  2  9  5 30  0.0010000  0  8 24  5 13 20  9 16 12  4
  20914637.044   -18971449.425 7 -14702746.573 7
  21455073.739   -16068371.955 7 -12344283.127 9
  22861052.880   -10222051.350 6  -6884373.811 6
  24032527.403    -5579676.565 5  -4202651.498 4
  22343128.544   -12770544.300 6  -9729351.581 7
  25127846.091     -619779.320 2   -414177.558 2
  21588053.099   -17044479.687 6 -10850911.905 7
  22040633.810   -14468513.060 7 -11125712.352 8
 94  2  9  5 30 30.0010000  0  8 24  5 13 20  9 16 12  4
  20915514.075   -18966829.904 6 -14699146.944 7
  21445641.591   -16117929.877 7 -12382899.693 9
  22874514.013   -10151305.146 6  -6829246.896 6
  24015052.614    -5671515.309 5  -4274214.138 4
  22356232.981   -12701665.596 6  -9675679.871 7
  25110937.310     -708669.935 2   -483442.949 3
  21594619.286   -17009992.894 6 -10824039.085 7
  22053979.739   -14398386.611 7 -11071068.372 8
 94  2  9  5 31  0.0010000  0  8 24  5 13 20  9 16 12  4
  20916492.896   -18961690.179 6 -14695141.952 7
  21436271.224   -16167176.095 7 -12421273.367 9
  22887987.466   -10080510.978 6
  23997590.153    -5763288.763 5  -4345725.936 5
  22369421.364   -12632363.373 6  -9621678.159 7
  25094025.794     -797622.711 3   -552756.800 2
  21601287.997   -16974924.568 6 -10796713.120 7
  22067390.466   -14327904.671 7
 94  2  9  5 31 30.0010000  0  8 24  5 13 20  9 16 12  4
  20917569.247   -18956024.823 7 -14690727.393 7
  21426961.614   -16216096.235 7 -12459392.956 9
  22901472.763   -10009658.921 6
  23980133.700    -5854983.727 5  -4417176.554 5
  22382691.263   -12562619.510 6  -9567332.309 7
  25077097.583     -886629.039 3   -622112.389 2
  21608077.146   -16939264.147 6 -10768925.788 7
  22080873.114   -14257053.393 7 -10960938.590 8
 94  2  9  5 32  0.0010000  0  8 24  5 13 20  9 16 12  4
  20918751.700   -18949823.959 7 -14685895.544 7
  21417714.841   -16264695.279 7 -12497262.340 9
  22914960.966    -9938751.257 6
  23962703.638    -5946599.000 5  -4488565.066 5
  22396052.481   -12492437.670 6  -9512645.161 7
  25060131.341     -975696.039 3   -691515.264 1
  21614972.099   -16903013.121 6 -10740678.251 7
  22094425.427   -14185829.196 7 -10905439.225 8
 94  2  9  5 32 30.0010000  0  8 24  5 13 20  9 16 12  4
  20920033.403   -18943069.896 6 -14680632.625 7
  21408525.528   -16312975.157 7 -12534883.021 9
  22928466.919    -9867790.838 6
  23945287.028    -6038134.228 5  -4559891.219 5
  22409486.747   -12421826.503 6
  25043173.880    -1064830.928 3   -760971.070 1
  21621985.224   -16866174.228 6 -10711972.630 7
  22108050.919   -14114244.801 7 -10849659.168 8
 94  2  9  5 33  0.0010000  0  8 24  5 13 20  9 16 12  4
  20921427.778   -18935760.607 6 -14674937.077 7
  21399401.747   -16360937.768 7 -12572256.489 9
  22941977.231    -9796779.282 6
  23927880.794    -6129587.252 5  -4631153.303 4
  22423002.294   -12350799.969 6
  25026198.083    -1154034.200 3   -830480.161 2
  21629107.833   -16828747.945 6 -10682809.300 7
  22121737.872   -14042302.015 6 -10793599.856 9
 94  2  9  5 33 30.0010000  0  8 24  5 13 20  9 16 12  4
  20922918.255   -18927920.331 7 -14668827.768 7
  21390334.747   -16408591.351 7 -12609389.145 9
  22955499.231    -9725731.842 6        -0.35616
  23910489.130    -6220969.932 5  -4702360.582 5
  22436592.661   -12279382.532 6  -9346628.209 7
  25009212.388    -1243303.863 3   -900040.944 2
  21636339.880   -16790749.258 6 -10653199.941 7
  22135493.583   -13970014.429 7 -10737271.872 8
 94  2  9  5 34  0.0010000  0  8 24  5 13 20  9 16 12  4
  20924512.317   -18919543.930 6 -14662300.700 7
  21381327.771   -16455919.559 7 -12646268.269 9
  22969030.356    -9654632.470 6     55401.751 6
  23893120.192    -6312262.908 5  -4773497.953 5
  22450258.161   -12207565.892 6  -9290667.208 7
  24992217.935    -1332618.403 3   -969636.721 1
  21643678.388   -16752161.804 6 -10623131.806 7
  22149317.661   -13897366.322 7 -10680662.955 8
 94  2  9  5 34 30.0010000  0  8 24  5 13 20  9 16 12  4
  20926205.161   -18910654.935 7 -14655374.201 7
  21372381.435   -16502924.016 7 -12682895.117 9
  22982566.138    -9583487.634 6    110839.282 6
  23875765.271    -6403469.495 5  -4844568.020 5
  22463999.036   -12135379.176 6  -9234417.828 7
  24975220.271    -1421976.608 3  -1039266.479 1
  21651135.364   -16712991.605 6 -10592609.579 7
  22163209.630   -13824369.806 6 -10623782.556 8
 94  2  9  5 35  0.0010000  0  8 24  5 13 20  9 16 12  4
  20927987.872   -18901277.582 6 -14648067.170 7
  21363498.341   -16549601.588 7 -12719267.249 9
  22996112.106    -9512302.282 6    166308.377 6
  23858425.880    -6494590.943 5  -4915571.738 4
  22477801.005   -12062837.010 6  -9177891.481 7
  24958202.997    -1511386.584 3  -1108936.590 1
  21658699.146   -16673243.163 6 -10561636.778 7
  22177172.231   -13751016.210 7 -10566623.909 8
 94  2  9  5 35 30.0010000  0  8 24  5 13 20  9 16 12  4
  20929865.794   -18891411.262 7 -14640379.126 7
  21354681.364   -16595928.771 7 -12755366.354 9
  23009667.880    -9441064.535 6    221818.320 6
  23841099.630    -6585612.135 5  -4986497.347 4
  22491672.099   -11989943.111 6  -9121091.050 7
  24941161.411    -1600844.702 3  -1178644.256 3
  21666376.739   -16632904.346 6 -10530203.941 7
  22191197.661   -13677289.000 6 -10509174.141 8
 94  2  9  5 36  0.0010000  0  8 24  5 13 20  9 16 12  4
  20931840.685   -18881042.615 7 -14632299.656 7
  21345935.583   -16641896.135 7 -12791185.082 9
  23023237.849    -9369772.639 6    277370.437 6
  23823793.919    -6676528.106 5  -5057340.950 5
  22505605.708   -11916700.880 6  -9064019.191 7
  24924142.630    -1690352.800 3  -1248390.830 1
  21674162.708   -16591973.203 6 -10498309.556 7
  22205299.677   -13603195.948 6 -10451439.297 8
 94  2  9  5 36 30.0010000  0  8 24  5 13 20  9 16 12  4
  20933907.646   -18870178.669 7 -14623834.243 7
  21337257.122   -16687507.159 7 -12826726.138 9
  23036806.130    -9298446.863 6    332948.944 6
  23806515.810    -6767355.662 5  -5128115.663 5
  22519610.575   -11843130.353 6  -9006691.517 7
  24907092.263    -1779928.723 3  -1318190.262 1
  21682062.466   -16550469.567 6 -10465969.059 7
  22219459.825   -13528759.530 7 -10393436.894 8
 94  2  9  5 37  0.0010000  0  8 24  5 13 20  9 16 12  4
  20936069.747   -18858815.181 7 -14614979.568 7
  21328645.849   -16732749.707 7 -12861980.072 9
  23050390.552    -9227079.159 6    388560.150 6
  23789256.950    -6858083.154 5  -5198812.389 5
  22533676.161   -11769196.090 6  -8949080.420 7
  24890042.130    -1869559.221 3
  21690069.966   -16508385.057 6 -10433175.947 7
  22233699.356   -13453961.687 6 -10335152.861 8
 94  2  9  5 37 30.0010000  0  8 24  5 13 20  9 16 12  4
  20938330.903   -18846943.466 7 -14605728.881 8
  21320104.474   -16777629.733 7 -12896951.522 9
  23063979.622    -9155667.182 6    444205.843 5
  23772010.442    -6948705.103 5  -5269426.904 5
  22547817.630   -11694884.311 6  -8891175.153 7
  24872983.325    -1959237.008 3
  21698188.161   -16465717.162 6 -10399928.248 7
  22247999.052   -13378814.616 7 -10276596.694 8
 94  2  9  5 38  0.0010000  0  8 24  5 13 20  9 16 12  4
  20940686.020   -18834564.569 7 -14596082.985 7
  21311631.192   -16822167.373 7 -12931656.176 9
  23077570.310    -9084216.372 6    499881.798 6
  23754781.442    -7039223.408 5  -5339960.638 5
  22562033.770   -11620178.784 6  -8832963.067 7
  24855893.950    -2048963.911 3        -0.05811
  21706419.497   -16422471.316 6 -10366230.196 8
  22262364.396   -13303336.745 7 -10217782.778 8
 94  2  9  5 38 30.0010000  0  8 24  5 13 20  9 16 12  4
  20943134.724   -18821695.520 7 -14586055.154 7
  21303215.372   -16866381.019 7 -12966108.371 9
  23091178.255    -9012730.978 6    555584.694 6
  23737576.458    -7129638.938 5  -5410414.296 5
  22576329.895   -11545080.943 6  -8774445.280 7
  24838809.700    -2138736.818 3    -69952.944 1
  21714760.185   -16378651.568 6 -10332084.950 7
  22276786.771   -13227518.232 7 -10158703.425 8
 94  2  9  5 39  0.0010000  0  8 24  5 13 20  9 16 12  4
  20945674.825   -18808328.444 7 -14575639.247 7
  21294863.974   -16910276.336 7 -13000312.514 9
  23104790.505    -8941210.252 6    611315.127 6
  23720390.294    -7219947.672 5  -5480784.725 5
  22590691.997   -11469593.565 6  -8715623.962 7
  24821731.372    -2228543.449 3   -139932.156 1
  21723205.247   -16334257.074 6 -10297491.848 7
  22291280.396   -13151364.131 6 -10099362.571 8
 94  2  9  5 39 30.0010000  0  8 24  5 13 20  9 16 12  4
  20948317.935   -18794446.060 7 -14564821.803 7
  21286575.677   -16953846.027 7 -13034262.924 9
  23118403.450    -8869652.078 6    667074.745 5
  23703228.685    -7310144.152 5  -5551067.683 5
  22605126.966   -11393729.990 6  -8656509.495 7
  24804622.880    -2318385.885 3   -209939.178 1
  21731765.489   -16289285.854 6 -10262449.341 7
  22305833.513   -13074872.662 6 -10039758.828 8
 94  2  9  5 40  0.0010000  0  8 24  5 13 20  9 16 12  4
  20951060.630   -18780048.601 7 -14553602.998 7
  21278347.497   -16997074.986 7 -13067947.825 9
  23132028.255    -8798060.025 6    722860.756 5
  23686083.239    -7400228.476 5
  22619634.653   -11317494.183 6  -8597104.988 7
  24787541.833    -2408245.556 3
  21740431.466   -16243741.253 6 -10226960.054 7
  22320458.935   -12998026.205 6  -9979878.467 8
 94  2  9  5 40 30.0010000  0  8 24  5 13 20  9 16 12  4
  20953892.849   -18765150.057 7 -14541993.738 7
  21270188.692   -17039949.177 7 -13101356.280 9
  23145659.185    -8726439.582 6    778668.882 6
  23668965.513    -7490203.001 5
  22634204.552   -11240903.869 6  -8537424.244 7
  24770436.106    -2498109.184 3
  21749203.903   -16197628.718 6 -10191028.219 7
  22335151.606   -12920819.505 6  -9919717.412 8
 94  2  9  5 41  0.0010000  0  8 24  5 13 20  9 16 12  4
  20956826.013   -18749728.184 7 -14529976.697 7
  21262101.396   -17082445.524 7 -13134470.319 9
  23159291.810    -8654780.609 6    834507.053 5
  23651866.075    -7580054.137 5
  22648851.950   -11163954.219 6  -8477463.490 7
  24753327.255    -2587967.547 3
  21758091.403   -16150938.318 6 -10154646.101 7
  22349912.505   -12843248.505 6  -9859272.472 8
 94  2  9  5 41 30.0010000  0  8 24  5 13 20  9 16 12  4
  20959858.216   -18733806.691 7 -14517570.337 7
  21254088.427   -17124566.025 7 -13167291.488 9
  23172937.310    -8583090.879 6    890369.180 6
  23634792.521    -7669786.366 5
  22663561.974   -11086647.098 6  -8417224.187 7
  24736229.489    -2677828.164 3
  21767082.333   -16103677.889 6 -10117819.796 7
  22364741.692   -12765325.096 6  -9798552.934 8
 94  2  9  5 42  0.0010000  0  8 24  5 13 20  9 16 12  4
  20962978.255   -18717409.513 7 -14504793.307 7
  21246142.872   -17166316.635 7 -13199824.431 9
  23186582.653    -8511379.809 6    946247.928 6
  23617736.786    -7759405.791 5  -5901141.650 5
  22678343.731   -11008984.152 6  -8356707.611 7
  24719129.247    -2767685.580 3   -379524.698 1
  21776183.583   -16055856.764 6 -10080556.596 7
  22379628.903   -12687087.526 7  -9737588.593 8
 94  2  9  5 42 30.0010000  0  8 24  5 13 20  9 16 12  4
  20966189.310   -18700538.885 7 -14491647.359 7
  21238267.927   -17207704.342 7 -13232074.587 9
  23200231.396    -8439652.773 6   1002139.121 5
  23600706.591    -7848914.310 5  -5970888.531 5
  22693186.927   -10930980.145 6  -8295925.275 7
  24702027.372    -2857562.584 3   -449558.724 2
  21785391.622   -16007480.864 6 -10042861.095 7
  22394567.731   -12608565.795 6  -9676402.824 8
 94  2  9  5 43  0.0010000  0  8 24  5 13 20  9 16 12  4
  20969494.997   -18683168.744 7 -14478112.188 8
  21230460.739   -17248713.721 7 -13264029.951 9
  23213882.911    -8367899.773 6   1058050.557 5
  23583694.364    -7938298.777 5  -6040538.755 5
  22708096.208   -10852615.711 6  -8234862.091 7
  24684921.872    -2947452.601 4   -519602.856 1
  21794702.099   -15958540.224 6 -10004725.546 7
  22409568.614   -12529763.535 6  -9614998.474 8
 94  2  9  5 43 30.0010000  0  8 24  5 13 20  9 16 12  4
  20972892.849   -18665311.219 7 -14464197.221 7
  21222731.520   -17289336.390 7 -13295683.980 9
  23227545.950    -8296122.127 6   1113981.186 5
  23566706.560    -8027556.939 5  -6110090.553 5
  22723073.630   -10773899.480 6  -8173524.782 7
  24667821.708    -3037342.924 4   -589647.280 2
  21804124.692   -15909036.498 6  -9966151.224 7
  22424615.708   -12450688.818 6  -9553381.805 8
 94  2  9  5 44  0.0010000  0  8 24  5 13 20  9 16 12  4
  20976385.372   -18646953.316 7 -14449892.365 7
  21215076.349   -17329570.989 7 -13327035.613 9
  23241206.146    -8224323.952 6   1169927.820 5
  23549748.325    -8116689.506 5  -6179544.497 5
  22738120.794   -10694850.125 6  -8111927.904 7
  24650716.419    -3127236.756 4   -659694.387 3
  21813649.013   -15858973.771 6  -9927141.320 7
  22439712.669   -12371337.529 6  -9491549.639 8
 94  2  9  5 44 30.0010000  0  8 24  5 13 20  9 16 12  4
  20979978.638   -18628073.507 7 -14435180.821 8
  21207493.817   -17369410.701 7 -13358079.538 9
  23254874.310    -8152495.783 6   1225897.810 5
  23532811.716    -8205683.806 5  -6248890.697 5
  22753224.185   -10615474.799 6  -8050077.000 7
  24633610.216    -3217124.632 4   -729736.888 3
  21823278.880   -15808343.158 6  -9887688.901 7
  22454871.466   -12291679.575 6  -9429478.508 8
 94  2  9  5 45  0.0010000  0  8 24  5 13 20  9 16 12  4
  20983665.747   -18608698.460 7 -14420083.379 8
  21199985.122   -17408876.998 7 -13388832.492 9
  23268545.255    -8080655.463 6   1281877.284 5
  23515899.216    -8294554.347 5  -6318140.476 5
  22768387.435   -10535793.042 6  -7987987.339 6
  24616500.310    -3307013.352 4   -799780.026 4
  21833024.497   -15757162.845 6  -9847808.150 7
  22470085.802   -12211723.963 6  -9367175.431 7
 94  2  9  5 45 30.0010000  0  8 24  5 13 20  9 16 12  4
  20987447.356   -18588822.211 7 -14404595.386 8
  21192546.372   -17447961.168 7 -13419287.692 9
  23282225.513    -8008784.406 6   1337880.694 5
  23499017.192    -8383279.250 5  -6387276.753 5
  22783608.770   -10455795.423 6  -7925651.542 6
  24599403.364    -3396886.137 4   -869810.746 4
  21842870.614   -15705414.686 6  -9807484.918 7
  22485363.872   -12131444.586 6  -9304620.082 7
 94  2  9  5 46  0.0010000  0  8 24  5 13 20  9 16 12  4
  20991321.536   -18568466.963 7 -14388734.151 7
  21185177.481   -17486691.858 7 -13449467.446 9
  23295903.005    -7936899.590 6   1393894.837 5
  23482159.333    -8471872.114 5  -6456310.142 5
  22798895.763   -10375487.464 6  -7863073.930 6
  24582300.091    -3486765.437 4   -939846.543 3
  21852822.896   -15653115.928 6  -9766732.644 7
  22500701.388   -12050850.667 6  -9241819.617 7
 94  2  9  5 46 30.0010000  0  8 24  5 13 20  9 16 12  4
  20995281.856   -18547649.859 7 -14372513.030 8
  21177873.067   -17525067.101 7 -13479370.236 9
  23309583.278    -7864996.864 6   1449922.931 5
  23465325.216    -8560325.268 5  -6525234.678 5
  22814235.567   -10294856.647 6  -7800244.738 6
  24565198.294    -3576637.319 4  -1009876.541 3
  21862881.302   -15600262.795 6  -9725548.394 8
  22516097.677   -11969943.512 6  -9178775.091 7
 94  2  9  5 47  0.0010000  0  8 24  5 13 20  9 16 12  4
  20999327.825   -18526383.724 7 -14355942.013 8
  21170639.958   -17563075.772 7 -13508987.375 9
  23323269.849    -7793080.539 6   1505961.638 5
  23448522.700    -8648639.843 5  -6594051.222 5
  22829643.052   -10213898.537 6  -7737160.495 6
  24548090.513    -3666501.307 4  -1079900.380 2
  21873042.278   -15546860.134 6  -9683935.945 8
  22531551.599   -11888722.388 6  -9115485.898 8
 94  2  9  5 47 30.0010000  0  8 24  5 13 20  9 16 12  4
  21003464.013   -18504649.187 7 -14339006.003 8
  21163481.044   -17600696.420 7 -13538302.167 9
  23336964.302    -7721142.662 6   1562017.121 5
  23431742.356    -8736804.867 5  -6662751.236 5
  22845111.294   -10132598.662 6  -7673809.964 6
  24531002.692    -3756338.910 4  -1149903.642 2
  21883310.271   -15492900.647 6  -9641889.604 7
  22547067.958   -11807179.670 6  -9051946.123 8
 94  2  9  5 48  0.0010000  0  8 24  5 13 20  9 16 12  4
  21007690.169   -18482444.460 7 -14321703.619 7
  21156399.692   -17637924.350 7 -13567310.938 9
  23350648.856    -7649193.059 6   1618081.734 5
  23414995.708    -8824826.886 5  -6731339.818 5
  22860645.411   -10050967.188 6  -7610201.035 6
  24513913.528    -3846150.121 3  -1219886.352 1
  21893685.880   -15438394.717 6  -9599417.455 8
  22562643.646   -11725329.172 6  -8988166.510 8
 94  2  9  5 48 30.0010000  0  8 24  5 13 20  9 16 12  4
  21012006.810   -18459755.925 7 -14304024.236 7
  21149388.591   -17674757.021 7 -13596011.721 9
  23364342.927    -7577233.644 6   1674154.006 5
  23398269.833    -8912704.435 5  -6799815.829 5
  22876240.356    -9969015.259 6  -7546342.398 6
  24496818.669    -3935930.286 3  -1289844.879 1
  21904158.114   -15383344.698 6  -9556521.358 8
  22578276.544   -11643179.814 6  -8924154.028 8
 94  2  9  5 49  0.0020000  0  8 24  5 13 20  9 16 12  4
  21016421.221   -18436563.729 7 -14285952.391 8
  21142454.158   -17711192.089 7 -13624402.687 9
  23378037.885    -7505265.423 6   1730233.142 5
  23381575.643    -9000440.344 5  -6868181.461 5
  22891896.877    -9886748.276 6
  24479730.893    -4025687.535 3  -1359785.594 3
  21914735.424   -15327752.805 6  -9513203.000 7
  22593968.580   -11560729.918 6
 94  2  9  5 49 30.0020000  0  8 24  5 13 20  9 16 12  4
  21020933.416   -18412861.247 7 -14267482.924 8
  21135597.557   -17747226.559 7 -13652481.490 9
  23391737.393    -7433286.927 6   1786320.281 5
  23364910.799    -9088019.090 5  -6936424.651 5
  22907605.072    -9804173.177 6
  24462671.932    -4115406.858 3  -1429696.715 1
  21925420.705   -15271617.024 6  -9469460.852 7
  22609709.955   -11478001.018 6
